GFSGBSN_prec_cloud_003.txt.gz
Cloud_Cover
87 68 6 2 2 5 5 5 100 61 100 100 100 100 100 100 100 100 96 69 9 10 6 5 5 5 0 4 12 9 0 0 0 0 0 0 3 3 0 0 0 0 0 0 0 0 0
100 41 92 6 4 5 8 3 87 100 100 100 100 100 100 100 100 68 95 100 33 8 6 5 5 5 5 67 0 0 0 0 0 0 0 0 6 1 20 2 40 11 0 0 0 0 0
100 100 82 66 19 5 91 1 81 88 100 100 100 100 100 100 100 100 100 100 78 17 96 84 27 51 64 6 0 0 15 6 0 0 5 0 5 41 6 4 2 50 31 2 0 1 4
100 100 100 37 74 9 16 64 82 100 100 100 100 100 100 100 100 100 100 100 83 15 10 7 5 87 97 7 0 0 17 8 0 0 2 9 100 29 69 56 1 5 77 16 3 2 2
100 100 100 100 74 100 35 36 35 99 100 100 96 100 100 100 100 100 99 100 100 92 98 25 5 44 95 36 0 0 0 0 0 0 0 4 6 94 11 70 52 12 29 31 5 5 5
100 100 100 100 99 95 100 100 100 64 96 100 100 96 94 100 100 100 100 100 100 100 100 97 12 78 6 6 5 0 0 5 5 2 42 4 0 5 6 32 100 100 48 70 39 42 54
100 99 90 93 100 98 100 100 100 100 49 80 100 100 97 5 100 100 100 100 100 100 100 100 50 92 5 36 5 5 5 57 5 5 5 5 5 79 5 5 63 27 74 48 5 4 5
100 99 99 100 100 100 98 97 94 100 100 100 100 100 100 100 100 100 94 92 100 100 100 100 61 91 22 60 40 26 60 48 77 100 5 12 61 14 5 5 4 5 38 16 100 40 17
79 20 5 32 100 100 100 34 80 94 76 98 100 100 100 100 100 100 100 95 100 94 96 100 100 80 80 76 100 9 96 28 41 50 30 6 21 100 60 10 6 5 12 10 5 61 61
97 100 72 74 2 96 75 100 100 83 60 70 100 100 100 40 98 100 100 99 100 100 100 100 100 100 74 100 100 57 60 94 98 73 99 17 70 55 51 5 5 5 87 100 41 84 94
100 100 8 100 100 100 100 100 100 100 10 12 99 100 14 20 72 100 77 25 100 100 99 92 53 16 100 100 100 84 75 100 97 43 100 20 14 91 98 26 100 73 100 100 100 90 100
100 100 5 52 36 74 98 53 100 100 98 84 100 100 100 100 30 90 85 80 100 89 100 66 72 50 92 99 100 100 99 98 100 100 100 14 46 69 99 100 100 66 100 81 100 66 87
91 100 33 60 5 36 48 54 100 100 100 100 86 100 100 46 42 83 100 39 84 98 68 64 68 95 44 100 90 99 100 100 100 100 100 100 100 100 100 100 63 96 100 100 100 94 91
99 100 100 83 46 100 100 43 100 100 100 100 91 100 100 99 100 99 34 93 89 99 68 43 100 100 99 92 91 100 100 100 100 100 100 100 100 99 99 53 98 99 100 100 19 31 100
100 100 95 95 100 100 100 89 100 100 100 100 100 100 35 100 100 98 14 100 100 12 95 100 100 100 100 94 98 100 100 100 100 100 92 74 79 98 100 100 75 65 35 36 100 100 100
100 100 100 100 100 100 100 100 100 100 100 100 100 100 100 100 100 100 59 100 15 89 100 100 100 100 96 97 100 100 77 53 82 82 94 100 100 100 100 100 93 36 92 100 100 100 100
100 99 100 100 100 100 100 100 100 100 100 100 100 100 100 100 100 100 100 91 85 100 100 100 100 100 68 29 100 24 27 13 34 69 100 100 100 100 100 100 98 82 100 100 100 100 100
100 100 100 100 100 100 100 100 100 100 99 100 100 100 100 100 100 100 100 100 100 100 100 100 100 100 8 78 92 58 17 53 60 66 100 100 100 100 100 100 100 100 100 100 100 100 100
51 100 94 100 100 100 100 100 100 100 100 100 100 100 100 100 100 100 100 100 100 100 100 100 100 100 87 100 100 100 100 100 100 100 100 100 100 100 100 100 100 100 100 100 100 100 100
64 82 31 98 100 100 100 100 100 100 100 100 100 100 100 100 100 100 100 100 100 100 100 100 100 100 100 100 100 100 100 100 100 100 100 100 100 100 100 100 100 100 100 100 100 100 100
6 66 5 81 100 100 100 100 100 100 100 100 100 100 99 100 100 100 100 100 100 100 100 100 100 100 100 100 100 100 100 100 100 100 100 100 100 100 100 100 100 100 100 100 100 100 100
35 44 74 96 100 100 100 100 100 100 100 100 100 100 100 100 100 100 100 100 100 100 100 100 100 100 100 98 100 100 100 100 100 100 100 100 100 100 100 100 100 100 100 100 100 100 57
31 84 76 98 100 100 100 100 100 100 100 100 100 98 100 100 100 100 100 100 100 100 100 100 100 100 100 100 98 79 100 100 100 100 100 100 100 100 100 100 100 100 100 100 100 98 5
42 49 95 100 97 99 100 100 100 100 100 100 100 100 100 100 100 100 100 100 100 100 88 100 100 100 100 100 100 100 100 100 100 100 100 100 100 99 100 100 100 100 100 48 41 20 5
15 65 84 87 100 100 100 100 100 100 100 100 100 96 100 100 100 100 100 100 100 100 100 100 100 100 100 100 100 100 100 99 99 100 73 100 96 100 96 98 28 56 9 74 6 5 4
15 96 55 100 100 100 100 100 100 100 100 100 100 100 100 100 100 100 100 100 100 100 100 100 100 100 100 100 96 100 100 95 72 96 98 96 77 74 18 6 5 5 3 5 4 1 5
5 74 72 94 100 100 100 100 100 100 100 100 100 100 100 100 100 100 100 100 100 100 100 100 100 100 100 100 100 95 81 40 92 82 32 27 92 56 96 100 100 61 4 0 0 0 4
5 52 89 100 100 100 100 100 100 100 100 100 100 100 100 100 100 100 100 100 100 100 100 100 100 100 100 100 100 100 81 44 65 15 100 100 100 100 81 55 77 65 8 5 9 5 5
6 6 63 85 100 100 100 100 100 100 100 100 100 100 100 100 100 100 100 100 100 100 100 100 100 100 100 100 76 100 59 77 85 81 32 92 49 65 20 56 5 45 52 99 100 77 11

GFSGBSN_prec_cloud_006.txt.gz
Cloud_Cover
100 100 100 100 100 99 59 14 98 96 100 100 100 98 100 100 100 100 100 100 100 100 100 100 100 78 5 52 35 5 0 0 0 0 8 29 4 0 0 0 0 0 0 0 0 0 0
100 100 100 100 100 100 77 98 31 71 98 79 100 100 100 100 100 100 100 100 100 100 100 100 100 100 80 35 5 5 5 1 0 0 0 4 2 0 0 0 2 0 5 0 0 0 0
94 100 100 100 100 100 100 94 62 5 73 100 100 100 100 100 100 100 100 100 100 100 100 100 100 100 96 8 26 88 30 3 5 0 0 0 0 4 36 1 0 0 1 1 0 0 0
100 100 100 100 100 100 100 98 44 33 84 99 100 100 100 100 100 100 100 100 100 100 100 100 100 100 100 52 7 5 37 5 1 1 2 60 66 40 100 59 13 21 2 10 0 0 0
100 100 100 100 100 100 100 100 76 8 8 72 100 100 100 98 100 100 100 100 100 100 100 100 100 100 100 98 19 5 5 10 2 1 1 100 100 70 81 100 100 52 50 4 5 1 4
100 100 100 100 100 100 100 100 100 92 76 33 95 100 100 100 100 100 100 100 100 100 100 100 100 100 100 100 100 23 28 22 5 3 5 69 100 59 100 42 85 49 35 3 4 39 2
100 100 99 100 100 63 100 100 100 100 76 64 43 99 100 100 27 11 97 100 100 100 100 100 100 100 100 100 100 100 100 94 5 5 5 3 13 7 5 4 48 6 98 6 5 18 8
100 100 100 100 100 97 14 89 100 100 100 63 26 88 100 100 100 19 18 21 4 75 95 100 100 100 100 100 100 100 100 62 5 6 5 42 88 5 4 0 4 16 62 8 5 78 62
68 10 100 100 100 100 100 93 100 100 100 100 23 28 98 100 100 75 50 26 57 34 37 89 45 87 100 100 100 100 97 10 15 100 100 62 7 11 5 5 13 5 5 6 55 5 82
32 96 93 100 100 100 100 100 19 100 100 100 100 90 100 100 97 30 99 63 93 82 77 100 98 88 97 100 100 100 100 84 84 65 100 100 72 46 14 7 5 35 4 5 5 33 42
87 100 100 100 100 46 84 98 100 100 100 100 100 97 99 100 20 80 6 5 8 64 32 100 100 88 100 100 92 100 100 98 88 21 80 54 9 26 21 20 62 7 11 4 5 5 18
99 100 100 100 76 98 68 24 69 100 100 100 100 100 100 100 100 97 58 16 57 50 48 94 76 22 87 100 100 100 100 98 100 88 86 69 89 32 10 30 22 78 65 51 74 29 65
60 100 100 100 50 100 94 97 99 26 86 100 100 100 97 100 55 55 98 64 41 89 94 66 84 20 88 100 100 99 100 100 100 100 100 100 73 64 100 98 90 100 90 100 98 66 43
50 100 100 90 100 100 100 100 100 99 100 100 100 100 100 27 38 100 94 68 78 98 96 6 32 61 100 94 72 96 100 100 100 100 100 94 100 96 96 100 100 100 100 100 95 78 4
14 73 91 98 100 100 100 100 100 91 100 100 100 100 100 100 88 75 100 84 48 28 6 38 94 100 100 100 100 100 100 94 100 100 100 100 100 100 100 100 100 100 100 100 100 100 100
5 24 91 98 100 100 100 100 100 100 100 100 100 100 98 100 100 98 100 69 11 6 11 18 72 100 100 100 94 97 91 13 99 73 88 35 81 62 18 35 81 100 100 100 94 92 34
5 26 14 82 100 87 100 100 100 100 100 100 100 100 100 88 100 100 100 32 9 25 5 42 100 100 100 93 45 97 23 3 5 5 20 18 75 100 100 100 100 69 95 16 2 10 86
9 22 24 100 97 100 100 100 100 100 100 100 100 100 100 100 100 100 100 36 100 22 96 100 100 100 100 22 6 86 49 5 5 67 96 100 100 100 100 100 62 16 8 13 96 100 100
5 39 10 60 95 100 100 100 100 100 100 100 100 100 100 100 100 100 100 100 100 100 100 100 100 99 81 78 93 100 100 100 100 100 100 100 100 100 100 100 100 100 100 100 100 100 100
5 20 21 5 31 100 100 100 100 100 100 100 100 100 100 100 100 98 100 100 100 100 100 100 100 100 95 100 100 100 100 100 100 100 100 100 100 100 100 100 100 100 100 100 100 100 100
5 8 5 5 51 97 100 100 100 100 100 100 100 100 100 100 100 94 100 100 100 100 100 100 100 100 100 100 100 100 100 100 100 100 100 100 100 100 100 100 100 100 100 100 100 100 100
23 96 5 22 61 100 84 100 100 100 100 100 100 100 98 97 92 100 100 100 100 100 100 100 100 100 100 100 93 100 100 100 100 100 100 100 100 100 100 100 100 100 100 100 100 100 100
5 38 86 98 26 95 92 100 100 100 100 100 100 100 90 55 100 100 100 100 100 100 100 100 100 100 100 100 100 100 100 100 100 100 100 100 100 100 100 100 100 100 100 100 100 100 100
14 73 5 84 66 93 100 100 100 100 100 100 100 100 100 100 100 100 100 100 100 100 100 100 100 100 100 100 100 100 100 100 100 100 100 100 100 100 100 100 100 100 100 100 100 100 100
62 8 88 26 6 100 100 100 100 100 100 100 100 100 87 100 100 100 100 100 100 100 100 100 100 100 100 100 100 100 100 100 99 100 100 100 100 100 100 100 100 100 100 100 100 100 100
36 14 5 5 5 100 100 100 100 100 100 100 100 87 86 100 100 100 100 100 100 100 100 100 100 100 100 100 100 100 100 100 99 51 98 96 100 100 100 100 100 87 100 80 94 100 5
6 85 5 5 13 94 100 100 100 100 100 100 100 100 100 100 100 100 100 100 100 100 100 100 100 100 100 100 100 100 100 100 41 37 51 65 94 98 92 100 100 90 5 5 5 4 0
5 8 5 5 71 97 100 100 100 100 100 100 100 100 100 100 100 100 100 100 100 100 100 100 100 100 100 100 100 100 100 79 53 5 5 57 43 78 36 39 51 3 5 4 3 0 0
5 5 5 5 71 43 100 100 99 100 100 100 100 100 100 100 100 100 100 100 100 100 100 100 100 100 100 100 74 100 91 27 81 61 5 13 12 85 7 5 5 5 5 5 5 5 5

GFSGBSN_prec_cloud_009.txt.gz
Cloud_Cover
100 100 100 100 99 100 100 100 100 100 100 100 100 100 91 18 6 18 64 100 100 100 100 100 100 100 99 96 100 100 100 2 6 26 30 92 63 0 0 0 0 0 0 0 0 0 0
100 95 40 69 100 100 100 100 100 100 100 64 100 100 100 97 66 86 100 100 100 100 100 100 100 100 100 100 100 100 100 10 0 3 14 37 5 0 3 0 0 6 2 0 0 0 0
99 100 100 100 100 100 100 100 100 100 100 100 100 100 100 100 100 100 100 100 100 100 100 100 100 100 100 100 100 100 100 97 29 4 5 5 0 0 25 1 0 0 2 0 1 0 0
45 100 100 100 100 100 100 100 100 100 100 100 100 100 100 100 100 100 100 100 100 100 100 100 100 100 100 100 100 100 100 100 98 46 10 5 32 1 54 11 61 99 62 23 0 0 0
5 15 100 100 100 100 100 100 100 100 100 100 100 100 100 100 100 100 100 100 100 100 100 100 100 100 100 100 100 100 100 100 64 92 98 29 98 26 25 99 100 80 15 10 26 1 0
5 5 8 44 100 100 100 100 99 100 100 100 100 100 100 79 100 74 100 100 100 100 100 100 100 100 100 100 100 100 100 100 100 100 100 98 96 100 96 100 92 97 85 46 6 3 5
0 0 0 20 100 100 100 100 100 91 100 100 100 100 100 100 100 100 29 99 100 100 100 100 100 100 100 100 100 100 57 98 100 100 100 100 65 100 72 48 24 77 40 100 54 100 5
2 3 35 100 100 100 100 100 100 100 84 97 100 100 100 100 100 100 50 35 78 70 100 98 75 100 100 100 100 100 82 70 84 96 100 92 39 100 70 29 5 5 33 42 57 100 80
5 35 99 100 69 100 100 100 98 100 76 100 100 100 100 100 100 100 81 53 4 16 35 85 24 55 92 99 100 100 100 89 81 88 93 24 78 76 84 7 11 20 55 6 60 5 2
97 94 95 100 100 100 100 99 100 100 25 92 100 100 100 100 100 100 100 52 15 71 51 9 30 16 3 71 36 78 98 96 57 25 56 92 94 72 5 5 5 91 11 5 5 11 26
92 71 50 98 40 100 46 93 100 100 88 86 100 100 100 100 100 100 100 44 36 63 5 9 50 77 100 27 39 5 7 97 97 100 82 64 22 66 30 78 30 71 5 5 10 5 9
61 34 59 51 22 100 38 74 100 83 29 100 100 100 100 100 99 100 91 98 98 26 58 77 100 98 100 99 97 43 71 59 100 100 100 44 30 99 100 98 13 6 25 17 25 68 100
100 29 66 12 68 36 100 100 100 72 100 43 100 100 100 100 93 100 94 89 97 84 100 100 100 96 100 92 100 100 92 100 92 100 100 100 99 69 32 12 92 100 99 100 100 100 100
83 35 32 11 11 77 100 100 100 100 100 95 100 100 100 100 100 100 93 98 82 100 100 97 53 86 92 22 22 74 100 90 100 100 100 98 100 100 65 5 98 100 100 100 100 77 30
92 62 89 42 10 78 100 100 100 100 100 98 100 100 100 100 100 100 83 100 100 100 100 78 96 100 100 63 72 96 100 100 50 100 100 100 75 5 5 90 95 98 100 55 100 100 100
20 76 79 4 37 100 100 100 100 100 100 100 100 100 100 100 96 85 100 83 100 100 100 76 100 98 100 100 81 99 100 99 93 23 68 76 75 5 19 30 67 100 100 100 100 100 100
74 39 89 39 43 95 100 100 100 100 100 100 100 100 100 100 100 99 100 100 100 100 92 100 100 89 100 99 83 100 100 93 80 8 85 100 100 40 43 77 38 80 100 100 100 86 49
97 26 32 56 43 100 100 100 100 100 100 100 100 100 100 100 100 100 100 100 100 70 90 100 100 100 100 64 100 100 87 100 78 100 100 100 100 100 100 100 100 100 71 89 100 69 30
99 61 100 17 49 96 36 79 90 99 100 100 100 100 100 100 100 100 100 79 100 81 96 100 97 100 100 100 100 99 90 100 100 100 100 100 100 100 100 100 100 100 100 5 5 78 100
98 41 100 5 5 5 67 75 100 100 100 100 100 100 100 100 100 100 100 100 91 100 99 100 100 100 100 100 64 100 100 100 100 100 100 100 100 100 100 100 100 100 41 5 5 70 100
69 27 100 46 36 13 72 55 100 100 100 100 100 100 100 100 100 95 100 87 99 100 100 99 100 100 100 100 100 100 100 100 100 100 100 100 100 100 100 100 100 100 100 100 100 100 100
78 97 100 80 32 39 82 95 100 100 100 100 100 100 100 100 100 100 70 83 100 82 99 100 100 100 100 100 100 96 100 100 100 100 100 100 100 100 100 100 100 100 100 100 100 100 100
98 78 92 63 5 86 93 100 100 100 100 100 100 100 100 100 100 100 100 100 84 100 100 100 100 100 100 100 100 99 100 100 100 100 100 100 100 100 100 100 100 100 100 100 100 100 100
98 92 73 91 8 32 97 87 100 100 100 100 100 100 100 100 100 100 100 100 100 100 100 100 100 100 100 100 100 100 100 100 100 100 100 100 100 100 100 100 100 100 100 97 100 100 100
37 100 82 76 24 95 100 94 100 100 100 100 100 100 100 100 100 100 100 100 100 100 100 100 100 100 100 100 100 100 100 100 100 100 100 100 100 100 100 100 100 100 100 100 100 96 100
71 9 68 75 5 100 100 100 100 100 100 100 100 100 100 100 93 100 100 100 100 100 100 100 100 100 100 100 100 100 100 66 92 100 100 100 100 100 100 100 100 100 100 100 100 100 100
34 7 5 8 5 20 96 100 100 100 100 100 100 100 100 98 96 100 100 100 100 100 100 100 100 100 100 100 100 100 100 99 50 94 100 100 100 96 100 100 100 100 100 100 100 100 100
5 5 5 5 5 12 73 88 100 100 100 100 100 100 100 70 100 100 100 100 100 100 100 100 100 100 100 100 100 100 100 100 100 56 50 58 100 99 97 54 100 100 100 100 100 58 52
94 5 5 5 5 24 8 16 100 100 100 100 100 100 100 100 100 100 100 100 100 100 100 100 100 100 100 100 96 100 100 100 100 96 25 88 82 82 99 20 34 49 60 58 5 13 4

GFSGBSN_prec_cloud_012.txt.gz
Cloud_Cover
99 100 98 42 34 100 100 100 100 100 100 91 100 100 100 100 100 100 100 100 100 86 65 94 92 71 100 100 100 100 100 19 5 58 100 100 59 0 0 0 0 0 0 0 0 0 0
0 53 100 83 98 100 100 100 99 86 100 100 100 100 100 100 100 100 94 92 35 80 79 77 99 81 95 100 100 100 100 97 6 76 100 62 86 3 0 0 0 8 0 0 0 0 0
0 4 19 100 100 100 100 100 100 100 100 100 100 100 100 100 100 100 84 63 61 87 93 88 97 100 100 100 100 100 100 100 33 16 99 100 88 3 46 0 0 0 0 0 0 0 0
0 0 0 2 5 20 100 100 100 97 100 100 100 100 100 100 100 100 93 100 91 76 68 90 100 100 100 100 100 100 100 100 100 22 100 100 100 75 4 6 8 20 49 21 0 0 0
0 0 0 0 0 90 100 100 100 100 36 100 100 100 100 100 100 100 100 99 100 88 100 100 100 100 100 100 100 100 100 100 100 50 79 34 100 92 73 37 5 5 6 49 65 5 2
26 0 0 2 79 100 100 100 100 100 99 36 100 100 100 100 100 100 100 100 100 100 100 100 100 100 100 100 100 100 100 100 100 100 100 100 100 100 99 49 33 8 14 14 100 78 4
2 0 4 6 39 100 53 100 100 100 100 100 92 85 100 100 100 100 100 100 100 100 100 100 100 100 100 100 100 100 100 100 100 100 100 100 100 100 100 100 53 20 19 21 16 89 68
100 68 5 5 5 5 4 98 88 83 80 100 100 43 100 100 100 100 98 96 98 100 100 100 100 100 100 100 100 100 100 100 100 100 100 100 100 100 87 100 82 100 100 100 75 6 1
97 54 27 45 24 5 2 73 100 88 84 52 100 32 100 100 100 100 100 100 6 38 100 100 100 100 100 100 100 100 100 100 100 100 96 42 16 50 7 42 97 100 100 76 7 5 0
7 5 19 48 15 5 5 90 6 73 60 94 70 71 100 100 100 100 100 100 67 55 5 66 98 98 60 98 39 68 44 18 31 19 21 65 90 5 5 5 6 27 74 65 53 58 44
6 39 71 5 5 4 62 5 40 100 98 100 56 83 56 100 100 100 100 100 100 79 54 5 50 89 76 34 85 92 28 76 43 5 6 18 5 5 11 5 30 37 5 28 37 8 66
5 5 5 10 5 4 4 59 100 98 29 75 100 53 96 100 100 100 100 100 100 89 50 80 85 98 100 48 48 49 100 100 98 100 100 55 44 79 62 9 11 63 82 98 70 100 94
5 5 4 5 38 41 28 64 100 100 100 100 78 6 100 100 100 100 100 100 91 99 100 100 100 100 100 95 100 100 100 100 78 99 100 100 76 99 100 80 100 99 100 99 100 100 48
5 5 5 5 98 5 43 98 100 100 100 99 55 48 100 100 100 100 100 100 93 100 100 100 100 100 100 100 100 100 100 100 100 100 99 84 25 93 28 10 32 100 100 100 98 46 15
7 33 58 5 100 48 62 42 100 100 100 100 96 100 100 100 100 100 100 100 82 100 100 100 100 100 100 100 100 100 100 100 100 99 82 74 40 5 5 36 94 100 99 49 100 86 100
91 46 61 11 42 51 26 100 80 100 100 100 100 100 100 100 100 100 100 60 100 100 100 99 100 100 100 100 100 100 100 100 70 68 100 79 100 30 12 25 69 79 87 100 100 100 89
8 66 100 33 100 5 83 100 92 100 100 100 100 100 100 100 100 100 100 100 100 100 100 99 100 100 100 100 100 100 100 23 5 46 55 49 100 92 100 99 59 92 100 99 87 100 92
8 76 8 59 90 5 59 100 100 100 100 100 100 100 100 100 100 100 99 100 100 100 88 100 100 100 100 100 100 100 6 5 5 5 80 100 100 100 99 100 100 100 100 100 100 21 32
70 95 26 100 85 5 39 93 71 100 100 100 100 100 100 100 100 100 100 76 100 100 100 100 100 100 100 100 100 9 22 5 66 100 100 100 100 100 100 100 100 100 100 100 100 46 8
92 65 49 100 100 5 5 87 99 100 100 100 100 100 100 100 100 100 100 61 22 88 100 79 99 100 100 100 96 44 75 100 100 100 100 100 100 100 100 100 100 100 100 100 100 100 100
96 25 100 100 100 77 5 94 100 100 78 100 100 100 100 100 100 100 97 90 98 67 79 74 100 100 100 100 100 98 100 100 100 100 100 100 100 100 100 100 100 100 100 100 100 89 100
94 38 92 100 50 5 5 100 100 100 100 100 100 100 100 100 100 100 97 58 32 100 100 100 100 100 100 100 100 100 100 100 100 100 100 100 100 100 100 100 100 100 100 100 100 100 100
80 85 55 79 42 5 12 99 100 100 100 100 100 100 100 100 100 92 86 29 92 71 100 100 100 100 100 100 100 100 100 100 98 100 100 100 100 100 100 100 100 100 100 100 100 100 100
10 100 16 5 6 9 21 99 100 100 100 100 100 100 100 99 100 100 81 100 100 100 100 92 100 100 100 100 100 100 95 100 98 100 100 100 100 100 100 100 100 100 100 100 100 94 100
17 69 90 5 5 5 51 100 100 100 100 100 100 100 100 100 100 97 100 97 100 100 100 100 100 96 100 100 100 100 100 100 100 100 100 100 100 100 100 100 100 100 99 100 100 100 100
5 49 77 5 5 5 5 100 100 100 100 100 100 100 100 100 100 96 100 100 100 100 100 100 100 100 100 88 100 100 81 99 97 100 100 100 100 100 100 100 100 100 100 100 86 82 62
5 62 5 5 5 5 5 37 100 100 100 100 100 100 100 100 100 91 93 100 100 100 100 100 100 100 98 100 100 100 100 75 98 100 100 100 100 100 100 100 71 100 100 100 99 100 100
8 4 11 5 5 5 5 47 100 100 100 100 100 100 100 99 100 100 100 100 100 100 100 100 100 100 100 100 100 100 100 80 66 55 58 94 76 100 100 100 100 99 100 100 100 100 100
5 5 8 5 4 5 5 56 100 100 100 100 100 100 100 88 99 100 100 100 100 100 100 100 100 100 100 100 100 100 92 100 95 62 41 88 81 60 82 100 100 100 100 100 100 100 100

GFSGBSN_prec_cloud_015.txt.gz
Cloud_Cover
0 0 0 5 13 59 94 100 100 67 97 100 100 100 100 100 100 100 100 21 5 0 4 100 54 68 100 100 100 88 100 100 100 100 100 99 10 60 0 0 0 0 0 0 0 0 0
2 0 0 16 0 1 10 100 100 100 100 91 100 97 98 100 100 98 100 98 5 23 5 87 100 100 100 100 64 57 81 100 100 100 100 100 84 98 16 5 0 4 0 0 0 0 0
0 5 0 0 0 0 91 100 100 100 100 100 100 100 100 99 95 100 100 5 83 100 43 96 100 100 100 82 100 100 100 81 56 100 100 99 85 39 5 5 5 5 7 2 0 0 0
0 0 0 0 0 2 97 100 96 100 100 100 67 100 100 100 100 100 100 100 100 100 100 100 100 100 100 100 100 100 85 62 98 100 100 100 100 57 16 8 19 80 100 18 0 0 0
0 12 2 5 7 6 7 5 42 100 100 100 75 83 100 100 100 100 100 100 100 100 100 100 100 100 100 100 100 100 100 100 98 100 98 100 100 78 5 18 21 100 100 7 4 1 1
88 100 95 5 4 3 2 3 5 91 62 7 97 13 93 100 100 100 100 100 100 100 54 100 100 100 100 100 100 100 100 100 100 100 100 100 78 78 55 75 75 100 100 100 99 17 5
17 49 13 22 100 5 0 5 5 75 33 66 62 5 5 100 100 100 100 100 100 100 100 100 96 62 94 100 100 100 100 100 100 100 100 100 100 97 100 100 98 63 100 100 100 62 8
15 82 51 99 100 62 81 5 45 43 21 6 45 31 21 5 100 100 100 100 100 100 98 15 95 74 58 100 100 100 100 100 100 100 100 100 100 100 100 100 100 88 100 98 100 97 5
63 100 85 26 29 31 5 16 10 5 27 37 98 100 100 82 100 100 100 100 100 100 98 55 100 100 100 100 100 100 100 100 100 100 100 100 100 100 100 100 100 100 100 99 94 73 5
98 45 85 6 5 21 5 7 5 40 63 99 100 96 100 87 94 96 100 100 100 100 92 88 100 100 100 100 100 100 100 100 100 100 100 100 100 100 100 100 100 98 23 19 7 70 83
49 5 6 28 5 4 5 48 14 62 99 98 67 100 91 99 47 100 100 100 100 100 53 47 71 100 100 100 100 100 100 100 100 100 100 100 98 98 100 93 56 48 93 56 41 54 93
21 22 10 5 5 5 10 8 95 78 97 99 100 100 100 100 99 100 100 100 100 100 37 53 95 100 100 100 100 100 95 62 79 72 57 48 41 36 22 6 5 26 33 65 69 76 93
100 96 7 5 5 24 68 5 82 100 100 100 100 99 74 100 59 100 100 100 100 82 93 100 89 100 100 100 100 100 100 99 90 99 96 98 99 82 88 46 11 30 100 99 100 100 41
100 100 38 5 29 28 94 53 87 100 98 100 100 86 7 34 99 100 100 100 94 100 100 100 100 100 100 100 100 100 100 100 100 100 100 83 100 80 82 79 8 25 8 31 93 40 5
100 100 8 59 34 100 70 98 100 99 100 100 100 96 92 40 100 100 100 100 77 100 100 100 100 100 100 100 100 100 100 100 100 99 82 100 100 94 29 5 69 90 99 25 98 40 100
99 69 92 25 5 50 56 83 66 100 100 100 100 100 94 92 100 100 100 100 100 100 100 100 100 100 100 100 100 100 100 100 100 100 100 96 90 5 32 28 18 100 100 98 100 100 94
96 79 95 19 40 22 11 33 100 74 100 100 100 99 100 95 100 100 100 100 100 100 100 100 100 100 100 100 100 100 100 100 100 100 80 100 99 31 87 78 55 100 100 100 100 100 100
35 8 53 22 64 5 5 5 99 99 100 100 100 100 100 100 100 100 100 100 100 100 100 100 100 100 100 100 100 100 100 100 88 61 71 99 94 89 100 98 100 100 100 100 100 100 100
32 6 89 9 20 6 68 5 38 92 100 100 100 100 100 100 100 100 98 34 100 100 100 100 100 100 100 100 100 100 100 94 28 14 99 96 99 73 100 100 100 99 100 100 100 100 81
14 5 5 29 80 27 5 6 85 34 100 100 100 100 100 100 100 100 89 95 100 100 100 100 100 100 100 100 100 100 100 32 96 100 100 62 72 14 100 100 100 100 100 100 100 100 100
5 6 26 5 46 71 99 21 32 100 100 100 100 100 99 100 100 98 100 100 96 100 100 100 100 100 100 100 100 100 98 99 100 100 48 100 100 100 100 100 100 100 100 100 100 95 99
7 5 5 5 5 12 100 100 22 100 100 100 100 100 100 100 100 100 100 89 88 100 100 100 100 100 100 100 100 100 98 96 100 100 100 100 100 100 100 100 100 100 100 100 100 100 100
23 7 5 67 5 56 99 59 98 100 100 100 100 100 100 100 100 98 94 94 6 91 100 100 100 100 100 100 100 100 100 100 98 50 96 100 100 100 100 100 100 100 100 100 99 98 59
6 5 5 5 5 5 12 57 98 75 100 100 100 100 100 100 100 100 100 28 71 84 100 100 100 100 100 100 100 100 100 100 87 76 100 100 100 100 100 100 100 100 100 100 100 100 100
7 5 5 5 5 5 5 5 98 100 100 100 100 100 100 100 100 100 100 63 93 99 100 100 100 100 100 100 87 100 100 100 92 35 31 100 100 100 100 100 100 100 100 100 100 100 100
5 5 5 5 5 5 5 5 6 99 100 100 100 100 100 100 38 84 100 67 98 100 100 100 100 100 100 64 100 100 100 100 39 50 6 100 100 100 100 100 100 100 100 100 100 100 100
5 4 5 5 5 3 5 5 94 100 100 100 100 100 100 99 100 100 100 98 100 100 100 100 100 100 100 100 100 100 100 95 16 87 74 78 100 100 100 100 100 100 100 100 100 100 100
5 5 5 5 5 5 5 5 5 96 100 100 100 100 100 100 98 92 92 73 96 95 61 99 100 100 100 100 100 100 100 47 93 89 87 18 92 87 100 100 99 100 100 100 100 100 100
5 5 5 5 5 4 5 24 8 100 100 100 100 100 100 100 98 78 96 99 100 100 100 100 100 100 100 100 100 100 100 60 89 92 91 97 86 100 99 88 100 93 94 97 100 100 100

GFSGBSN_prec_cloud_018.txt.gz
Cloud_Cover
0 100 1 16 3 0 0 100 100 100 100 99 100 82 100 96 100 75 100 100 100 100 100 62 34 12 97 79 86 18 21 87 100 100 100 73 63 18 7 42 52 5 5 6 5 0 0
8 29 0 0 1 5 3 52 62 30 44 98 100 100 100 100 100 93 95 100 100 100 100 100 99 79 34 97 95 98 75 75 90 100 100 100 100 52 99 32 64 27 5 7 5 3 3
0 0 1 2 5 95 22 90 5 5 9 77 100 100 98 100 100 100 84 92 100 100 100 100 100 100 98 17 100 100 99 98 39 78 100 100 100 100 100 100 88 78 7 32 5 5 6
30 96 20 5 4 5 22 26 37 5 5 94 66 23 5 77 100 100 78 100 95 100 100 100 100 85 38 5 22 100 100 100 86 55 91 100 100 100 100 100 100 10 49 6 7 4 5
100 65 5 11 25 6 5 5 5 4 2 35 5 6 5 50 100 100 100 100 99 100 100 90 100 90 27 4 55 80 100 100 100 100 86 87 58 99 100 100 100 82 5 5 5 5 5
50 99 100 100 47 100 78 71 13 8 1 5 5 10 74 1 97 100 100 100 100 100 100 100 100 90 20 57 100 100 100 100 100 100 100 79 86 54 100 96 88 53 34 68 37 26 5
100 100 87 75 100 10 5 15 97 98 4 3 1 5 80 43 30 100 100 100 100 100 100 100 100 100 100 100 100 100 100 100 100 100 100 100 100 100 100 8 12 34 37 27 24 55 8
97 95 100 18 52 100 43 34 53 8 4 5 15 32 71 67 10 100 100 100 100 100 100 100 100 100 100 100 100 100 100 100 100 100 100 100 100 100 100 100 50 43 16 46 6 8 5
100 96 88 32 41 70 32 7 5 74 4 47 100 100 82 22 8 88 100 100 100 100 100 100 100 100 100 100 100 100 100 100 100 100 100 100 100 100 100 100 100 81 29 24 14 16 14
84 100 100 26 7 10 55 80 94 21 5 38 28 90 99 96 8 33 100 100 100 100 100 100 100 99 100 100 100 100 100 100 100 100 100 100 100 100 100 100 100 68 10 16 21 83 59
98 100 95 18 59 90 100 96 88 6 27 90 100 100 98 100 48 30 91 100 100 100 100 99 99 100 80 39 98 100 100 100 100 100 100 100 100 100 100 100 51 32 78 99 100 100 96
95 100 17 52 86 88 100 76 94 23 98 94 100 98 96 96 72 20 100 100 100 100 100 76 100 100 97 97 97 100 100 100 100 100 100 100 100 100 100 78 98 100 100 99 95 100 86
45 23 78 56 91 75 85 96 5 98 32 69 100 100 99 96 39 52 100 100 100 100 99 100 100 100 100 100 99 98 100 100 100 100 100 100 100 88 92 90 81 94 100 94 100 100 11
55 97 99 95 73 42 30 12 5 30 79 100 100 100 26 64 89 100 100 100 100 87 100 100 100 100 100 48 100 100 100 100 100 100 100 95 63 68 38 50 62 100 95 49 58 22 57
94 53 93 100 8 32 26 2 6 100 76 95 100 95 74 72 95 100 100 100 100 100 100 100 100 100 100 100 100 100 100 100 100 96 67 100 100 88 38 15 50 96 97 16 94 58 100
92 30 97 99 20 56 27 4 60 100 94 97 100 95 100 100 89 96 100 100 100 100 100 100 100 100 100 100 90 100 100 100 98 54 85 80 75 99 17 67 97 62 54 90 100 91 100
77 81 68 83 100 15 11 5 34 94 100 100 100 100 100 100 100 100 100 100 100 100 100 100 100 100 98 100 85 100 100 100 100 100 98 100 100 100 53 61 11 93 100 97 100 100 100
82 97 82 87 64 46 18 5 8 90 100 100 100 100 100 100 100 100 100 100 100 100 100 100 100 90 34 100 100 100 100 100 100 100 100 100 98 100 32 5 13 91 92 100 100 100 100
17 88 42 51 13 95 13 5 100 70 100 100 100 100 100 100 98 100 100 100 100 100 100 100 100 100 100 100 100 100 100 100 100 100 99 69 80 80 6 30 45 79 100 100 100 100 96
93 79 86 79 4 45 5 5 35 100 100 100 100 100 100 100 99 100 100 100 100 100 100 100 100 100 100 100 100 100 100 100 100 87 6 15 78 6 5 86 100 100 100 100 100 100 95
100 15 98 27 2 7 5 50 8 98 100 100 100 100 100 100 100 100 100 100 100 100 100 100 100 100 100 100 100 100 100 100 99 100 42 68 99 36 45 63 81 80 68 100 100 100 100
100 5 88 70 5 5 5 5 84 18 76 100 100 100 100 100 98 96 62 100 100 99 100 100 100 100 100 100 100 100 100 100 81 100 87 100 97 93 100 80 100 100 100 100 100 100 100
100 81 5 47 5 5 5 5 98 20 66 100 100 100 100 100 100 98 100 96 45 100 100 100 100 100 100 100 100 100 100 100 100 100 95 100 100 100 100 100 75 100 100 100 100 100 100
94 6 4 5 5 5 5 5 10 32 57 100 100 100 98 100 99 92 72 64 6 100 100 100 100 100 100 100 100 98 100 100 100 100 100 100 100 100 100 98 100 100 100 100 100 100 100
50 5 5 5 5 5 5 5 5 28 64 97 100 100 100 100 99 31 39 39 5 82 100 100 100 100 100 100 100 100 100 100 100 99 100 100 100 100 100 100 100 100 100 100 100 100 100
6 5 5 5 5 5 5 5 9 62 94 100 100 100 100 53 89 100 100 12 20 59 100 100 100 100 100 100 100 100 100 100 100 63 100 100 100 100 100 100 100 100 100 100 100 100 100
5 5 5 6 5 5 5 5 5 9 74 100 100 100 100 100 69 22 68 30 21 94 98 100 100 100 100 100 100 100 91 99 100 40 83 100 100 100 100 100 100 100 100 100 100 100 100
5 5 5 5 5 5 5 5 5 5 59 100 100 100 100 100 28 5 5 100 47 99 100 93 100 100 100 100 100 100 100 100 90 16 92 13 85 59 97 100 100 100 98 100 100 100 100
5 5 5 5 5 5 5 5 5 5 5 99 100 100 100 100 81 28 99 99 46 100 95 95 100 100 100 100 100 100 100 98 49 83 91 24 82 88 74 100 100 100 99 100 100 57 100

GFSGBSN_prec_cloud_021.txt.gz
Cloud_Cover
0 0 3 4 5 2 47 6 92 4 5 1 9 100 100 89 98 100 100 100 100 100 100 100 100 91 99 76 65 13 1 9 94 100 100 100 100 100 100 100 97 5 85 100 44 5 5
2 2 5 6 6 8 8 4 5 5 6 5 5 12 100 30 98 100 97 72 100 100 100 100 100 100 100 90 83 77 48 5 25 51 100 100 100 100 100 100 100 40 5 37 100 96 5
5 29 68 5 5 16 9 3 5 3 5 5 5 5 8 5 57 96 91 100 100 100 100 100 100 100 100 100 100 94 93 47 28 39 100 87 98 100 100 100 100 57 12 5 55 43 87
100 71 100 100 13 9 27 10 5 18 5 3 4 5 5 24 94 87 98 100 100 100 100 100 100 100 100 100 100 100 100 82 56 26 69 61 99 100 100 100 100 78 5 5 5 5 73
98 95 100 94 100 69 80 90 12 100 49 16 2 5 5 5 5 77 61 100 100 100 100 100 100 100 100 100 100 100 48 57 78 99 72 78 92 93 100 100 100 100 95 23 7 10 40
100 100 98 100 90 29 71 85 100 48 18 26 46 0 4 6 22 19 42 100 100 100 100 93 100 100 100 100 100 100 100 89 63 100 100 100 99 100 76 100 100 100 100 100 100 100 90
100 16 70 70 100 60 44 100 100 100 33 87 78 1 40 100 99 89 41 100 100 100 100 76 100 100 100 100 100 100 100 64 100 76 100 100 100 100 58 27 84 100 100 100 100 100 98
88 48 53 100 97 64 96 92 36 75 91 31 5 6 100 100 100 91 39 100 100 100 100 100 100 100 100 100 100 32 15 50 100 100 100 96 100 100 100 100 88 78 58 31 27 52 7
100 100 100 100 54 56 16 20 94 32 36 8 49 100 33 92 91 71 40 100 100 100 100 100 100 100 100 97 93 92 80 89 98 100 100 100 100 100 100 100 100 100 42 10 5 5 5
100 100 47 8 61 81 70 14 74 42 95 99 98 100 100 94 14 65 60 100 100 100 99 100 100 100 100 100 94 36 30 51 100 100 100 100 100 100 100 100 100 100 99 52 54 49 5
100 67 88 92 72 93 92 63 100 96 96 91 100 100 100 99 100 92 62 100 100 100 100 84 100 96 100 96 95 98 100 99 100 100 100 100 100 100 100 100 100 100 98 86 74 83 82
90 96 58 62 58 46 100 55 75 92 10 78 95 97 100 100 98 75 81 100 100 100 100 99 100 100 100 100 100 100 100 100 100 100 100 100 100 100 100 100 100 100 99 100 100 92 58
100 97 72 31 43 64 99 84 18 5 42 85 100 79 59 99 50 81 100 100 100 100 70 100 100 100 100 100 100 100 100 100 100 100 100 100 100 100 100 100 100 100 100 100 92 99 5
98 87 50 56 49 100 96 92 10 23 85 100 67 26 82 99 35 100 100 100 100 100 71 100 100 100 100 100 100 100 100 100 100 100 100 100 100 100 100 100 100 100 100 100 42 5 4
22 94 70 42 99 36 36 5 5 100 76 8 80 82 97 100 39 72 100 100 100 63 100 100 100 100 100 100 100 100 100 100 95 100 20 62 60 91 91 90 97 96 93 14 100 5 48
100 84 69 69 95 24 43 10 64 56 100 100 100 87 98 83 84 100 100 100 100 87 100 100 100 100 100 100 100 100 100 69 100 31 43 90 66 8 66 68 79 59 69 91 99 83 92
100 97 100 69 47 38 28 5 5 100 99 100 100 100 100 98 99 100 100 100 100 96 100 100 100 100 100 100 100 100 82 52 59 67 100 99 78 98 72 69 27 98 97 70 66 94 99
100 100 100 87 37 5 73 5 18 93 100 100 100 100 100 68 100 100 100 100 93 100 100 100 100 100 100 94 100 81 63 62 47 97 80 98 100 68 18 68 21 44 68 99 100 58 100
84 95 84 49 5 83 17 5 77 100 100 100 100 100 86 100 100 100 100 99 100 100 100 100 100 100 88 100 78 78 69 31 39 96 100 100 84 63 36 39 83 58 27 94 100 100 100
52 98 23 8 5 5 5 3 78 100 100 100 100 100 100 100 100 100 100 100 100 100 100 100 100 93 100 100 43 61 56 57 86 100 100 88 95 34 88 36 98 100 100 100 100 100 100
100 100 5 5 5 5 5 5 8 90 100 99 100 100 100 56 80 87 100 100 100 95 100 100 100 100 100 100 62 54 99 100 100 100 58 98 81 83 91 44 100 100 100 100 100 100 100
20 5 5 5 5 5 5 5 5 80 79 100 100 100 100 100 100 96 98 100 100 100 100 100 100 100 99 88 93 100 100 99 78 92 68 95 84 93 100 98 88 100 100 100 100 100 100
75 6 5 5 5 5 5 5 5 5 14 100 100 100 100 100 100 100 88 99 100 100 100 100 100 100 100 100 100 100 100 100 100 95 100 100 100 100 100 68 42 77 100 100 100 100 100
5 5 5 5 5 5 5 5 5 5 65 100 100 100 100 100 100 87 6 77 100 100 100 100 100 100 100 100 100 100 100 100 100 100 100 100 100 100 99 100 98 100 100 100 100 100 100
5 5 5 5 5 5 5 17 18 4 15 100 100 100 100 96 100 59 5 6 100 100 100 100 100 100 100 100 100 99 100 100 100 100 100 100 100 100 100 100 86 100 100 100 100 100 100
20 5 5 85 82 5 5 7 5 1 6 99 100 100 100 100 44 34 5 5 72 100 100 100 100 100 100 100 100 99 100 100 100 100 100 100 100 100 100 100 100 100 100 100 100 100 100
96 5 8 26 41 5 5 5 5 5 5 49 100 100 98 100 88 43 37 16 6 82 100 100 100 100 100 100 100 98 100 100 97 100 76 100 100 100 100 100 57 77 97 100 100 100 100
90 13 5 22 5 5 5 5 5 11 5 17 97 100 100 100 83 100 76 28 5 47 97 100 100 100 100 100 84 100 100 100 65 100 79 68 95 100 100 100 100 100 100 20 100 100 100
71 83 5 5 5 5 5 5 5 5 5 5 81 100 100 100 97 95 100 20 34 12 94 100 100 100 100 100 99 100 100 98 100 100 52 38 82 100 78 52 100 95 99 94 100 99 99

GFSGBSN_prec_cloud_024.txt.gz
Cloud_Cover
8 6 8 96 5 7 4 24 5 18 5 16 5 5 5 47 98 100 100 100 100 100 100 100 100 100 100 99 62 100 14 36 100 100 100 100 100 100 100 100 100 100 100 100 100 53 100
90 99 98 100 100 53 10 14 5 5 2 2 5 77 23 5 16 35 96 100 100 100 100 100 100 100 98 89 100 54 88 5 8 99 100 100 100 100 100 100 100 100 100 100 100 100 39
85 100 100 100 100 100 100 82 97 87 88 48 2 9 100 98 5 5 11 100 100 100 100 100 100 99 100 98 92 100 87 10 72 52 48 100 100 100 100 100 100 100 100 100 100 100 34
88 100 100 100 96 90 74 62 48 99 100 100 6 83 28 89 3 5 5 97 100 100 100 100 100 100 100 90 100 100 100 100 25 100 22 98 96 100 100 100 100 100 100 100 100 100 100
98 100 84 99 87 100 80 35 86 100 100 89 99 82 97 4 0 2 6 34 99 100 100 100 100 100 100 100 100 100 100 100 100 72 37 100 100 92 100 100 100 100 100 100 100 100 100
100 52 100 100 100 85 58 97 97 100 54 99 98 87 89 0 34 18 35 30 100 100 100 100 100 100 100 100 100 100 100 100 100 100 100 100 100 100 66 97 100 100 100 100 100 100 100
99 100 100 100 12 77 70 91 85 100 40 7 99 26 14 12 68 100 99 33 88 100 100 100 84 5 99 100 100 100 100 100 100 100 100 100 100 100 6 5 5 40 95 68 75 86 93
100 100 79 19 73 84 96 98 100 100 96 32 85 7 98 100 5 10 99 88 100 100 100 100 100 100 80 100 100 100 100 100 100 100 100 100 86 100 67 79 78 16 7 5 5 13 6
100 100 52 76 47 92 93 100 100 92 84 79 70 21 94 100 9 61 20 2 100 100 100 100 100 98 50 55 100 100 84 100 100 100 100 100 100 71 20 60 90 98 56 9 5 5 5
100 100 5 60 56 82 100 97 81 53 41 15 54 100 100 100 80 67 13 29 100 100 100 100 100 100 99 30 100 100 100 100 100 100 100 100 100 100 100 78 100 100 100 100 94 5 5
100 95 15 90 49 63 100 100 94 5 5 70 100 100 100 100 100 100 12 39 100 100 100 100 100 98 81 91 100 100 100 100 100 100 100 100 100 100 100 99 100 43 90 100 100 64 8
100 62 5 32 51 84 76 14 4 5 5 5 98 55 68 100 100 22 29 100 100 100 100 100 97 97 20 74 100 100 100 100 100 100 100 100 100 86 92 5 5 7 84 100 100 98 57
100 49 96 33 11 73 5 5 5 6 59 17 35 100 100 100 100 36 32 100 100 100 100 100 98 100 69 100 100 100 100 100 100 100 100 99 98 16 5 10 8 97 100 100 99 98 71
97 82 84 42 99 52 5 6 18 32 40 52 100 100 97 51 94 94 100 100 100 100 100 100 100 100 100 100 100 100 100 100 89 28 90 68 70 43 99 100 100 100 100 100 40 74 96
100 77 29 66 97 29 5 7 5 8 74 100 98 70 95 49 12 72 100 100 100 100 96 96 100 100 100 100 100 100 100 100 100 100 100 72 100 100 100 100 100 100 100 100 100 90 5
94 100 16 82 41 45 6 26 5 100 98 100 100 100 88 62 100 100 100 100 100 97 96 63 97 100 98 100 100 100 100 100 100 76 94 100 100 100 100 100 100 100 100 100 90 81 100
6 100 50 70 15 32 5 11 92 89 100 100 76 100 83 7 100 100 100 100 100 100 98 99 22 100 100 100 100 100 100 97 77 94 71 98 85 90 77 74 99 100 94 87 92 45 5
100 100 39 15 94 5 5 5 64 100 100 100 90 100 100 98 100 100 100 100 100 100 100 100 100 71 97 83 100 100 87 98 18 100 97 100 100 96 28 6 81 100 83 72 100 5 5
96 100 5 4 5 5 5 5 86 100 100 96 100 100 100 100 100 100 100 98 97 100 100 100 100 98 100 98 100 100 100 52 53 12 100 86 86 69 98 100 90 64 25 95 58 63 100
8 73 5 5 17 5 5 3 34 100 86 86 100 99 100 100 97 92 100 100 100 100 100 99 100 100 100 98 81 100 99 6 5 40 97 100 100 100 47 47 34 86 5 62 100 100 84
83 43 5 5 5 5 5 1 5 44 80 63 95 80 84 93 100 99 100 100 100 100 97 70 100 100 100 100 97 100 100 6 5 36 100 100 95 37 11 5 19 93 73 100 100 100 100
78 5 5 5 5 5 4 3 0 33 5 97 97 100 92 19 14 27 38 100 100 57 90 100 100 100 100 100 100 100 100 100 81 100 100 91 60 46 41 65 92 99 100 89 100 100 100
90 5 5 7 82 5 5 5 0 28 100 100 100 100 100 46 65 45 76 98 95 100 100 100 100 100 100 100 100 54 41 92 100 100 92 88 95 100 76 16 96 100 100 100 94 96 100
90 5 5 5 5 6 9 5 0 6 100 100 100 100 100 59 30 100 70 100 100 100 100 100 100 100 100 100 100 100 100 100 89 41 89 100 100 100 99 73 72 100 100 96 100 100 100
94 19 5 5 5 34 7 5 5 4 72 100 100 100 100 63 85 100 74 100 100 100 100 100 100 100 100 100 99 100 100 82 58 87 92 100 100 100 100 100 77 100 100 100 100 92 85
96 100 9 8 5 5 5 12 5 5 3 100 100 99 100 100 67 86 5 65 100 100 100 100 100 100 100 100 100 100 100 99 100 100 100 100 100 100 100 100 100 100 100 100 100 100 95
100 100 72 14 6 5 5 15 5 5 3 10 100 100 100 100 98 87 43 13 33 100 100 100 100 100 96 100 100 100 100 96 98 100 100 100 100 100 100 100 88 12 100 88 100 100 96
100 15 100 10 84 72 5 47 44 7 6 3 40 100 100 100 100 28 65 66 5 11 100 100 100 100 100 100 100 97 100 99 86 100 100 100 100 99 100 100 63 89 100 77 87 100 93
100 96 83 100 99 100 89 20 57 5 5 5 26 65 100 100 78 54 33 58 5 8 100 100 100 100 100 94 89 100 100 98 84 100 98 87 91 98 93 50 92 100 100 100 99 77 88

GFSGBSN_prec_cloud_027.txt.gz
Cloud_Cover
100 100 100 32 100 100 55 84 61 80 78 88 48 5 12 15 100 100 100 100 100 100 100 100 100 100 100 100 100 32 22 33 100 100 100 100 100 100 100 100 94 100 100 100 100 100 93
100 100 100 100 100 54 11 22 38 77 67 98 100 100 67 8 28 100 5 6 56 100 100 100 100 100 100 100 100 100 80 6 20 76 100 100 100 100 100 100 100 100 100 100 100 100 100
100 100 100 99 100 100 68 8 99 99 100 100 100 100 100 36 4 36 2 5 3 100 100 100 100 100 100 100 100 100 100 94 5 8 49 100 100 100 100 100 100 100 100 100 100 100 100
100 100 100 100 100 93 6 13 7 96 98 100 100 100 100 9 6 3 0 3 9 94 100 100 100 100 100 100 100 100 100 100 100 70 40 85 100 100 100 100 100 100 100 100 100 100 100
100 96 100 100 28 89 13 51 6 24 94 100 100 100 100 14 84 0 2 0 0 2 100 100 100 100 100 100 100 100 100 100 100 100 98 85 62 87 100 100 100 100 100 100 100 100 100
100 100 100 76 46 26 41 55 11 97 82 99 100 79 6 28 34 26 58 5 3 2 97 100 100 100 100 100 100 100 100 100 100 100 100 88 100 47 100 100 100 100 100 100 100 100 100
100 100 100 33 58 11 5 54 5 13 10 63 37 5 5 98 100 69 7 57 2 33 100 100 100 98 100 100 100 100 100 100 100 100 100 100 100 100 82 71 99 100 100 100 100 100 100
100 100 91 37 93 8 6 5 5 14 6 50 6 5 38 89 56 59 22 19 48 100 100 100 100 100 84 6 100 100 100 100 100 100 100 100 100 100 100 99 20 36 77 99 100 100 100
100 100 41 32 75 28 7 5 5 7 5 5 7 31 85 100 91 82 44 31 39 100 100 98 100 100 99 46 98 100 100 100 100 100 100 100 100 100 99 100 40 6 5 1 12 78 100
100 100 13 75 90 17 35 5 5 20 22 5 5 10 7 100 100 62 14 34 88 100 100 100 100 100 76 53 37 100 100 100 100 100 100 100 100 100 87 87 100 28 5 5 5 3 4
100 100 42 36 88 12 42 5 58 82 49 24 37 7 84 96 100 100 53 32 100 100 100 100 100 97 70 18 34 98 100 100 100 100 100 100 100 100 100 100 100 100 100 64 5 5 5
17 100 48 87 100 69 11 5 68 68 36 86 84 43 56 99 96 52 98 100 100 100 100 100 100 98 85 100 100 80 100 100 100 100 100 100 100 100 100 100 100 100 70 5 5 6 50
99 100 85 41 70 42 14 7 39 100 78 77 58 73 99 98 96 33 100 94 76 100 100 100 100 93 89 97 69 99 100 100 100 100 100 100 100 100 100 100 100 100 98 55 26 92 30
33 100 85 38 79 92 76 10 16 100 59 67 88 97 7 36 30 70 100 100 100 100 100 100 75 92 52 72 98 100 100 100 100 100 100 100 100 100 100 100 100 100 92 45 32 54 5
98 100 47 100 93 46 5 54 98 80 100 99 26 32 64 28 96 100 100 100 100 100 100 100 100 98 100 98 46 100 100 100 100 100 100 100 100 100 100 100 100 98 34 8 52 5 26
23 99 69 14 14 4 5 23 92 99 100 52 16 90 100 63 100 100 100 100 100 100 100 100 77 86 100 100 50 99 100 100 100 100 100 100 99 100 93 79 55 28 4 54 50 54 100
22 80 45 19 5 5 5 93 100 100 95 5 6 94 100 100 100 100 100 100 100 100 100 96 84 96 100 99 80 100 100 100 100 100 100 100 100 100 84 10 9 70 96 75 100 100 94
70 67 10 5 88 3 5 81 86 92 6 5 5 81 100 100 100 100 100 100 100 100 100 98 82 19 83 90 100 100 100 100 100 100 100 100 100 100 86 98 100 100 100 100 93 13 5
32 99 8 39 5 3 4 65 18 100 6 40 100 100 100 100 96 100 100 100 100 100 87 78 86 62 75 97 87 92 100 100 100 100 99 95 95 100 100 84 92 92 61 25 99 100 59
77 54 50 100 6 5 5 71 5 19 1 42 52 32 5 77 100 100 100 88 87 84 58 62 98 100 98 100 100 99 100 93 100 100 100 48 92 50 85 91 28 43 5 46 99 94 28
100 31 80 100 97 5 3 5 3 0 0 3 33 79 59 33 92 91 100 100 84 100 96 80 98 100 100 100 100 100 100 16 12 75 76 57 96 86 65 6 7 67 28 90 93 57 100
100 9 90 88 100 5 6 5 4 3 0 21 46 87 100 99 5 6 7 40 48 45 46 68 96 100 100 100 100 94 100 99 76 43 9 77 100 66 91 34 100 100 50 92 96 99 94
100 79 100 16 100 5 5 2 5 19 10 89 100 100 100 6 6 8 38 84 99 100 100 100 100 100 100 100 100 100 100 96 85 59 24 90 78 97 91 100 92 99 100 93 98 95 100
100 100 100 10 22 8 5 5 5 5 91 100 100 100 98 12 7 34 24 100 96 100 100 100 100 100 100 100 100 100 98 89 87 69 75 90 100 100 100 98 90 100 100 73 95 100 100
100 100 100 58 5 57 17 5 5 5 26 100 100 68 100 100 5 97 54 100 100 100 100 100 100 100 100 100 100 80 100 97 98 100 72 99 100 100 100 98 87 100 100 100 100 100 100
98 100 100 100 100 37 5 5 5 5 5 88 100 68 76 100 6 42 30 100 100 100 100 100 100 100 100 100 100 100 92 95 99 100 100 100 100 100 100 100 99 100 100 63 100 100 100
100 100 100 99 100 100 70 6 7 5 5 17 97 100 97 100 8 98 100 91 100 100 79 9 88 100 100 100 90 79 96 99 98 83 92 100 100 100 100 100 100 98 98 97 100 100 100
100 100 100 100 100 98 100 100 11 96 5 61 16 100 100 100 51 53 100 99 93 90 5 5 12 100 100 100 97 100 90 100 84 53 86 100 100 100 100 100 95 100 98 100 100 100 97
100 100 100 100 100 100 100 100 100 100 85 7 5 5 83 100 24 99 77 100 29 25 90 98 49 92 96 100 71 86 100 100 100 98 51 100 88 100 100 60 88 100 100 51 97 24 5

GFSGBSN_prec_cloud_030.txt.gz
Cloud_Cover
100 100 100 100 100 97 100 100 49 40 100 98 100 91 99 55 75 63 15 5 2 2 100 100 100 100 100 100 100 100 48 88 100 100 100 100 100 100 100 100 100 100 100 100 100 89 28
100 79 100 100 99 83 91 35 30 68 15 70 99 100 100 93 14 82 62 5 1 5 26 96 100 100 100 100 100 100 100 17 72 100 100 100 100 100 100 100 100 100 100 94 100 100 100
100 91 100 100 95 89 68 76 31 88 57 8 97 100 100 100 99 100 78 5 0 0 1 98 100 100 100 100 100 100 100 99 7 69 100 100 100 100 100 100 100 100 100 100 100 100 99
89 100 98 99 28 75 38 5 5 74 8 7 100 99 100 96 96 57 3 0 0 0 0 100 100 100 100 100 100 100 100 100 100 33 24 97 100 100 100 100 100 100 100 100 100 98 97
59 87 100 90 94 54 39 5 40 100 8 3 18 72 15 82 27 8 1 0 0 0 7 100 96 100 100 100 100 100 100 100 100 100 50 16 81 100 100 100 100 100 100 100 100 100 100
100 52 100 72 100 5 6 83 66 86 5 4 3 5 5 72 98 76 12 3 5 4 0 100 100 100 100 100 100 100 100 100 100 100 100 94 49 62 100 100 100 100 100 100 100 100 100
100 22 100 90 26 65 98 100 5 43 5 5 5 5 34 26 34 100 100 4 4 53 9 100 100 100 100 100 100 100 100 100 100 100 100 100 100 93 31 100 100 100 100 100 100 100 100
100 100 100 73 100 30 73 53 59 72 76 35 5 5 23 90 65 99 15 35 31 92 47 100 100 100 100 100 100 100 100 100 100 100 100 100 100 100 100 100 100 100 100 100 100 100 100
100 100 100 25 100 100 68 71 47 67 100 100 100 100 5 96 93 98 57 91 49 95 86 100 100 100 99 100 100 100 100 100 100 100 100 100 100 100 100 99 92 7 8 99 100 100 100
62 100 100 45 80 55 38 29 65 100 100 81 100 100 92 94 68 97 52 86 98 93 100 100 100 97 98 28 100 100 100 100 100 100 100 100 100 100 100 93 77 19 7 5 6 71 100
91 100 100 23 9 26 100 81 55 100 100 100 78 16 91 100 100 100 84 62 100 93 100 100 100 100 98 40 99 100 100 100 100 100 100 100 100 98 100 100 100 45 13 5 5 3 5
96 100 66 50 12 91 80 9 100 100 100 72 62 100 97 72 20 56 34 100 100 100 100 100 100 100 100 93 65 99 100 100 100 100 100 100 100 86 100 100 100 96 36 33 16 17 19
92 100 69 84 27 12 5 34 100 92 100 99 100 54 79 67 63 75 100 100 100 100 100 100 100 99 75 100 100 100 100 100 100 100 100 100 100 100 100 100 100 96 95 57 9 92 94
100 99 6 54 5 5 42 97 100 100 82 48 59 5 21 55 84 99 99 28 100 100 100 100 92 83 82 98 100 100 100 96 100 100 100 100 100 100 100 100 100 92 100 100 100 75 47
100 100 97 25 49 42 41 96 100 89 15 5 28 50 100 98 84 90 100 100 100 100 100 100 100 100 100 92 98 100 100 100 100 100 100 81 38 100 100 100 100 100 100 100 100 100 97
100 100 100 97 73 5 22 91 64 92 5 5 69 100 100 100 100 100 100 100 100 100 97 44 99 94 100 86 100 100 100 100 100 100 100 80 95 100 100 100 100 99 98 100 100 100 100
100 100 100 100 12 5 12 43 100 100 25 42 100 92 100 99 100 100 100 100 100 99 91 91 13 65 99 50 46 100 100 100 100 100 100 100 100 100 100 100 100 100 100 100 100 62 55
100 100 100 100 39 64 96 12 90 100 44 3 7 22 17 75 100 100 100 100 100 60 9 5 7 21 8 66 92 100 83 100 100 100 100 100 100 100 100 100 100 100 100 99 47 26 32
100 100 100 100 21 40 100 1 21 100 90 2 3 64 2 23 33 100 100 100 100 88 5 7 34 5 5 68 27 15 46 86 100 100 100 100 100 77 94 80 78 54 11 9 17 77 78
100 94 100 100 91 67 8 2 0 18 29 0 2 15 9 6 38 95 52 6 68 5 5 15 5 5 88 92 100 100 100 100 100 100 100 100 100 100 100 100 100 100 100 77 91 99 55
100 97 100 100 100 100 36 5 4 0 0 0 16 73 90 46 32 26 81 7 6 44 19 49 78 83 100 100 100 100 100 100 100 100 100 100 100 100 100 100 92 53 70 80 59 42 82
100 100 100 100 100 100 16 96 4 0 0 38 84 95 100 34 5 5 5 5 5 16 100 100 91 100 100 100 100 100 100 100 100 100 100 100 100 100 100 82 54 93 9 33 95 70 71
100 100 100 100 100 100 54 100 4 3 2 100 81 89 100 2 1 4 3 5 16 39 99 99 100 100 100 100 100 100 100 100 100 90 14 44 100 100 85 6 18 76 74 98 77 75 83
100 100 100 100 100 96 100 100 36 0 5 96 100 100 90 12 5 5 20 77 74 50 78 96 100 100 100 100 100 100 100 97 88 66 99 99 100 100 100 30 73 99 100 78 86 86 83
100 100 100 100 100 90 100 100 6 5 4 58 94 100 100 100 46 5 5 83 41 56 96 100 97 76 100 100 100 100 100 100 100 100 100 100 100 95 99 92 72 100 100 92 71 90 100
100 100 100 100 100 100 100 100 100 100 4 2 100 100 100 100 5 5 5 45 5 5 19 100 100 86 48 100 100 95 100 68 91 100 100 100 98 100 100 100 100 100 100 100 100 36 58
100 100 100 100 100 100 100 100 100 100 8 5 80 86 100 100 51 17 5 14 46 5 5 27 84 95 80 86 100 100 100 94 89 100 98 100 100 100 100 100 84 58 90 81 42 13 100
100 100 100 100 100 100 100 100 100 99 94 11 54 92 56 100 38 6 6 43 95 19 8 5 5 8 59 58 47 72 100 93 71 81 100 93 100 100 100 100 97 98 51 58 29 89 100
100 100 100 100 100 100 100 100 100 100 100 56 90 100 5 50 14 12 24 100 69 86 16 6 8 56 5 34 42 50 60 96 55 91 68 76 98 84 98 96 100 88 69 81 99 60 9

GFSGBSN_prec_cloud_033.txt.gz
Cloud_Cover
100 100 100 100 100 100 78 91 98 27 43 59 32 12 74 97 100 100 100 100 38 5 4 2 74 100 100 100 100 100 100 96 26 100 100 100 100 100 100 100 100 100 100 100 100 100 100
100 100 100 100 100 20 65 6 97 5 14 47 8 46 5 94 99 100 100 100 18 5 2 0 100 100 100 100 100 100 100 100 86 97 100 100 100 100 100 100 100 100 100 100 100 100 100
87 100 100 100 100 69 57 90 41 23 66 46 3 5 4 11 82 82 100 100 62 5 46 100 100 95 100 100 100 100 100 100 100 60 100 100 100 100 100 100 100 100 100 100 100 100 100
100 100 100 100 58 78 52 96 99 66 65 49 83 4 3 60 5 60 100 100 5 0 2 22 100 100 100 100 100 100 100 100 100 100 51 98 100 100 100 100 100 100 100 100 100 100 100
100 100 100 90 76 77 100 100 100 90 9 24 100 21 4 5 5 95 100 14 3 0 4 5 98 100 96 100 100 100 100 100 100 100 100 24 100 100 100 100 100 100 100 100 100 100 100
100 100 100 100 48 47 100 100 100 99 89 96 100 48 4 75 10 48 47 80 4 1 1 5 48 100 100 100 100 100 100 100 100 100 100 100 64 100 100 100 100 100 100 100 100 100 100
64 100 100 100 58 90 100 100 100 52 100 100 100 91 100 5 100 100 100 46 4 52 2 0 69 99 13 100 100 100 100 100 100 100 100 100 100 72 100 100 100 100 100 100 100 100 100
100 100 100 99 54 86 80 100 97 94 100 100 100 100 100 100 40 91 92 11 6 78 43 6 96 91 74 100 100 100 100 100 100 100 100 100 100 100 76 100 100 100 100 100 100 89 100
100 100 93 95 89 100 78 98 100 100 100 100 97 81 96 8 100 23 100 87 17 59 60 89 100 100 100 100 100 100 100 100 100 100 100 100 100 100 100 93 100 100 100 100 100 100 100
68 99 100 100 100 6 20 39 83 100 100 92 87 96 100 100 91 100 66 29 22 34 70 100 100 100 100 100 100 100 100 100 100 100 100 100 100 100 100 100 100 73 54 89 100 100 100
92 100 100 100 98 5 6 96 100 100 100 99 97 100 94 100 92 100 80 7 26 58 100 100 100 100 80 73 100 100 100 100 100 100 100 100 100 100 100 100 100 99 17 6 5 96 100
100 99 96 100 24 5 94 100 100 100 80 74 28 20 38 48 95 64 92 99 61 99 93 100 100 99 88 20 76 100 100 100 100 100 100 100 100 100 100 94 90 100 100 78 5 5 6
100 100 94 99 51 6 90 100 100 91 15 5 0 3 4 12 42 79 31 22 99 34 100 100 100 100 98 95 94 100 100 100 100 100 100 100 100 100 100 81 87 100 90 44 5 35 93
100 95 94 85 85 6 82 100 100 91 5 4 5 16 39 12 5 48 98 100 80 100 100 100 100 100 100 100 100 100 100 100 100 100 100 100 100 100 76 56 100 100 98 55 34 100 100
100 98 99 100 5 68 92 100 100 98 5 25 4 88 94 30 5 94 100 100 100 100 100 99 100 90 95 94 100 100 100 100 100 100 100 96 59 99 94 53 98 94 86 97 59 98 92
96 100 100 100 45 54 45 44 100 99 70 2 100 100 19 100 24 60 100 100 100 100 86 40 92 100 100 100 93 100 95 57 83 100 87 96 100 100 100 100 100 100 100 100 100 100 100
100 100 89 100 42 64 32 40 100 98 88 0 2 61 29 5 21 17 100 100 96 41 28 74 79 100 100 83 94 83 100 98 98 100 100 100 100 100 100 100 100 100 100 100 100 100 100
93 100 97 100 72 100 6 26 94 100 0 0 0 5 100 5 26 91 100 100 84 46 5 5 5 5 11 18 23 93 99 100 100 100 100 100 100 100 100 100 100 100 100 100 100 100 100
76 100 100 75 100 100 19 49 10 25 33 2 2 7 88 89 88 93 100 77 62 5 5 5 6 16 75 98 76 66 77 98 100 100 100 100 100 100 97 100 100 100 100 100 100 100 100
7 94 100 97 100 100 27 87 5 1 0 0 0 11 4 30 77 91 82 57 5 5 5 5 5 5 24 34 51 81 100 100 100 100 100 100 100 100 100 100 100 93 98 99 84 89 35
5 89 100 100 100 100 40 100 5 3 0 0 10 89 76 71 5 22 6 5 5 5 5 5 5 33 5 83 100 100 100 100 100 100 100 100 100 100 100 100 84 64 74 61 86 80 86
5 64 84 100 100 100 100 100 100 5 0 28 90 98 100 27 4 0 5 5 5 5 48 6 62 98 100 64 100 100 100 100 100 100 100 100 100 100 100 100 100 100 100 100 100 79 74
5 10 51 100 100 100 100 100 100 98 5 18 78 76 100 5 5 4 5 2 5 6 38 100 100 100 100 100 100 100 100 100 100 100 100 100 100 100 100 100 100 100 100 100 68 64 86
9 10 100 100 100 100 100 100 100 100 8 66 80 97 59 6 3 4 5 7 5 18 48 25 100 93 100 100 100 100 92 77 100 100 100 100 100 100 100 100 95 100 100 88 90 59 94
53 20 65 100 100 100 100 100 100 100 95 66 65 73 87 91 50 5 5 5 13 25 90 100 100 100 99 79 94 100 92 99 100 100 100 96 100 100 100 96 89 99 100 87 84 90 95
100 80 80 100 100 100 100 100 100 100 100 50 100 94 53 100 12 24 54 5 5 6 45 94 100 100 91 74 72 88 52 8 84 100 100 100 100 100 100 99 84 100 100 98 100 100 95
100 100 70 100 100 100 100 100 100 100 99 34 60 91 97 100 29 51 58 14 5 5 23 50 64 98 78 76 94 100 73 28 77 54 100 100 100 100 100 100 82 100 100 100 74 53 5
80 99 100 100 100 100 100 100 100 100 100 100 52 43 6 99 58 5 5 6 56 5 5 5 7 48 90 71 30 100 100 31 28 71 83 96 100 94 96 100 95 100 100 99 43 20 9
96 100 100 100 100 100 100 100 100 100 100 100 25 29 89 88 7 10 6 5 5 46 88 28 6 5 35 81 55 56 100 79 45 64 61 30 29 68 13 90 70 93 99 100 18 27 36

GFSGBSN_prec_cloud_036.txt.gz
Cloud_Cover
100 99 100 100 100 96 52 97 75 81 100 96 100 21 3 5 5 5 48 100 100 100 98 8 2 100 94 100 100 100 100 100 100 100 100 100 100 100 100 100 100 100 100 100 100 100 100
100 100 100 100 100 85 34 100 95 98 100 64 72 8 98 5 3 52 100 96 100 100 85 8 27 66 100 100 100 100 100 100 100 100 100 100 100 100 100 100 100 100 100 100 100 100 100
26 61 76 64 100 16 85 92 100 100 92 98 97 95 91 5 0 49 100 97 100 100 45 9 100 58 100 100 100 100 100 100 100 100 100 100 100 100 100 100 100 100 100 100 100 100 100
5 33 50 100 100 55 32 98 99 100 73 100 35 100 100 37 35 66 24 5 9 13 36 5 1 75 100 67 100 100 100 100 100 100 100 100 100 100 100 100 96 100 100 100 100 100 100
28 100 100 100 100 57 88 16 82 100 100 100 100 100 100 59 5 96 100 96 8 46 23 3 12 100 100 33 100 100 100 100 100 100 100 100 100 100 100 100 100 100 100 100 100 100 100
74 100 100 100 100 100 28 63 100 82 98 100 82 100 97 10 75 100 100 100 31 5 8 0 2 100 50 5 100 100 100 100 100 100 100 100 99 100 100 100 100 100 100 100 100 100 99
100 100 100 100 58 100 79 100 15 6 5 96 91 100 9 64 30 76 99 47 23 54 6 0 41 71 16 34 100 100 100 100 100 100 100 100 100 100 100 100 100 100 100 100 100 100 100
100 96 100 73 100 100 100 39 31 50 92 100 59 100 100 58 89 100 62 58 5 5 8 12 75 100 99 99 100 100 100 100 100 100 100 100 100 100 16 97 100 100 100 100 100 100 100
46 51 97 95 100 100 100 65 97 65 99 100 99 100 100 44 100 96 88 91 3 5 8 75 100 100 100 100 100 100 100 100 100 100 100 100 100 100 100 100 94 100 100 100 100 100 100
33 94 15 9 100 100 100 69 80 98 60 42 100 29 72 95 100 100 56 5 5 5 6 96 97 98 100 100 100 100 100 100 100 100 100 100 100 100 100 100 100 100 100 100 100 100 100
17 98 15 15 100 100 99 45 100 44 51 2 5 5 5 6 22 95 7 5 5 31 95 100 94 100 100 100 100 100 100 100 100 100 100 100 100 100 100 100 100 100 100 100 100 100 100
28 99 6 14 60 100 100 82 40 64 5 4 12 3 4 5 5 77 100 47 69 50 96 100 100 100 97 92 70 100 100 100 100 100 100 100 100 100 100 100 100 100 100 100 100 100 100
99 68 14 64 100 100 100 100 58 97 5 5 4 7 20 5 6 27 52 100 57 59 100 100 100 100 99 80 100 100 100 100 100 100 100 100 100 99 100 96 97 100 100 100 100 69 100
20 97 99 37 18 100 74 100 100 53 10 86 5 5 97 7 6 90 97 20 60 100 100 100 99 34 100 98 100 100 100 100 100 93 100 100 100 100 100 100 100 95 100 100 46 98 100
94 69 73 90 66 100 34 99 100 90 0 5 0 1 2 5 10 59 62 65 100 100 100 97 89 29 100 100 100 100 100 99 100 100 100 100 100 100 100 69 37 100 99 58 64 100 100
96 97 58 67 37 100 65 54 100 100 23 80 0 1 5 3 18 9 91 100 99 56 22 30 90 89 100 100 100 100 100 100 97 89 100 100 100 100 100 100 100 100 86 46 100 64 100
93 99 92 5 100 100 100 84 62 100 84 0 50 2 5 5 4 42 96 100 54 5 5 6 9 64 87 55 92 100 97 91 100 100 100 100 65 100 100 100 100 100 100 100 100 100 99
9 100 78 14 22 100 100 100 6 90 50 0 2 49 5 5 16 68 99 95 18 6 5 5 5 47 29 32 72 64 99 100 98 93 94 94 84 100 100 100 100 100 100 88 32 51 99
5 99 97 95 5 100 100 100 5 68 76 1 0 6 5 2 100 66 37 28 7 5 7 66 84 100 100 100 100 100 100 99 83 95 100 100 100 100 100 100 100 100 77 68 59 100 99
48 45 100 61 100 100 100 100 5 100 6 0 1 23 2 5 7 76 70 6 5 5 5 6 8 8 6 6 5 21 6 8 13 69 100 100 100 100 100 100 100 100 100 100 100 100 100
55 20 100 98 99 99 100 100 39 100 17 0 5 71 95 77 6 6 7 5 5 6 5 5 5 5 5 5 5 87 100 94 30 95 100 100 100 100 100 100 100 100 100 100 52 79 78
8 12 100 96 67 71 96 100 100 72 100 24 16 66 84 14 0 4 2 5 5 4 2 5 2 10 53 5 34 69 79 28 61 99 100 100 100 100 100 100 100 100 100 100 100 79 98
100 5 7 97 57 90 66 100 100 100 100 57 62 98 99 0 0 0 2 3 5 5 5 8 50 100 100 90 89 77 96 100 91 100 100 100 100 100 100 100 100 100 94 44 82 100 85
100 58 5 68 58 67 98 100 100 100 100 100 95 99 91 2 0 0 0 3 5 5 16 13 99 78 50 75 77 83 86 100 96 98 100 100 100 100 100 100 99 60 90 88 100 100 99
100 100 5 25 98 71 99 100 100 100 100 100 72 72 86 93 47 1 0 0 0 5 9 54 63 86 74 52 34 88 100 93 100 100 100 99 97 100 100 100 100 100 100 100 100 87 72
99 100 88 60 98 66 100 94 100 100 100 100 100 63 87 97 13 19 97 14 4 0 2 60 100 65 40 85 94 56 93 53 82 100 100 100 88 82 100 99 100 100 100 100 100 91 56
100 99 75 78 100 100 100 99 100 100 100 100 100 81 66 99 93 64 94 49 5 5 5 5 71 100 78 49 65 80 67 52 54 97 100 100 100 100 100 88 89 100 100 100 100 100 100
100 85 77 34 90 100 100 100 100 100 100 100 100 100 55 45 42 4 10 22 99 42 5 5 7 50 82 68 94 95 54 67 49 73 100 99 100 100 100 93 72 100 100 100 100 100 100
89 87 98 78 100 100 100 100 100 100 100 100 100 100 100 100 44 33 42 5 100 80 99 35 5 5 12 49 36 40 100 41 68 24 17 26 5 28 39 98 100 66 100 97 96 65 28

GFSGBSN_prec_cloud_039.txt.gz
Cloud_Cover
54 45 100 100 50 32 75 66 99 60 18 99 97 89 92 97 100 100 49 4 3 6 77 100 100 2 0 71 100 33 98 100 72 78 100 100 100 100 100 100 100 100 100 100 100 100 100
3 100 90 100 68 81 41 100 71 36 91 94 85 80 98 99 100 100 14 2 94 44 80 100 94 5 4 100 92 100 100 100 39 100 100 100 100 100 100 100 100 100 100 100 100 100 100
30 84 98 100 64 100 92 94 98 53 99 9 9 22 100 100 100 71 41 97 26 88 100 100 80 28 11 46 39 100 100 100 100 100 100 100 100 100 100 100 100 100 100 100 100 100 100
94 100 92 99 100 76 100 22 98 80 89 14 20 5 94 97 99 17 86 93 100 27 100 100 65 46 75 66 100 94 100 100 100 100 100 100 100 100 100 100 100 100 100 100 100 100 100
100 96 100 81 100 91 86 46 39 23 5 47 74 13 98 100 83 33 100 100 99 96 93 100 39 46 34 92 33 100 100 100 100 100 100 100 100 100 100 100 100 100 100 100 100 100 100
100 100 100 83 100 100 100 96 78 29 30 96 100 100 30 96 68 87 100 97 83 75 37 98 82 80 35 5 59 100 100 100 100 100 100 100 100 100 100 100 100 100 100 100 100 100 100
100 22 100 100 100 100 93 67 5 69 96 100 99 100 100 6 15 100 100 97 63 4 33 2 1 59 16 5 16 100 100 100 100 100 100 100 100 100 100 100 100 100 100 100 100 100 100
99 69 100 86 100 100 91 100 100 91 100 99 82 77 96 99 74 100 100 100 54 48 10 3 22 100 100 48 61 100 100 100 100 100 100 100 80 97 100 100 100 100 100 100 100 100 98
78 100 92 29 79 100 98 100 100 99 60 45 9 4 40 88 61 100 98 70 3 5 3 19 74 100 100 79 53 100 100 100 100 100 100 100 100 100 100 100 100 100 100 100 100 100 100
22 77 85 12 96 100 97 100 100 100 20 3 5 2 5 5 5 100 100 5 4 16 18 100 95 100 100 98 100 100 100 100 100 100 100 100 100 100 100 100 100 100 100 100 100 100 100
20 100 5 18 95 100 99 100 100 96 2 4 0 8 8 96 6 23 10 3 9 50 96 100 100 100 100 100 85 100 100 100 100 100 100 100 100 100 100 100 100 100 100 100 100 100 100
6 37 4 15 42 58 100 100 100 100 23 72 4 5 5 7 26 67 85 99 54 22 88 98 100 100 100 100 100 100 100 100 100 100 100 100 100 100 100 100 100 100 100 100 100 100 100
70 49 5 5 48 64 100 100 99 100 17 4 0 5 5 22 14 48 65 20 14 58 94 100 100 100 100 100 100 100 100 100 100 100 100 100 100 100 100 100 100 100 100 100 100 100 100
9 4 5 5 98 22 84 100 100 93 31 6 0 1 5 5 9 98 100 6 64 100 100 100 100 84 66 75 100 100 97 100 100 100 100 100 100 100 100 100 100 100 100 82 100 100 100
7 26 5 10 62 59 37 81 100 96 89 24 0 5 2 5 5 46 66 87 98 100 100 88 91 68 100 100 100 93 100 89 87 100 100 100 100 99 100 96 88 100 100 93 98 95 100
85 5 23 5 10 40 36 15 100 100 100 53 0 0 0 5 5 9 55 100 98 43 5 5 79 100 100 100 100 100 100 98 82 93 100 100 100 100 100 100 98 100 92 37 53 84 100
13 5 49 6 8 46 92 91 69 100 93 0 0 0 0 0 4 4 97 100 96 64 5 5 5 12 100 99 100 100 34 93 100 100 100 100 100 100 100 100 100 89 69 85 99 100 93
86 5 5 4 100 5 100 100 48 99 86 0 0 0 0 0 4 68 99 99 45 7 13 14 36 9 83 100 100 100 100 100 38 66 100 100 100 100 100 100 100 100 95 100 62 49 64
83 17 62 5 100 51 15 86 53 100 99 5 0 0 0 0 11 82 15 5 5 5 5 6 27 64 41 48 56 87 100 100 98 97 96 89 100 100 100 100 100 100 100 100 100 100 100
13 16 62 100 66 71 100 87 49 100 28 42 0 1 0 1 1 3 9 5 5 5 4 5 5 5 15 9 5 7 22 93 100 100 100 100 100 100 96 100 100 100 100 100 100 100 100
15 25 39 26 77 4 8 5 86 26 38 100 10 57 67 39 5 5 6 5 5 5 5 0 0 4 4 5 5 5 15 14 7 93 100 99 100 100 100 100 100 100 100 100 100 100 54
54 68 5 5 55 5 7 6 66 59 92 99 94 74 93 9 0 0 3 5 5 2 4 5 4 5 5 5 5 5 19 5 5 80 100 100 100 100 100 100 100 100 100 100 100 100 8
73 100 100 38 32 5 5 6 39 99 90 100 100 99 96 0 0 0 0 1 5 5 5 5 10 100 100 44 34 32 26 38 48 58 100 100 100 100 100 100 100 100 100 100 73 10 63
100 100 100 56 49 5 5 5 21 100 100 100 100 98 94 3 0 0 1 0 5 4 3 5 5 43 56 54 52 12 100 86 79 79 78 100 100 100 100 100 100 89 96 94 100 100 100
100 100 100 100 54 55 5 5 42 100 100 100 100 90 97 99 31 1 26 0 3 0 0 5 51 94 100 90 84 96 98 82 100 100 100 100 98 100 100 100 94 75 98 87 78 91 100
6 99 42 10 5 100 100 77 74 100 100 100 100 100 83 89 13 28 99 79 30 9 0 0 4 6 77 100 95 99 81 77 100 100 97 96 80 98 100 90 87 100 100 93 95 100 100
5 100 76 5 5 91 100 98 99 99 100 100 100 100 100 100 7 96 97 88 9 19 14 5 4 5 5 66 89 72 41 47 88 100 100 100 96 76 99 94 33 59 100 100 100 100 100
100 100 10 71 83 100 99 100 100 93 100 100 100 100 100 96 70 4 14 20 68 96 99 100 89 60 5 5 26 89 69 34 49 52 94 97 94 98 92 100 97 78 100 100 100 100 100
98 100 92 63 99 100 96 100 100 100 100 100 100 100 100 100 98 100 30 60 95 100 100 100 100 92 100 29 29 22 78 35 61 31 43 82 58 92 68 19 46 50 100 100 100 72 100

GFSGBSN_prec_cloud_042.txt.gz
Cloud_Cover
10 98 81 100 100 77 80 90 46 5 39 37 5 5 30 99 100 100 100 100 99 100 100 100 100 100 70 5 13 18 42 46 93 69 47 100 100 100 100 100 100 100 100 100 100 100 100
10 97 55 87 100 24 20 43 97 24 24 11 5 5 5 66 100 100 78 16 4 4 3 9 72 100 76 10 10 90 100 98 94 21 100 100 100 100 100 100 100 100 100 100 100 100 100
91 4 100 37 63 100 77 53 74 22 89 48 69 100 65 62 100 99 88 90 72 96 6 57 99 99 59 2 3 35 100 60 87 8 88 100 100 100 100 100 100 100 100 100 100 100 100
17 51 100 50 100 100 100 100 15 18 7 79 77 100 100 95 99 63 43 49 100 26 10 97 100 98 84 0 3 100 100 100 83 68 76 100 100 100 100 100 100 100 100 100 100 100 100
1 67 79 14 100 100 100 39 68 29 48 45 18 48 100 100 5 99 37 100 79 39 10 99 79 89 41 0 17 100 100 75 23 100 71 100 66 100 94 100 100 100 91 100 100 100 100
2 1 7 80 90 100 100 70 25 50 32 100 44 2 100 16 5 5 58 69 88 5 4 15 26 21 4 16 82 13 89 90 100 100 100 100 100 100 63 87 100 100 100 100 100 100 100
5 3 50 40 96 100 100 100 10 88 86 100 14 37 12 100 100 95 89 92 38 4 5 3 82 84 12 5 31 100 89 100 82 100 100 100 100 60 8 100 100 100 100 100 100 100 100
5 63 6 3 100 100 94 64 100 73 61 96 9 0 5 55 88 84 93 73 5 4 89 88 100 94 100 77 95 97 100 100 100 100 100 100 100 85 95 100 100 100 100 100 100 100 100
5 6 5 5 28 64 86 100 100 64 77 25 7 0 1 5 5 82 48 5 2 3 76 100 100 78 100 74 100 100 100 100 100 100 100 100 100 80 41 100 100 100 100 100 100 100 100
5 3 5 5 6 57 100 100 100 45 23 5 4 0 2 0 5 55 51 3 0 5 99 100 100 100 48 97 100 100 100 100 100 100 100 100 100 100 73 100 100 100 100 100 100 100 87
5 12 3 20 3 12 94 100 100 72 59 0 0 0 0 0 5 71 93 84 9 40 100 100 100 100 100 62 100 96 100 100 100 100 100 100 100 96 100 100 100 100 100 100 100 100 98
5 6 2 5 5 5 72 100 91 100 100 67 0 0 1 0 0 80 42 31 10 76 100 100 100 100 100 100 100 100 100 100 100 100 100 100 100 100 100 100 100 100 100 100 100 100 100
9 98 5 5 5 5 29 14 100 100 100 100 90 1 5 5 7 0 11 42 81 66 79 100 100 100 100 100 100 99 100 100 100 100 100 100 100 100 100 100 98 100 94 100 100 100 100
5 18 46 4 5 5 29 12 1 68 100 100 61 0 4 5 7 99 40 34 62 100 100 77 100 100 100 100 100 100 100 100 100 100 100 100 100 100 100 100 100 99 100 99 100 100 100
5 12 90 3 5 4 20 61 3 23 99 97 0 0 0 5 2 40 72 87 92 100 100 94 53 100 74 69 100 100 97 100 100 100 100 100 100 100 100 100 100 100 98 98 100 100 100
5 22 88 34 35 5 4 90 49 1 58 31 0 0 0 0 1 15 13 91 89 43 5 5 5 14 19 6 29 72 78 100 93 100 100 100 94 94 100 100 94 99 94 97 100 100 100
5 31 100 89 76 60 5 8 11 1 38 0 0 0 0 0 0 0 97 100 99 27 5 5 15 21 99 7 17 9 28 47 95 100 100 100 100 100 100 100 100 63 68 100 100 100 100
33 5 92 96 87 18 5 5 45 38 83 4 0 29 0 0 8 9 39 50 21 7 18 31 73 99 100 98 17 5 68 100 81 100 100 98 96 100 98 94 85 91 81 100 100 100 100
6 83 5 92 12 5 16 1 17 5 98 26 0 0 0 0 2 6 5 5 5 5 5 6 6 5 35 82 91 98 59 56 69 51 100 100 100 100 100 95 92 97 66 84 100 100 100
21 100 5 27 78 16 5 0 0 72 20 2 5 44 0 0 0 0 0 0 2 0 0 2 5 5 10 47 27 61 93 100 100 100 100 100 100 100 100 100 100 95 98 23 100 100 96
22 100 96 22 14 10 0 0 5 68 5 5 15 60 66 0 0 0 0 0 0 3 1 0 2 5 4 5 6 38 48 94 100 100 100 100 100 100 100 100 100 100 100 100 100 95 98
26 100 100 94 45 80 5 5 5 5 91 15 84 97 69 0 0 0 2 5 3 0 0 2 4 5 5 5 11 73 41 24 21 5 36 88 100 100 100 64 100 100 100 100 100 100 100
100 100 100 100 100 5 5 5 5 28 11 47 90 98 100 0 0 0 0 5 1 0 0 2 6 18 25 21 22 52 32 7 6 42 98 85 100 100 100 100 100 92 100 100 100 100 100
100 100 79 5 53 37 59 5 10 30 5 81 69 99 100 9 1 0 0 0 2 5 4 5 5 66 30 18 75 53 64 54 56 57 96 100 100 100 100 100 100 100 99 81 100 100 100
15 5 5 5 5 8 100 91 5 5 26 62 91 94 100 84 5 2 38 12 0 0 0 5 5 51 38 61 82 98 91 75 86 96 64 78 100 100 100 100 100 100 100 100 100 100 100
5 9 21 5 5 5 60 100 23 66 100 94 100 100 100 100 91 19 100 91 8 5 5 5 5 64 49 100 98 100 100 98 87 100 100 70 80 81 99 97 82 99 100 100 100 100 100
17 16 7 5 5 5 5 92 100 93 99 100 100 100 100 100 100 79 87 77 46 5 5 5 5 26 66 70 94 100 98 100 100 94 100 100 99 91 100 100 32 49 84 100 100 100 100
100 100 70 8 5 5 5 31 71 100 78 100 97 100 100 100 100 100 58 8 75 100 28 62 68 28 17 50 73 88 5 77 100 100 100 100 100 100 98 97 52 88 20 100 100 100 100
98 91 95 92 5 75 44 89 97 100 100 97 100 100 100 100 100 100 100 14 35 31 98 100 100 82 51 13 5 7 31 5 42 100 100 100 100 100 100 100 72 95 6 99 100 100 100

GFSGBSN_prec_cloud_045.txt.gz
Cloud_Cover
4 1 19 49 93 99 40 18 14 71 61 66 32 59 95 96 16 81 91 31 100 100 100 100 100 96 92 70 6 4 5 87 72 8 10 97 15 100 100 100 100 100 100 100 85 100 100
92 90 69 96 100 85 6 30 27 5 16 60 98 99 100 100 95 97 51 100 25 4 11 100 100 100 100 92 38 45 18 26 100 83 3 82 5 96 100 100 100 100 100 100 100 100 100
94 3 100 84 52 8 99 88 6 7 40 78 49 83 8 100 100 100 100 100 7 100 78 1 62 100 100 19 36 51 90 80 66 38 8 95 98 98 100 100 100 100 100 100 100 100 100
8 37 64 28 58 100 72 5 5 25 55 24 54 4 24 100 100 8 4 5 40 5 5 22 25 48 99 98 46 67 100 73 94 22 36 100 100 100 100 100 100 100 100 100 100 100 100
10 95 98 86 86 100 38 48 4 19 100 4 6 3 4 20 78 27 4 17 70 5 61 39 57 100 96 88 0 75 97 100 81 67 56 100 60 100 97 100 100 100 100 100 100 100 100
8 30 54 4 100 100 15 4 42 96 49 97 3 0 4 85 97 100 90 47 73 24 19 81 100 78 18 40 7 40 76 100 99 100 34 62 71 95 100 86 100 100 100 100 100 100 100
5 5 90 8 94 100 27 0 100 89 99 100 5 4 4 5 73 100 45 100 86 72 27 94 87 100 100 81 53 100 100 73 100 100 100 55 100 26 8 22 71 100 100 100 100 100 100
5 5 9 2 3 100 76 15 100 90 100 100 38 7 0 4 5 5 64 26 9 62 64 6 100 100 88 99 87 100 100 100 100 93 55 98 82 90 100 94 81 75 100 100 100 87 100
5 31 8 6 2 100 100 39 100 99 88 96 14 0 4 5 5 80 57 50 100 100 94 89 100 66 91 62 64 100 48 100 98 60 74 84 72 100 93 91 99 89 100 100 100 100 100
5 66 13 3 5 7 100 81 100 98 96 100 72 3 0 0 33 35 100 100 65 66 100 86 99 98 90 100 100 100 100 82 100 97 100 100 100 100 100 100 100 100 41 100 100 100 100
5 39 39 38 48 0 2 80 100 99 68 65 100 5 0 0 0 12 100 100 63 88 100 100 100 100 100 100 100 100 100 100 100 100 100 100 100 100 100 100 99 100 99 82 100 100 100
5 55 18 13 5 2 0 4 44 100 100 100 100 54 5 24 0 1 29 30 73 98 100 100 100 100 100 100 100 100 100 100 100 100 100 100 100 100 100 100 100 87 100 100 100 100 100
5 9 49 20 5 5 1 19 0 1 94 100 100 62 4 2 46 0 3 21 98 66 92 100 100 100 100 100 100 100 100 100 100 100 100 100 100 100 100 100 98 100 100 100 100 100 100
5 7 76 19 54 5 4 3 0 0 76 100 3 0 0 3 45 24 99 50 82 100 60 76 100 100 100 100 100 100 100 100 100 100 100 100 100 100 100 100 100 100 100 100 100 100 100
3 5 26 40 5 5 6 5 0 0 2 97 0 0 0 0 39 100 99 88 100 99 74 100 100 98 100 99 68 100 100 98 100 100 100 100 100 100 100 100 100 100 100 100 100 100 100
9 5 42 54 7 31 5 0 3 0 0 32 0 0 0 0 25 100 47 78 95 88 50 24 92 92 100 76 77 71 78 100 98 98 100 100 99 100 100 100 100 100 100 100 100 100 100
10 5 5 68 14 55 4 0 0 1 0 0 0 0 0 0 27 6 88 94 83 5 5 16 5 5 94 40 86 100 56 100 98 100 100 100 100 100 100 100 100 100 100 100 100 100 100
5 11 5 88 16 5 5 0 0 3 23 0 0 49 0 0 32 4 11 34 5 5 74 100 40 5 41 30 23 65 25 52 92 100 100 90 96 100 100 100 100 100 100 100 100 100 100
5 49 24 5 1 31 0 0 0 0 22 85 0 0 0 0 48 13 1 2 1 4 1 5 42 97 60 10 27 36 11 60 65 57 100 98 100 100 100 44 97 100 100 96 83 95 78
26 100 100 87 29 89 18 0 0 0 0 24 4 50 5 0 0 5 5 5 5 0 3 5 5 32 100 89 46 63 76 27 10 70 94 93 100 100 100 99 73 100 100 100 98 98 100
6 100 92 98 20 100 1 0 0 0 0 26 37 82 68 69 2 1 2 2 5 5 1 0 2 2 4 29 57 45 27 25 45 58 26 45 100 100 100 100 80 100 76 49 93 100 100
7 93 71 18 29 89 5 5 0 0 0 30 99 95 62 5 0 1 1 5 4 2 2 5 3 5 5 18 5 20 5 10 65 99 100 100 100 100 100 100 100 100 100 100 88 87 100
66 5 5 2 5 31 12 5 1 0 0 10 98 98 98 55 4 3 4 3 2 0 0 2 5 28 8 50 5 5 5 6 63 5 5 55 97 100 100 100 100 100 100 100 100 99 43
5 5 5 48 96 58 6 5 5 1 1 7 79 94 100 67 37 7 2 0 2 2 7 0 4 54 13 5 5 5 8 23 5 20 48 80 63 42 100 100 100 100 95 100 100 100 100
5 5 9 5 4 1 2 14 8 5 5 5 5 64 99 98 92 54 4 20 4 1 0 3 5 28 5 5 62 42 64 55 38 7 5 89 87 77 90 100 100 100 100 99 89 100 100
5 5 5 5 5 5 5 5 81 93 5 5 59 21 98 76 99 100 28 39 21 20 4 4 4 5 30 94 100 100 94 100 100 100 75 26 96 89 99 99 97 100 100 100 100 100 100
5 80 72 87 31 5 5 5 72 63 50 8 33 94 80 100 100 100 100 81 97 34 43 10 15 11 14 12 97 100 100 69 100 100 100 100 100 96 99 100 100 100 100 100 100 100 100
86 100 54 10 53 5 27 5 15 76 100 99 94 65 100 100 100 100 100 100 39 87 97 81 12 16 83 94 100 86 73 76 68 98 100 100 100 100 100 99 100 100 89 94 100 100 100
16 99 13 5 6 5 6 5 100 84 87 76 98 76 89 95 100 100 100 100 100 98 66 81 96 92 82 57 99 100 97 30 5 58 52 100 100 100 100 100 90 86 60 100 82 100 100

GFSGBSN_prec_cloud_048.txt.gz
Cloud_Cover
55 62 100 100 43 95 100 45 0 0 7 54 100 5 5 14 100 100 100 62 96 6 15 72 95 100 100 100 100 100 100 100 100 10 25 0 0 30 100 100 100 100 100 100 100 59 100
96 41 66 100 76 100 8 0 20 4 14 92 92 5 6 42 99 100 100 56 100 72 5 5 100 100 100 100 100 100 100 100 100 94 89 1 0 2 100 100 100 100 100 100 100 26 100
100 96 24 14 94 46 54 40 43 23 95 58 81 4 4 81 90 100 67 6 100 56 95 38 62 100 100 100 73 46 100 100 100 96 100 79 2 68 92 100 100 100 100 100 100 99 100
20 11 89 4 100 0 100 62 4 100 85 5 8 3 2 5 20 95 17 0 4 8 15 66 3 83 93 53 60 34 100 100 100 100 100 100 14 100 100 54 100 100 100 100 100 100 100
48 77 2 4 1 82 100 100 28 100 27 6 3 2 6 4 12 100 100 82 23 88 10 50 5 11 90 85 20 5 100 100 100 100 100 100 11 74 98 18 100 100 100 88 100 100 100
5 59 14 3 0 68 100 100 48 58 75 43 64 0 0 18 5 3 53 100 33 27 6 8 68 70 100 95 19 99 100 100 100 100 100 100 11 5 77 78 35 100 100 100 100 100 100
5 13 5 5 0 2 100 100 24 65 93 31 99 0 4 14 50 55 60 5 87 38 49 96 100 94 97 13 5 82 100 100 89 100 100 100 25 5 0 0 60 96 100 100 100 100 100
5 23 5 5 0 15 62 100 100 19 100 75 86 19 5 5 6 5 40 4 2 22 28 54 100 64 100 96 45 90 100 100 100 100 97 100 60 5 5 5 100 77 100 100 100 75 100
5 14 67 5 0 5 2 23 100 100 91 63 100 15 0 5 96 96 58 74 16 4 78 70 55 59 94 44 59 100 99 100 100 61 88 93 75 58 25 6 48 53 24 100 100 100 100
5 5 14 10 0 3 10 0 3 69 95 75 98 96 0 0 10 13 47 80 56 69 94 77 80 50 100 100 100 99 100 94 100 97 100 64 78 6 39 12 5 79 10 17 95 100 100
10 5 4 20 0 4 4 42 1 0 0 99 100 100 24 0 0 41 5 96 100 100 100 100 100 93 88 100 100 100 100 100 94 32 41 92 46 5 49 52 75 99 37 4 5 100 100
7 5 5 5 1 48 50 9 100 0 0 26 100 100 33 67 22 5 5 18 65 96 100 100 100 100 100 100 100 100 100 69 99 96 100 100 100 63 99 100 100 30 44 5 5 27 100
5 1 7 4 12 0 3 94 81 42 0 25 99 37 24 2 100 63 26 45 94 43 95 100 100 100 100 100 100 100 100 100 100 100 100 100 100 100 100 100 98 91 85 92 100 93 64
5 13 5 4 2 0 4 100 12 1 0 0 17 0 0 0 30 34 100 100 29 89 75 97 100 100 100 100 100 100 100 100 100 100 100 100 100 100 100 100 100 100 100 100 100 31 3
5 5 5 29 29 1 26 4 3 0 2 0 0 0 0 0 0 92 99 25 94 94 89 99 95 100 100 96 47 99 100 100 100 100 100 100 100 100 100 100 100 100 56 100 100 100 5
5 6 5 5 81 26 5 0 0 1 0 0 0 0 0 0 4 98 41 37 76 88 48 56 89 52 98 100 99 100 97 93 100 100 100 95 100 100 100 100 100 100 100 100 100 100 91
5 6 11 0 100 88 4 0 62 0 0 0 0 1 0 0 20 80 68 80 53 4 5 42 5 41 12 86 99 100 100 100 76 100 100 100 97 100 100 100 100 100 100 100 100 99 100
5 10 5 26 7 100 67 0 0 0 0 0 0 49 0 0 40 8 17 5 0 2 3 10 5 6 74 12 100 92 100 100 100 100 100 93 86 99 91 100 100 100 100 100 100 100 97
2 0 16 5 19 62 47 0 0 1 11 92 0 0 0 0 92 54 2 2 2 4 1 5 12 6 4 50 29 52 91 100 100 100 100 100 98 100 99 100 100 100 100 100 100 100 100
5 5 30 93 2 93 5 0 0 1 2 37 2 68 43 1 1 53 7 5 6 0 2 4 5 5 8 9 6 4 5 4 11 5 78 100 100 93 96 100 100 100 100 100 100 100 100
6 5 5 4 0 31 5 1 0 0 0 17 53 88 72 85 66 5 6 5 5 5 1 0 3 5 5 40 68 59 18 14 5 5 13 89 89 65 81 100 100 100 100 100 100 100 100
5 5 4 5 0 5 5 5 0 0 0 0 84 85 83 5 4 1 8 43 9 18 3 17 1 5 5 49 30 35 51 99 100 79 70 20 90 100 100 100 100 100 81 100 100 100 100
5 5 5 2 5 63 5 5 5 1 0 4 5 61 98 5 18 4 42 78 17 1 7 5 5 16 19 46 5 4 5 5 81 10 60 90 100 84 93 63 98 100 100 99 58 57 34
5 5 5 76 100 0 0 4 5 5 0 4 9 78 77 43 26 78 5 3 6 14 6 2 3 35 48 5 5 5 5 5 5 5 5 16 97 39 100 88 99 100 89 100 91 100 100
5 2 5 67 75 5 5 2 6 5 4 5 3 34 89 32 37 26 10 5 0 4 5 5 3 5 5 5 95 39 28 26 50 5 5 96 100 92 94 68 99 94 71 100 100 100 100
5 5 12 22 5 5 5 5 6 5 5 5 5 5 23 82 63 78 8 33 5 28 64 5 1 5 5 36 94 100 98 72 100 84 38 39 100 67 100 100 77 100 100 100 100 100 100
16 24 100 25 5 5 5 5 12 5 10 5 97 5 5 98 96 99 62 60 95 46 87 99 5 5 5 15 82 88 88 42 51 78 94 75 96 95 100 100 82 100 100 100 100 100 100
5 6 19 15 2 4 6 9 35 6 5 5 25 26 5 28 100 100 100 91 99 97 99 93 21 7 40 6 66 96 47 28 23 41 8 48 88 100 99 100 87 78 45 100 100 100 100
12 5 20 5 5 5 8 73 11 7 10 7 79 100 71 99 63 57 100 100 100 100 100 100 84 99 93 99 25 56 100 97 57 46 29 67 63 98 78 99 100 19 7 94 97 100 100

GFSGBSN_prec_cloud_051.txt.gz
Cloud_Cover
75 85 80 0 34 100 100 100 100 0 78 77 7 18 4 4 3 73 96 91 84 100 6 3 46 96 100 100 99 86 100 100 100 78 66 25 0 2 8 100 100 100 100 100 100 100 100
13 86 100 13 62 100 100 90 10 2 76 57 4 11 3 1 2 42 64 6 6 100 90 5 5 100 100 100 92 38 100 100 100 100 42 71 4 0 0 100 100 100 100 100 100 98 100
23 0 8 2 0 100 100 96 68 29 54 8 47 7 3 0 5 1 88 0 2 17 15 26 9 57 100 100 100 26 99 100 100 100 100 100 70 0 2 33 100 100 100 100 100 100 100
20 8 69 5 1 91 96 100 98 12 39 33 58 2 9 100 68 4 79 5 0 5 19 6 79 55 98 68 100 29 98 100 100 100 100 100 100 35 5 2 99 100 100 100 100 100 100
5 7 61 2 63 2 100 100 100 76 86 52 55 0 5 96 17 0 4 24 5 3 9 3 4 4 99 100 100 100 98 100 100 100 100 98 90 66 79 4 46 100 100 100 100 100 100
5 48 68 60 79 1 2 100 100 99 99 49 34 4 5 93 5 0 0 1 5 5 1 4 13 35 98 94 78 91 99 100 100 100 100 100 100 40 6 4 2 100 100 100 100 100 100
5 9 81 26 3 0 0 0 100 100 100 100 100 49 0 74 4 5 0 0 1 4 5 5 13 49 66 19 3 0 100 100 100 100 100 72 100 90 91 1 1 4 100 100 100 100 100
5 5 2 60 10 0 4 0 0 38 100 100 100 68 0 4 73 57 1 4 16 22 45 11 73 98 60 91 51 56 100 100 100 100 100 100 100 100 100 80 0 5 78 100 100 100 94
0 3 0 23 74 100 16 0 0 0 22 100 100 100 6 0 0 60 97 11 5 12 69 61 41 39 85 100 90 99 100 100 100 100 100 100 100 100 100 94 2 5 5 100 100 100 98
4 5 0 8 25 52 88 59 1 0 0 77 100 100 89 0 0 0 36 95 5 63 99 100 66 100 100 100 100 100 100 100 100 100 100 100 100 100 95 90 2 5 5 85 100 100 100
13 5 2 60 70 27 10 2 0 2 0 0 100 100 87 0 0 0 5 12 95 12 42 91 100 100 100 100 91 95 43 100 100 100 90 74 98 100 100 22 5 3 96 100 37 100 100
5 5 12 99 23 3 0 0 2 4 11 0 100 100 34 0 2 21 5 23 34 24 66 100 99 100 100 100 100 100 99 100 90 100 100 100 100 96 63 5 55 25 97 100 13 17 98
5 4 11 30 100 10 1 0 4 4 0 0 57 59 31 0 0 74 38 15 38 25 54 98 100 100 100 83 100 59 64 86 60 98 100 99 96 86 5 28 98 98 84 93 100 78 8
5 5 10 12 66 87 0 0 4 0 0 0 0 0 0 0 0 5 60 42 31 100 93 90 99 100 100 100 100 100 100 100 88 30 93 82 100 97 42 64 100 100 95 29 15 68 5
5 3 6 1 1 100 50 0 5 0 0 0 0 0 0 0 2 68 69 12 7 39 88 73 100 100 100 91 100 100 100 100 100 86 46 98 100 100 100 100 100 100 90 88 100 62 54
5 12 21 60 31 14 81 0 3 1 0 0 22 0 0 0 5 54 38 18 63 5 5 89 100 100 100 34 98 95 94 78 92 70 54 98 99 100 100 100 100 100 100 100 74 67 100
5 5 0 15 14 15 30 0 0 0 5 0 12 4 0 0 13 87 5 62 3 1 2 5 67 100 100 99 100 100 93 11 91 92 82 51 48 100 100 100 100 100 100 100 99 28 60
5 5 6 0 0 4 58 0 1 16 0 3 7 7 0 0 46 71 5 5 5 0 0 0 5 12 62 89 100 98 10 65 23 99 56 50 64 99 100 100 100 100 100 100 99 98 99
5 5 0 2 0 46 0 0 2 1 40 100 70 0 1 0 60 71 3 3 3 5 1 1 0 1 5 27 58 94 100 100 100 100 65 60 82 100 100 100 100 100 100 100 100 100 100
5 5 3 7 0 0 0 0 4 8 0 17 30 56 80 6 8 40 8 5 3 1 0 5 4 1 4 5 5 27 33 90 100 100 100 100 100 58 95 100 87 97 100 100 100 100 100
5 10 5 0 0 0 1 0 5 51 0 1 0 62 87 88 65 10 9 27 17 6 4 0 1 5 5 5 4 4 4 4 5 11 83 48 38 96 73 70 90 100 100 100 100 100 100
21 38 12 0 0 0 0 0 0 1 0 0 10 83 12 9 0 5 5 37 5 36 14 4 3 2 5 32 20 5 5 5 5 6 5 5 5 5 28 84 100 96 100 100 100 100 100
10 10 12 5 5 0 0 0 0 2 0 0 2 20 96 5 5 5 52 100 7 2 19 8 3 5 5 8 5 5 5 10 6 47 92 97 62 23 80 72 61 100 81 32 100 100 100
5 5 5 5 4 1 0 0 5 5 1 5 4 12 39 9 10 37 7 16 6 5 5 3 5 8 32 39 5 5 3 5 57 20 5 14 67 72 95 83 63 100 65 5 75 85 92
5 92 28 5 2 5 2 4 5 5 5 4 0 4 6 5 8 46 72 60 4 5 5 5 5 5 5 5 5 30 24 5 6 5 5 71 73 100 18 78 31 71 37 69 100 100 100
10 7 6 5 5 0 3 5 5 5 5 5 5 3 5 5 44 87 72 55 80 5 5 5 5 5 5 84 100 96 29 38 100 100 6 77 100 67 100 100 27 96 9 100 100 100 100
5 5 5 5 5 0 0 2 5 5 5 12 5 5 5 5 5 64 99 99 100 69 39 97 57 5 22 30 31 88 49 58 72 43 92 88 94 82 100 100 37 50 34 100 100 94 66
66 5 7 5 0 0 0 5 5 5 5 5 5 83 46 9 5 5 59 64 98 64 55 98 91 61 8 40 73 23 35 5 5 24 25 67 77 99 100 94 64 44 25 99 100 100 100
48 5 5 5 5 4 4 5 13 5 5 74 62 100 100 61 6 5 71 69 68 100 85 94 92 100 100 50 56 86 100 100 100 13 10 6 31 81 98 100 25 55 6 17 82 100 100

GFSGBSN_prec_cloud_054.txt.gz
Cloud_Cover
32 9 98 7 13 100 60 79 6 99 50 0 83 0 18 0 14 5 4 12 5 5 78 99 5 4 100 100 97 100 93 88 100 100 100 28 6 15 47 0 100 100 100 100 100 100 100
98 70 100 33 15 92 100 98 76 8 2 16 100 7 0 0 5 0 0 5 8 23 100 27 5 5 100 97 95 100 70 100 100 100 100 75 48 24 12 8 93 100 100 100 100 100 100
87 27 60 33 5 1 100 100 100 1 41 22 100 11 0 0 5 20 0 0 0 3 59 5 2 0 100 86 100 100 34 100 100 100 100 100 92 1 2 2 24 100 100 100 100 100 100
5 6 83 23 37 16 1 100 97 46 59 46 52 5 0 0 3 28 0 0 0 3 5 5 52 2 64 100 100 100 99 100 100 100 100 100 100 14 0 0 7 100 100 100 100 100 100
5 7 64 20 12 72 40 13 100 100 67 22 92 66 2 5 1 10 0 0 0 0 0 0 5 38 100 100 100 100 100 100 100 100 100 100 84 47 2 1 1 64 100 100 100 100 100
5 4 8 54 65 84 0 3 21 41 100 100 100 94 0 4 1 2 0 0 0 3 9 34 5 12 78 99 100 100 100 100 100 100 100 100 100 30 5 46 2 1 100 100 100 100 100
4 5 4 47 100 100 86 15 0 0 32 100 100 99 6 1 4 0 3 0 0 0 5 98 5 31 98 89 98 100 91 100 100 100 100 100 100 100 5 61 2 0 79 100 100 100 100
6 5 6 82 3 22 50 69 100 71 0 47 100 100 73 4 5 5 6 5 5 4 23 33 5 73 52 100 100 100 100 100 100 100 100 100 100 100 100 91 3 0 0 100 100 100 100
13 5 5 46 100 99 88 32 28 100 87 2 39 100 100 37 0 5 5 10 63 28 99 43 6 20 70 69 88 100 100 100 100 100 100 100 100 100 100 96 4 0 1 63 100 100 100
8 7 5 53 100 100 70 77 1 3 52 55 5 100 100 8 4 5 5 5 5 44 58 100 96 15 25 97 100 100 100 100 100 100 100 100 100 99 100 32 5 5 1 2 100 100 100
17 8 2 100 100 100 86 40 6 65 2 4 2 100 100 84 4 2 0 5 42 7 8 100 100 100 65 100 100 99 100 100 100 100 100 94 93 99 5 80 62 31 5 1 3 100 100
7 6 0 92 100 96 13 11 0 7 10 0 7 100 42 0 35 4 5 5 54 37 64 92 100 99 68 96 100 92 100 100 100 100 100 100 99 91 33 8 5 7 41 7 14 53 100
5 13 3 36 100 99 90 0 0 2 2 0 4 86 32 0 0 4 13 5 6 68 24 76 100 100 100 99 98 100 100 100 100 100 100 100 83 12 7 5 5 5 95 71 100 98 24
0 13 7 52 100 4 14 3 0 1 0 5 13 18 0 0 0 1 0 26 10 41 31 99 86 99 58 31 97 100 99 100 100 100 100 100 100 87 32 14 9 26 71 9 25 56 5
5 3 9 32 40 5 1 60 0 0 0 5 35 2 0 0 3 48 26 5 5 5 6 94 16 12 96 89 55 81 78 100 100 100 100 99 94 99 100 12 27 64 99 37 8 6 5
1 3 19 4 5 4 62 7 0 0 0 2 0 0 1 0 5 84 15 14 14 4 22 5 13 49 6 96 64 100 100 51 100 89 45 42 95 100 79 85 29 87 74 85 97 100 21
0 0 4 2 5 2 42 0 0 0 0 0 0 4 0 0 23 89 5 33 4 5 5 90 54 9 5 5 5 30 28 29 72 99 97 100 75 100 100 100 100 100 100 98 100 94 26
0 0 0 2 5 2 0 0 0 0 0 3 0 12 3 0 100 76 6 0 0 0 0 4 76 99 67 8 69 74 5 33 96 98 83 87 12 100 100 100 100 100 100 97 99 14 59
1 0 1 4 5 0 4 0 0 0 3 0 77 9 40 40 94 71 5 4 2 0 0 0 5 8 62 78 46 48 34 7 7 31 45 12 42 100 100 100 100 100 100 100 97 100 74
5 4 6 5 5 0 0 0 0 0 0 0 21 54 100 100 81 82 4 1 0 0 0 0 0 1 5 9 30 9 27 51 71 54 7 12 100 100 93 95 100 100 99 100 100 100 100
5 5 5 5 3 0 0 0 0 0 0 0 8 33 90 95 19 100 67 78 6 5 1 0 0 0 3 5 5 0 6 12 6 14 64 25 5 40 77 100 100 100 80 75 100 100 96
5 68 5 1 0 0 0 0 0 0 0 0 2 37 52 11 5 6 5 94 13 5 6 1 0 0 5 5 4 0 5 5 2 4 5 5 31 11 5 5 24 100 100 100 61 100 100
5 86 5 2 0 4 0 0 0 0 0 0 1 5 37 5 5 6 91 100 95 5 23 5 2 2 5 5 5 5 5 5 5 5 5 6 9 11 39 5 5 15 9 84 96 100 100
5 5 3 0 0 4 0 0 5 0 0 0 0 3 5 20 42 6 26 100 100 25 14 5 5 5 5 5 5 5 7 5 5 5 5 5 15 39 48 24 55 28 82 10 5 32 8
6 26 0 5 5 5 4 8 5 0 0 3 2 0 4 5 5 8 5 88 97 29 5 5 5 9 17 62 77 71 6 9 5 54 62 20 88 78 14 43 4 1 4 5 5 5 5
21 47 24 4 5 4 1 5 5 4 0 0 0 5 5 4 1 5 5 97 95 28 21 5 5 5 5 60 93 42 5 32 29 99 86 100 100 66 99 100 5 44 5 5 20 99 100
6 85 31 8 5 5 4 8 9 6 2 0 5 5 5 5 2 1 5 70 100 100 100 96 10 18 37 62 64 72 20 56 82 87 94 94 100 64 91 100 8 53 27 67 90 100 100
60 93 20 5 5 5 6 9 17 5 13 0 5 5 5 5 4 5 5 6 99 100 100 100 95 95 88 38 67 33 6 5 6 28 12 67 99 100 100 100 66 26 7 29 82 100 100
43 95 5 5 5 5 15 5 9 8 16 5 80 100 98 73 3 5 2 4 38 100 100 98 100 100 100 99 50 30 10 49 32 9 5 36 9 12 74 100 82 57 44 12 36 6 78

GFSGBSN_prec_cloud_060.txt.gz
Cloud_Cover
10 94 90 25 64 18 0 0 0 28 97 95 100 49 57 59 2 0 0 0 0 0 0 3 10 23 64 34 2 19 91 100 98 100 100 100 100 29 65 4 6 0 42 28 100 100 100
5 100 64 54 100 81 4 0 17 93 96 96 100 75 1 8 0 0 5 3 0 0 0 4 64 94 5 27 2 5 69 79 92 100 100 100 99 53 98 14 1 15 86 96 75 100 100
5 35 62 48 100 100 100 79 58 39 95 33 86 100 14 0 0 0 0 0 0 0 0 0 45 1 2 3 5 5 60 96 88 100 100 100 100 100 99 76 5 0 4 47 62 100 100
5 5 93 35 99 16 84 100 100 100 57 21 100 100 79 1 0 0 0 0 0 0 1 0 38 0 26 33 97 18 48 6 56 100 100 100 100 100 100 73 19 9 6 76 73 100 100
99 18 100 26 18 54 58 37 100 100 100 100 27 100 100 10 5 5 0 0 0 5 5 5 5 14 67 71 100 100 100 66 100 100 100 100 100 100 100 100 66 92 33 18 60 74 100
63 54 100 46 50 73 100 100 93 86 100 100 100 100 100 69 12 5 1 5 0 0 5 1 5 15 86 95 100 100 100 100 86 100 100 100 100 100 94 99 60 93 26 23 6 100 100
100 88 75 72 100 100 100 100 100 100 100 100 91 100 100 100 10 5 5 5 4 88 65 5 5 5 95 100 100 74 100 100 41 100 100 100 100 55 99 100 100 59 5 0 5 100 100
8 92 100 85 97 100 100 100 100 100 100 100 100 69 100 100 93 8 5 3 96 5 100 100 10 72 100 99 100 80 36 84 100 100 100 100 98 100 100 98 100 100 32 0 0 95 100
72 19 48 99 100 100 84 100 100 100 100 100 100 100 96 100 84 4 5 5 46 45 54 95 5 6 23 12 45 51 56 86 100 100 100 100 31 100 100 98 51 100 74 3 0 19 78
99 5 18 42 68 100 76 22 67 100 100 100 100 100 100 100 35 5 5 5 5 9 5 19 5 5 52 10 85 6 5 96 100 100 100 100 100 97 100 78 89 100 65 3 0 3 46
100 98 53 12 5 100 71 39 49 100 98 75 100 76 100 100 4 4 4 5 5 5 9 5 90 22 99 5 6 30 14 100 100 100 100 98 55 7 65 76 79 100 96 19 5 5 5
100 100 86 51 68 100 93 76 49 99 32 53 31 95 99 99 93 5 5 5 20 5 79 78 71 15 71 63 99 100 100 92 100 100 100 100 95 69 6 86 99 55 100 83 5 17 55
100 100 28 21 100 100 100 92 9 35 17 27 38 49 81 0 4 34 40 5 12 7 5 99 69 86 100 92 100 100 100 100 100 100 100 100 84 57 66 5 94 81 100 77 80 76 27
100 100 83 7 100 93 100 100 40 99 23 9 3 12 5 1 5 10 32 46 7 5 46 99 68 69 90 100 96 100 100 100 100 100 100 100 100 56 73 83 59 96 79 53 15 54 5
100 100 88 13 100 100 100 87 17 11 3 58 0 0 9 0 99 93 70 5 4 5 5 44 53 100 100 100 100 100 100 100 100 100 100 100 100 100 98 80 16 11 78 72 9 6 5
100 100 97 5 100 100 59 100 7 5 4 0 0 0 5 0 100 98 63 13 5 5 5 5 40 85 71 100 100 100 100 100 100 100 100 100 100 100 91 40 24 5 23 42 78 73 5
100 100 98 5 100 100 20 100 5 5 5 0 0 4 21 0 100 100 6 57 5 5 5 5 9 93 43 98 32 100 100 100 100 100 100 100 100 100 90 100 100 99 57 38 41 32 21
100 100 90 5 65 99 81 100 5 5 5 1 0 76 52 0 97 100 18 5 5 5 5 5 10 73 81 84 98 5 100 100 100 100 100 100 100 100 90 80 92 100 94 97 80 72 28
100 100 100 6 99 92 100 95 6 5 5 4 14 72 92 55 78 31 5 5 4 4 2 2 48 5 63 100 53 14 5 100 100 52 100 62 63 100 100 73 98 100 100 99 71 93 55
100 100 100 37 39 100 100 62 55 5 5 4 5 34 97 100 100 76 5 5 2 2 3 5 5 57 5 10 31 41 54 67 97 97 97 80 62 99 94 99 90 100 100 100 100 100 92
100 100 100 100 98 80 100 20 97 27 5 1 10 11 12 89 98 5 5 8 5 5 5 5 5 5 14 20 5 5 5 21 73 99 100 100 100 100 100 100 60 5 100 100 100 99 90
100 100 100 100 98 100 59 56 99 70 5 6 0 5 4 4 5 5 5 5 84 99 87 37 5 5 5 5 5 5 5 3 5 5 91 99 99 99 99 64 59 99 56 52 99 93 95
100 100 100 100 100 100 48 92 100 10 9 0 0 2 24 4 5 22 17 42 88 100 95 98 18 5 5 19 5 5 8 5 5 12 60 100 95 91 82 5 5 18 82 5 5 21 5
100 100 100 100 100 100 100 100 19 31 5 5 0 0 5 5 5 5 5 28 100 88 100 100 75 53 24 81 100 84 83 87 30 5 5 43 29 44 27 7 51 77 2 4 36 10 7
100 100 100 100 100 100 60 63 5 5 5 5 2 0 2 3 4 5 6 70 92 96 100 76 26 64 100 100 100 100 94 91 16 5 5 5 5 12 8 58 98 12 7 46 100 53 18
100 100 100 94 100 100 48 40 5 5 5 5 2 2 4 4 4 2 0 5 46 83 93 93 96 61 96 100 100 98 47 53 9 91 93 100 100 86 84 40 5 5 30 70 88 82 82
100 100 100 100 100 100 91 12 5 5 5 2 4 5 4 5 5 4 4 3 2 3 28 72 65 97 31 87 99 100 98 53 44 44 98 100 100 98 100 95 10 5 16 32 22 65 41
100 100 100 100 100 100 89 16 5 5 5 4 16 57 5 6 5 5 5 5 5 5 5 58 96 98 97 98 100 100 8 16 30 27 46 58 75 57 98 93 44 5 5 6 24 62 53
100 100 100 100 100 100 17 5 5 5 85 25 99 95 11 43 6 5 5 0 5 5 5 4 58 100 100 100 96 82 100 5 5 5 5 48 6 73 95 97 25 5 5 5 5 46 83

GFSGBSN_prec_cloud_063.txt.gz
Cloud_Cover
68 10 12 100 100 100 100 100 78 1 37 66 0 40 65 0 0 31 22 3 1 16 1 0 3 4 74 26 5 89 65 62 100 100 100 100 100 100 50 100 25 80 49 100 100 62 100
99 52 5 59 99 100 100 100 100 100 97 4 85 20 75 3 0 0 0 5 0 0 0 0 3 5 42 46 8 100 61 100 100 100 100 100 100 100 95 100 100 30 78 63 88 100 100
100 100 5 69 89 98 9 88 100 100 100 99 12 0 81 88 0 0 0 5 0 0 1 0 15 100 3 36 2 100 11 94 100 100 100 100 100 100 97 100 100 74 62 79 4 92 82
90 99 16 54 71 100 79 100 100 100 100 65 1 52 2 8 40 4 0 26 0 0 0 14 0 0 26 2 2 3 34 28 100 100 100 100 100 100 100 100 100 6 5 24 5 60 5
100 98 39 54 80 97 47 90 100 100 100 100 73 100 59 100 26 4 0 65 0 0 0 0 1 26 100 77 52 6 3 30 88 100 100 100 100 100 100 100 100 53 33 16 98 6 28
100 67 22 13 83 96 19 80 100 100 100 100 100 97 100 100 92 4 1 5 0 5 5 0 1 65 100 100 100 77 97 12 43 100 100 100 90 100 100 99 40 27 64 94 44 98 31
100 88 16 6 43 100 37 90 100 100 100 100 100 100 100 100 100 21 5 2 3 5 5 5 5 64 99 100 100 100 100 29 29 100 93 100 71 76 23 93 6 86 100 61 5 8 9
100 69 25 5 11 100 27 95 100 100 100 100 100 100 100 100 100 52 5 5 5 5 5 14 65 68 90 98 100 42 50 69 94 98 100 100 100 100 100 100 93 100 89 77 5 5 3
100 100 22 6 5 89 83 92 34 100 100 100 100 100 100 100 100 8 5 5 5 5 20 11 5 69 47 24 84 100 98 92 100 100 100 100 100 100 100 100 75 100 100 100 66 1 17
100 100 60 5 6 63 100 46 85 100 100 100 100 100 100 100 2 4 5 2 5 5 5 8 5 96 68 97 100 88 82 76 100 100 100 100 99 100 100 100 100 100 100 100 100 5 13
100 100 84 5 94 100 100 24 100 100 100 100 40 100 100 100 0 4 3 5 5 5 42 10 65 100 98 50 89 62 100 100 100 100 100 100 92 100 100 100 100 100 97 24 18 5 4
100 100 84 14 100 100 95 19 100 100 100 73 30 100 100 100 61 4 5 5 5 5 52 55 52 100 100 71 89 89 100 100 100 100 100 100 90 98 100 84 89 94 37 7 43 18 35
100 100 93 22 100 100 98 5 100 100 100 8 14 98 86 0 3 7 48 5 5 7 5 49 54 36 48 48 100 100 100 100 100 100 100 100 57 80 64 97 96 64 36 91 78 55 51
100 100 99 66 100 91 100 30 100 100 87 19 6 76 4 0 4 7 82 54 7 27 80 50 28 24 9 39 100 100 100 100 100 100 98 100 100 100 100 100 99 98 25 6 24 48 5
100 100 100 96 100 97 100 39 100 29 38 16 5 5 16 2 96 100 70 5 4 13 93 5 21 52 50 38 54 100 100 98 88 100 100 98 100 77 100 11 10 33 76 8 5 5 12
100 100 100 100 100 64 100 100 100 36 5 56 54 5 9 5 91 96 65 13 5 5 18 36 52 30 92 89 83 100 100 100 100 100 100 89 93 100 100 80 43 84 94 25 51 17 5
100 100 100 100 100 99 100 100 100 40 5 22 5 8 39 5 100 100 26 39 5 38 16 22 30 86 58 100 90 99 100 100 100 100 100 100 100 100 100 100 95 96 80 25 5 20 5
100 100 100 100 100 100 95 100 100 100 37 5 5 72 98 23 88 100 47 5 6 17 7 74 98 6 21 51 100 34 86 99 100 100 100 100 100 100 100 99 100 94 52 92 78 8 31
100 100 100 100 100 100 98 100 59 100 77 5 32 83 100 70 98 79 5 6 5 5 5 5 100 80 18 100 61 100 100 60 99 100 100 100 100 100 100 98 99 100 100 96 86 60 65
100 100 100 100 100 100 100 90 53 100 27 9 8 47 100 100 100 88 8 5 5 2 5 4 49 100 89 90 35 90 100 79 74 98 100 100 100 100 100 91 53 81 100 100 100 100 90
100 100 100 100 100 100 100 69 100 100 16 10 37 5 7 92 100 13 5 87 39 5 7 4 5 28 88 56 68 80 88 100 100 100 97 96 88 85 80 100 100 100 34 44 100 100 99
100 100 100 100 100 100 100 100 100 82 5 65 46 5 5 1 5 5 6 6 98 100 88 47 5 0 0 5 84 84 38 26 86 100 100 100 97 72 61 85 92 81 100 97 100 93 100
100 100 100 100 100 100 100 100 100 38 6 77 5 5 2 5 5 18 35 22 100 98 100 100 58 5 2 5 5 79 90 56 53 65 100 100 100 100 100 99 90 100 57 20 17 5 33
100 100 100 100 100 100 100 100 100 90 6 93 5 5 4 4 5 8 5 31 100 100 91 99 97 23 23 5 5 31 88 76 43 49 36 48 43 42 94 33 12 22 7 5 5 4 5
100 100 100 100 100 100 100 100 100 15 7 46 10 5 5 5 3 5 5 6 89 95 100 100 97 100 62 61 86 29 68 100 75 5 5 5 5 30 47 12 16 48 11 5 5 5 23
100 100 100 100 100 100 100 100 96 6 5 9 16 5 28 75 3 2 0 4 48 100 99 94 91 100 100 98 97 44 31 7 91 100 100 100 100 93 85 61 5 7 55 51 45 5 88
100 100 100 100 100 100 100 100 62 5 21 8 5 11 100 17 5 4 3 3 1 2 35 82 46 100 97 76 46 98 28 13 46 71 97 100 100 99 96 62 20 4 4 5 5 22 8
100 100 100 100 100 100 100 100 86 9 6 5 5 5 100 88 35 5 5 5 5 4 3 5 70 100 100 92 63 100 50 15 43 47 5 29 54 48 92 100 48 5 64 50 82 32 17
100 100 100 100 100 100 100 100 100 49 27 5 7 5 93 100 37 5 4 0 5 5 5 5 61 100 100 100 71 35 73 98 84 98 44 69 18 79 73 43 5 37 43 92 72 92 62

GFSGBSN_prec_cloud_066.txt.gz
Cloud_Cover
22 100 100 87 5 6 24 100 100 100 21 98 48 18 66 19 10 0 0 4 0 0 4 0 0 0 8 76 24 4 100 100 100 100 100 100 100 70 53 100 100 100 83 100 60 14 67
100 69 100 100 57 15 5 94 100 100 48 100 100 56 2 32 13 0 0 0 0 0 0 0 0 0 0 14 0 3 100 100 100 100 100 100 100 93 99 100 100 100 100 100 97 5 95
88 100 100 100 99 53 5 90 80 100 98 100 100 100 94 0 15 7 0 0 0 0 0 0 4 20 2 0 4 5 100 100 100 100 100 100 100 100 100 99 81 100 100 100 100 15 94
100 100 100 100 100 83 12 100 100 94 100 99 100 100 100 9 28 12 1 0 0 0 0 0 0 21 67 0 0 2 40 54 99 99 100 100 100 100 100 79 100 100 100 100 100 78 100
84 100 100 100 100 31 50 88 84 36 100 90 100 100 100 100 64 3 1 0 0 0 5 0 0 34 94 98 45 15 5 33 99 100 100 100 100 100 82 100 100 100 87 100 88 95 100
99 100 100 80 100 95 27 95 99 50 97 100 100 100 100 100 100 62 1 0 0 0 2 0 3 22 65 100 100 94 12 21 88 100 100 100 99 100 100 100 49 14 7 35 100 97 99
100 100 100 100 100 82 30 100 100 75 66 100 100 100 100 100 99 84 1 2 0 2 5 5 3 45 94 100 100 30 82 53 87 100 100 100 100 51 100 100 100 100 100 100 100 100 76
100 100 100 100 100 92 40 100 100 100 90 100 100 99 100 100 92 99 0 0 4 4 5 5 5 38 53 100 100 100 80 97 94 100 100 100 93 92 100 100 100 100 100 100 100 99 35
100 100 100 100 100 100 53 100 100 92 99 82 86 100 100 100 100 16 0 0 5 4 5 6 58 32 79 89 100 100 97 96 100 100 100 100 84 56 100 98 100 100 100 100 100 77 42
100 100 100 100 100 98 5 100 100 100 64 70 100 100 100 100 36 0 2 0 5 5 8 20 91 85 65 99 97 74 35 47 83 100 100 100 100 79 7 35 100 100 100 100 100 15 9
100 100 100 100 100 88 5 100 100 100 19 100 100 100 100 100 1 4 0 0 0 3 19 5 100 87 96 97 91 94 69 87 100 80 100 97 82 100 75 100 100 100 100 94 94 80 50
100 100 100 100 100 100 5 99 100 100 87 100 90 100 100 100 30 4 5 5 3 11 33 73 39 100 72 72 98 99 98 58 100 98 100 100 100 100 100 100 100 98 31 58 100 31 52
100 100 100 100 100 100 5 98 100 100 15 42 100 100 98 18 46 5 5 1 46 5 8 72 11 90 69 91 99 100 100 100 100 100 100 100 100 100 100 100 70 34 99 52 71 81 32
100 100 100 100 100 100 5 95 100 100 45 5 100 98 21 30 5 12 64 16 7 5 70 40 5 60 100 100 100 100 100 100 100 100 100 92 100 87 94 64 100 77 88 86 57 32 100
100 100 100 100 100 100 5 96 100 100 100 5 99 32 51 6 55 99 57 5 31 5 5 8 15 56 88 98 96 100 100 100 100 99 95 95 96 55 100 29 52 98 99 100 99 99 100
100 100 100 100 100 100 22 94 100 100 100 73 38 97 64 67 100 90 58 17 5 5 5 5 38 26 68 99 99 100 100 93 98 90 56 100 100 100 100 40 96 86 68 80 23 12 41
100 100 100 100 100 100 64 100 100 100 100 100 49 97 61 76 99 90 87 25 5 5 5 5 5 5 32 24 100 100 100 100 98 100 100 96 89 97 84 98 100 95 92 13 71 20 46
100 100 100 100 100 100 100 100 100 100 100 100 75 88 96 78 77 99 76 5 13 77 6 5 5 5 5 5 73 100 100 100 90 100 100 95 94 100 95 19 95 81 76 52 95 36 5
100 100 100 100 100 100 100 100 100 100 100 86 96 86 99 100 100 100 11 7 32 58 5 5 5 5 18 51 14 60 100 100 100 100 100 95 100 82 100 98 99 100 69 62 68 8 67
100 100 100 100 100 100 100 100 100 100 100 68 72 98 99 100 100 86 25 5 5 5 5 5 5 5 62 74 70 96 91 100 100 100 100 100 100 100 100 100 72 80 80 63 93 99 88
100 100 100 100 100 100 100 100 100 100 100 77 93 53 71 59 80 67 6 48 20 5 5 5 5 67 12 5 90 56 92 99 100 100 100 100 100 100 100 100 100 91 34 99 94 86 82
100 100 100 100 100 100 100 100 100 100 100 98 98 53 74 29 21 54 5 5 100 93 66 6 5 5 5 78 34 93 66 100 100 94 100 100 100 100 100 100 100 100 100 100 99 40 95
100 100 100 100 100 100 100 100 100 100 100 7 44 100 23 15 4 8 6 10 60 66 16 10 65 5 5 5 5 5 5 5 43 91 56 60 57 81 100 99 100 100 91 5 34 98 5
100 100 100 100 100 100 100 100 100 100 100 26 64 97 56 9 5 5 5 23 19 5 48 6 50 5 5 5 28 5 45 90 29 5 43 98 100 96 93 47 58 100 48 48 30 5 33
100 100 100 100 100 100 100 100 100 100 100 93 100 100 33 5 2 4 5 5 63 11 5 78 74 5 5 42 95 81 94 73 100 55 22 47 33 36 46 95 76 95 61 5 7 5 5
100 100 100 100 100 100 100 100 100 100 100 97 100 100 42 8 4 0 5 5 5 5 5 5 62 40 36 6 7 60 49 6 25 34 64 94 37 41 5 5 5 5 5 5 5 54 60
100 100 100 100 100 100 100 100 100 100 100 81 100 100 67 10 5 3 0 0 3 5 26 5 33 100 91 41 88 17 30 5 5 55 71 100 97 77 88 92 7 5 11 50 27 82 94
100 100 100 100 100 100 100 100 100 100 100 100 100 99 100 34 24 5 4 5 4 0 4 6 56 85 100 79 46 22 5 5 5 5 5 40 65 81 95 96 88 74 100 100 95 36 72
100 100 100 100 100 100 100 100 100 100 100 100 100 88 100 5 20 2 2 2 5 5 4 4 86 100 100 100 50 13 24 94 10 91 5 51 24 67 34 59 33 96 76 27 5 6 6

GFSGBSN_prec_cloud_069.txt.gz
Cloud_Cover
96 76 15 99 100 100 5 8 100 100 68 70 37 41 86 3 100 12 0 0 0 0 0 0 0 0 0 5 14 85 100 99 100 98 92 100 100 100 100 99 100 99 97 100 100 100 8
100 100 64 53 100 100 19 12 100 96 100 100 90 100 100 97 1 40 4 0 0 0 0 0 0 0 14 34 0 5 65 100 99 100 100 100 99 100 100 100 100 100 100 98 100 100 100
100 94 88 99 100 100 38 5 87 81 84 100 97 100 100 100 2 18 44 0 0 9 0 0 0 0 63 39 1 1 0 100 100 100 100 100 100 100 72 100 100 100 98 100 100 98 94
100 100 100 100 100 97 100 2 66 46 100 100 78 100 100 99 92 92 0 0 0 0 0 0 0 6 10 5 16 1 7 100 100 100 100 100 100 90 96 100 100 100 100 100 100 100 100
100 100 100 100 100 100 66 52 54 100 100 100 72 56 100 70 100 88 2 0 0 0 0 0 55 76 82 95 92 100 16 96 100 100 100 100 100 73 99 95 100 100 100 100 100 99 74
100 99 100 100 100 100 53 97 97 100 100 100 66 100 95 86 100 100 8 1 0 0 4 8 35 84 89 99 94 100 100 100 100 100 100 100 100 98 100 100 64 98 92 100 100 100 99
100 96 100 100 100 100 99 11 100 100 100 100 92 100 95 100 100 100 7 0 7 4 5 25 28 93 100 100 100 99 100 100 100 100 100 100 100 43 70 28 100 100 100 100 100 100 100
100 100 100 100 100 100 100 96 100 100 100 100 100 100 58 71 100 100 4 1 4 4 9 80 6 91 100 100 62 59 100 100 100 100 100 100 100 100 100 100 99 100 100 100 100 100 73
100 100 100 100 100 100 100 100 100 100 100 88 100 95 98 20 27 58 5 0 0 5 57 38 23 84 82 100 68 99 73 100 100 100 100 100 95 100 100 69 100 100 100 100 100 100 97
100 100 100 100 100 100 100 100 100 100 100 99 100 99 71 5 46 20 0 0 2 5 95 36 35 67 58 100 90 87 97 100 100 100 100 100 99 100 100 99 100 100 100 100 100 100 100
100 100 100 100 100 100 100 100 100 100 87 100 100 100 90 5 79 4 1 5 0 8 99 10 35 5 71 46 41 100 5 100 100 100 100 100 100 77 100 100 99 100 100 100 100 100 27
100 100 100 100 100 100 100 100 100 100 78 100 100 100 58 42 84 25 1 5 28 86 55 50 41 5 94 47 42 18 78 100 99 100 100 100 100 99 98 61 95 100 100 100 100 94 100
100 100 100 100 100 100 100 100 100 100 100 100 100 100 94 82 100 5 5 24 91 97 7 32 56 37 100 80 57 100 16 66 38 96 100 97 100 99 100 75 100 100 100 100 95 74 76
100 100 100 100 100 100 100 100 100 100 100 100 100 100 37 73 5 8 32 78 96 15 44 62 50 41 100 62 59 100 100 81 79 100 100 100 100 100 99 98 99 100 100 100 100 100 88
100 100 100 100 100 100 100 100 100 100 100 100 100 100 95 10 12 39 87 100 51 19 45 86 20 90 84 92 51 100 100 100 35 80 97 99 99 100 100 100 100 85 99 100 38 8 52
100 100 100 100 100 100 100 100 100 100 100 100 100 100 100 14 88 76 88 42 35 11 13 70 96 78 98 94 73 100 100 100 100 70 76 44 57 100 100 100 100 100 96 94 67 100 100
100 100 100 100 100 100 100 100 100 100 100 100 100 100 98 25 98 95 98 45 28 5 7 100 91 92 99 61 89 100 99 100 100 88 29 43 58 41 81 63 85 100 100 100 98 100 100
100 100 100 100 100 100 100 100 100 100 100 100 100 100 92 95 96 98 100 12 6 49 5 5 9 83 85 72 49 100 100 100 100 93 76 54 100 99 98 81 55 100 100 100 100 100 100
100 100 100 100 100 100 100 100 100 100 100 100 100 97 83 100 100 100 52 16 16 44 16 7 49 19 8 60 82 94 100 49 47 56 87 94 100 90 88 48 23 72 93 100 100 89 69
100 100 100 100 100 100 100 100 100 100 100 100 100 94 92 100 100 99 77 99 58 6 5 1 27 5 5 48 8 16 84 88 100 100 65 99 57 55 88 59 9 81 36 54 92 100 52
100 100 100 100 100 100 100 100 100 100 100 100 100 78 12 90 85 94 34 56 80 14 5 0 5 53 94 85 25 29 24 100 100 100 96 88 78 42 62 7 37 45 13 60 91 86 97
100 100 100 100 100 100 100 100 100 100 100 100 100 83 28 74 13 60 51 7 78 42 6 6 11 34 10 90 100 85 6 25 83 98 100 100 100 100 100 100 100 100 100 100 100 96 98
100 100 100 100 100 100 100 100 100 100 100 100 100 96 94 97 62 36 12 40 52 10 10 35 14 5 5 20 5 23 38 45 56 46 96 100 98 100 100 100 100 100 100 100 100 100 100
100 100 100 100 100 100 100 100 100 100 100 100 100 100 100 96 66 35 19 5 5 12 88 9 5 13 5 2 5 5 5 5 5 14 65 100 100 100 100 100 100 100 100 100 100 100 62
100 100 100 100 100 100 100 100 100 100 100 100 100 100 100 99 99 13 5 5 5 5 5 47 14 5 5 5 30 33 45 15 10 5 6 100 100 100 100 100 97 99 100 33 5 31 5
100 100 100 100 100 100 100 100 100 100 100 100 100 100 100 100 100 44 6 5 8 27 5 5 5 5 5 57 38 100 97 96 83 50 5 5 63 98 77 99 53 4 6 6 5 67 71
100 100 100 100 100 100 100 100 100 100 100 100 100 100 100 100 100 68 24 5 5 5 90 5 5 16 15 98 62 97 95 24 71 91 56 89 100 100 100 100 93 37 10 32 12 53 7
100 100 100 100 100 100 100 100 100 100 100 100 100 100 100 100 100 82 14 5 5 5 67 6 65 48 92 61 100 86 51 62 22 85 88 38 64 92 98 100 97 22 63 57 68 7 5
100 100 100 100 100 100 100 100 100 100 100 100 100 100 100 100 100 100 6 13 5 2 2 6 58 100 100 100 30 70 18 5 77 100 5 86 98 90 80 100 68 27 44 64 5 5 16

GFSGBSN_prec_cloud_072.txt.gz
Cloud_Cover
100 100 100 100 100 46 73 88 67 11 99 100 100 100 100 100 42 16 94 6 0 1 0 0 0 0 0 6 99 95 92 100 100 100 97 54 100 100 85 100 100 100 98 100 75 54 70
96 94 100 100 100 100 27 86 100 5 89 100 100 100 100 100 100 7 14 74 0 0 0 0 0 0 8 27 5 2 100 100 100 87 51 92 100 100 97 100 100 100 100 100 100 91 90
99 100 100 100 100 100 100 60 100 92 66 100 100 100 100 100 100 100 6 4 9 0 0 0 0 8 24 13 43 1 7 97 100 99 100 100 100 100 100 100 100 100 100 100 100 100 100
99 100 100 100 100 100 100 44 100 100 100 100 100 100 99 81 100 100 57 0 6 0 0 2 0 4 43 5 100 18 26 100 100 100 100 100 100 100 92 100 100 100 100 100 100 100 100
100 98 100 100 100 100 100 79 90 100 100 100 100 100 100 30 58 100 100 1 0 1 0 0 16 100 88 86 100 89 6 82 59 100 100 99 99 100 98 88 100 100 100 92 100 100 100
100 100 99 100 100 100 100 100 100 86 100 100 100 100 100 89 100 100 84 0 0 0 0 6 76 94 81 100 100 100 53 100 100 100 100 97 100 100 100 100 100 100 100 100 100 100 100
99 100 90 100 100 100 100 100 100 100 100 98 100 100 100 100 98 100 16 0 4 5 5 7 12 91 100 100 98 31 90 100 100 100 100 86 100 88 91 100 100 100 100 100 100 100 100
100 100 100 100 100 100 100 100 100 100 100 100 100 100 100 100 100 96 5 1 2 0 4 51 36 97 99 94 70 5 92 100 100 100 100 99 100 74 100 100 100 100 100 100 100 100 100
100 100 100 100 100 100 100 100 100 94 100 100 100 100 100 54 33 30 2 0 0 2 22 46 5 12 87 100 55 98 98 100 100 100 100 100 100 100 70 92 100 100 100 100 100 100 100
100 100 100 100 100 100 100 100 100 100 100 100 100 100 100 98 44 38 1 0 0 2 70 63 41 52 96 6 100 95 59 97 100 100 100 100 100 74 98 92 93 100 100 100 100 100 100
100 100 100 100 100 100 100 100 100 100 100 100 100 100 100 100 87 28 6 0 0 6 73 6 48 8 86 28 100 100 100 95 100 100 87 100 100 90 91 100 98 78 100 100 100 100 98
100 100 100 100 100 100 100 100 100 100 100 100 100 100 100 100 65 65 4 4 4 87 19 29 32 18 88 98 99 100 100 73 100 85 98 100 97 94 100 13 5 5 100 100 100 100 89
100 100 100 100 100 100 100 100 100 100 100 100 100 100 100 100 82 10 5 50 97 100 8 19 35 91 25 93 97 100 100 100 100 98 98 84 76 81 85 81 100 100 100 100 100 100 66
100 100 100 100 100 100 100 100 100 100 100 100 100 100 100 100 16 19 92 92 75 38 77 65 56 22 5 95 100 100 100 96 100 100 100 100 80 77 14 5 6 63 100 100 100 100 100
100 100 100 100 100 100 100 100 100 100 100 100 100 100 100 87 83 9 67 100 81 8 95 99 94 100 80 5 67 100 89 88 5 6 42 99 97 78 34 87 25 62 24 82 42 58 61
100 100 100 100 100 100 100 100 100 100 100 100 100 100 100 51 75 31 87 58 44 33 77 26 96 35 81 93 12 85 100 5 31 99 75 97 96 92 100 99 99 100 22 58 90 57 86
100 100 100 100 100 100 100 100 100 100 100 100 100 100 100 68 39 76 91 100 68 4 6 100 99 66 96 98 88 93 78 100 60 9 9 87 22 94 66 99 100 100 63 62 88 100 100
100 100 100 100 100 100 100 100 100 100 100 100 100 100 99 100 87 38 80 65 77 5 5 44 12 98 100 83 63 100 55 64 9 21 70 90 90 100 72 86 100 100 100 81 45 22 99
100 100 100 100 100 100 100 100 100 100 100 100 100 100 100 100 93 97 76 25 34 58 7 12 34 18 10 92 90 100 94 78 44 58 72 36 36 52 91 94 96 100 100 100 100 87 85
100 100 100 100 100 100 100 100 100 100 100 100 100 100 100 100 89 94 100 98 19 8 93 5 72 5 5 8 56 30 87 26 68 56 9 50 85 100 95 99 90 100 78 84 100 100 100
100 100 100 100 100 100 100 100 100 100 100 100 100 100 100 100 88 100 98 39 100 5 5 5 6 29 43 88 54 74 84 62 90 15 32 26 66 59 55 49 8 29 32 100 100 100 97
100 100 100 100 100 100 100 100 100 100 100 100 100 100 100 100 67 100 94 5 97 76 2 5 19 5 8 74 100 93 20 94 22 55 84 100 93 98 43 89 15 5 5 72 63 83 68
100 100 100 100 100 100 100 100 100 100 100 100 100 100 100 100 100 100 100 15 37 5 5 52 66 5 17 13 98 83 69 86 92 57 99 82 86 86 67 71 5 79 37 18 44 61 68
100 100 100 100 100 100 100 100 100 100 100 100 100 100 100 100 100 100 100 31 24 5 7 21 5 15 5 5 6 33 8 5 5 21 100 95 84 69 91 63 81 100 33 97 60 70 82
100 100 100 100 100 100 100 100 100 100 100 100 100 100 100 100 100 100 100 62 8 3 5 58 5 5 5 4 6 5 13 6 30 5 5 58 100 100 92 14 47 94 98 79 57 97 100
100 100 100 100 100 100 100 100 100 100 100 100 100 100 100 100 100 100 100 90 5 5 5 5 5 5 5 5 5 22 5 37 61 15 5 5 88 72 62 70 100 38 99 100 100 97 98
100 100 100 100 100 100 100 100 100 100 100 100 100 100 100 100 100 100 100 90 5 13 20 5 5 5 5 5 17 29 47 96 54 12 7 13 24 46 42 90 75 60 92 62 4 41 25
100 100 100 100 100 100 100 100 100 100 100 100 100 100 100 100 100 100 100 73 5 5 12 6 5 5 6 97 89 7 38 76 32 25 5 8 18 57 74 93 54 5 5 5 6 5 74
100 100 100 100 100 100 100 100 100 100 100 100 100 100 100 100 100 100 100 100 88 5 13 5 43 66 92 54 6 5 8 7 5 93 5 81 7 72 49 11 7 6 97 91 65 38 73

GFSGBSN_prec_cloud_075.txt.gz
Cloud_Cover
96 100 100 100 100 100 100 69 92 92 40 100 98 53 14 38 100 100 62 53 89 0 87 0 0 0 0 4 5 26 6 82 95 100 100 99 81 90 99 82 100 100 100 100 100 100 97
91 54 100 100 100 100 100 82 100 100 100 77 100 54 15 95 100 100 100 20 81 83 0 0 1 0 4 29 5 13 2 62 100 100 100 56 100 100 100 100 100 100 100 100 100 100 99
100 21 100 100 100 100 100 78 98 100 99 98 100 43 10 91 82 100 100 100 48 1 4 7 5 0 3 0 5 96 1 64 88 100 100 88 99 100 100 100 91 100 100 100 100 100 88
100 98 57 67 85 100 100 100 100 100 100 100 100 46 86 96 100 100 82 100 68 5 1 8 5 22 91 5 71 100 32 11 100 100 100 93 94 100 100 45 100 100 100 100 100 100 100
100 100 100 100 100 100 100 100 100 100 100 100 100 17 100 100 100 57 100 98 28 1 3 3 15 78 100 22 96 100 95 13 77 100 100 88 100 100 100 94 98 100 100 100 100 100 100
100 100 100 100 100 99 100 100 100 100 100 100 54 55 100 100 100 23 100 5 5 8 3 5 5 100 84 97 93 100 35 36 80 100 63 94 100 100 100 100 100 100 100 100 100 100 100
100 100 100 100 100 100 100 100 100 100 100 100 88 40 100 100 100 85 100 32 5 2 3 6 70 100 90 23 54 94 3 100 100 100 88 100 98 100 98 85 96 100 100 100 100 100 100
5 98 100 100 100 100 100 100 100 100 100 100 97 100 100 100 100 90 98 5 5 0 3 5 32 22 15 31 4 4 89 100 100 100 64 100 100 100 100 95 100 100 100 100 100 100 100
0 0 80 100 100 98 100 100 100 100 100 100 100 100 100 100 100 93 68 28 5 0 3 45 9 5 4 55 99 100 93 100 100 100 70 95 100 100 100 100 100 100 100 100 100 100 100
4 0 0 4 100 100 100 100 100 100 100 100 100 100 100 100 100 68 86 43 5 2 31 58 5 13 12 88 95 41 99 100 100 100 100 100 100 100 100 100 100 100 100 100 100 100 100
86 77 2 9 42 100 100 100 100 100 100 100 100 100 100 100 100 88 100 29 5 5 69 8 34 5 5 25 12 100 64 100 100 100 81 100 100 96 100 100 100 100 100 100 100 100 100
98 100 89 6 5 100 100 100 100 100 100 100 100 100 100 100 100 100 89 55 5 13 17 36 32 72 66 6 5 44 96 71 100 76 100 98 85 66 42 85 100 100 100 100 100 100 100
100 86 59 25 88 73 100 100 100 100 100 100 100 100 100 100 100 100 90 14 53 5 5 36 58 45 73 64 12 5 22 100 100 100 100 100 73 73 95 61 85 100 100 100 100 100 100
20 58 72 22 100 100 100 100 100 100 100 100 100 100 100 100 100 100 98 5 7 5 5 88 100 5 26 35 95 85 9 21 95 15 20 68 100 18 7 66 88 72 100 100 100 100 99
32 100 64 100 100 99 100 100 100 100 100 100 100 100 100 100 100 100 100 34 38 5 20 100 100 99 6 5 74 100 71 8 16 5 18 65 48 72 5 5 27 93 99 83 90 74 74
72 100 100 100 100 100 100 100 100 100 100 100 100 100 100 100 100 100 100 66 26 47 32 20 64 95 100 5 62 100 99 64 100 100 100 66 73 53 5 5 5 5 21 94 100 100 100
100 100 100 100 65 100 100 100 100 100 100 100 100 100 100 100 100 100 100 30 88 5 5 28 55 99 98 19 52 85 92 34 18 5 5 71 12 57 96 13 12 5 5 4 3 15 100
100 57 69 100 9 100 100 100 100 100 100 100 100 100 100 100 100 100 100 71 95 5 5 5 5 30 60 46 48 96 50 22 68 39 5 74 18 89 33 100 35 50 96 38 6 57 50
100 51 4 35 4 100 100 100 100 100 100 100 100 100 100 100 100 100 100 63 14 14 5 5 5 5 12 19 37 63 100 17 98 46 56 8 20 91 98 96 59 85 100 100 93 64 32
87 36 4 63 98 100 100 100 100 100 100 100 100 100 100 100 100 100 100 60 18 81 36 5 27 20 94 93 59 5 100 88 100 100 5 6 32 9 7 42 47 40 99 100 51 8 99
6 5 5 100 100 100 100 100 100 100 100 100 100 100 100 100 100 100 100 46 34 72 75 5 5 5 18 6 5 45 100 82 100 71 32 7 38 78 99 100 92 74 44 100 100 100 100
5 5 13 100 100 100 100 100 100 100 100 100 100 100 100 100 100 100 100 74 100 62 6 5 0 5 90 90 35 5 5 100 100 63 75 5 52 54 100 82 6 16 5 5 5 96 100
9 24 100 100 100 100 100 100 100 100 100 100 100 100 100 100 100 100 100 94 87 65 8 2 5 48 6 97 88 70 63 5 72 55 73 31 30 45 33 94 28 29 7 6 68 73 100
8 100 100 100 100 100 100 100 100 100 100 100 100 100 100 100 100 100 100 100 91 44 5 5 5 5 5 72 97 98 75 7 8 5 96 86 73 70 91 77 73 29 5 2 4 20 100
100 100 100 100 100 100 100 100 100 100 100 100 100 100 100 100 100 100 100 100 60 42 59 5 5 5 5 58 90 100 97 5 5 5 27 100 100 100 91 32 28 16 5 5 6 16 16
100 100 100 100 100 100 100 100 100 100 100 100 100 100 100 100 100 100 100 100 82 63 30 5 5 5 5 5 5 5 5 5 20 7 5 84 94 93 82 98 16 5 7 6 4 5 82
100 100 100 100 100 100 100 100 100 100 100 100 100 100 100 100 100 100 100 100 64 82 46 20 5 5 5 5 5 5 5 5 6 5 5 15 94 31 90 37 3 5 5 5 22 93 100
100 100 100 100 100 100 100 100 100 100 100 100 100 100 100 100 100 100 100 100 97 97 97 16 5 5 5 14 32 5 5 10 54 5 4 2 8 5 21 76 46 5 5 5 5 5 19
100 100 100 100 100 100 100 100 100 100 100 100 100 100 100 100 100 100 100 100 100 100 99 22 5 5 70 13 11 10 5 5 5 5 5 3 2 4 2 45 7 100 50 51 83 60 89

GFSGBSN_prec_cloud_078.txt.gz
Cloud_Cover
100 100 100 100 100 100 100 100 100 100 100 97 98 92 100 100 72 63 100 100 97 60 82 0 0 5 0 7 0 3 5 0 5 90 100 100 100 76 87 5 7 100 95 100 100 100 99
100 100 100 100 100 100 100 100 100 100 100 100 18 100 100 99 100 99 100 100 100 73 9 19 0 34 0 33 0 4 0 0 8 86 100 100 100 91 35 19 8 98 100 100 100 100 100
100 100 100 100 100 100 100 100 100 100 100 99 99 100 100 100 100 100 100 100 100 97 9 0 7 32 0 5 0 5 5 0 54 97 100 100 100 100 100 59 24 86 100 100 100 100 100
100 91 100 100 100 100 100 100 100 100 100 100 100 100 100 100 100 100 100 100 100 100 100 0 5 76 17 5 5 10 39 0 50 100 93 90 100 100 100 44 16 100 100 100 100 100 100
83 100 66 100 100 100 79 100 100 100 100 100 100 100 100 100 100 100 100 99 75 60 30 10 33 68 56 35 100 100 71 4 9 100 43 100 100 100 100 92 57 100 100 100 100 100 100
99 52 96 51 72 100 100 100 99 100 100 100 100 100 100 100 100 100 100 53 20 24 5 5 6 95 75 61 27 97 99 8 69 100 93 100 100 98 100 100 87 100 100 100 100 100 100
100 93 0 0 5 96 100 100 100 100 100 100 100 100 100 100 100 100 100 50 25 5 2 4 5 40 5 2 8 86 30 14 100 100 100 100 99 100 100 100 79 100 100 100 100 100 100
5 97 97 3 0 6 58 100 100 100 100 100 100 100 100 100 100 100 100 96 74 34 4 5 5 5 4 1 46 81 24 100 100 100 100 100 100 100 100 100 100 100 100 100 100 100 100
69 100 100 99 2 3 0 39 99 100 100 100 100 100 100 100 100 100 100 100 94 12 5 4 5 5 5 28 94 100 100 100 100 100 100 100 100 100 98 100 100 100 100 100 100 100 100
11 100 100 100 100 2 1 1 100 100 100 100 100 100 100 100 100 100 100 100 99 5 5 3 4 5 5 6 72 100 100 100 100 100 100 100 100 100 100 100 100 100 100 100 100 100 100
73 100 68 100 100 83 0 11 17 100 100 100 100 100 100 100 100 100 100 100 96 5 5 3 4 5 5 5 7 90 100 100 100 100 100 100 100 100 94 100 100 100 100 100 100 100 100
100 75 99 99 90 78 13 0 17 100 100 100 100 100 100 100 100 100 100 100 86 6 20 7 5 5 5 89 17 86 98 100 100 100 100 100 100 100 97 100 82 100 100 100 100 100 100
14 7 29 48 12 4 6 22 70 100 100 100 100 100 100 100 100 100 100 100 45 27 6 9 4 5 5 16 5 48 74 94 69 80 100 89 100 96 33 94 100 100 100 100 100 100 100
100 78 20 17 5 84 5 100 100 100 100 100 100 100 100 100 100 100 100 100 47 5 5 5 5 5 5 6 14 15 100 100 100 100 86 92 96 78 95 92 100 100 100 100 100 100 96
95 96 5 5 96 98 100 100 55 100 100 100 100 100 100 100 100 100 100 99 4 5 5 41 5 5 5 5 5 5 99 50 5 93 100 8 45 78 82 74 100 100 99 100 100 100 75
65 32 9 6 100 100 100 100 99 49 100 100 100 100 100 100 100 100 100 42 5 5 19 99 9 4 4 5 3 5 5 66 5 5 5 2 11 5 5 51 83 100 100 90 100 100 96
11 36 5 6 100 100 100 100 100 100 100 100 100 100 100 100 100 100 100 19 5 6 29 40 82 11 5 5 5 5 5 5 5 30 45 16 2 10 5 2 5 38 96 100 81 100 100
65 5 51 5 100 99 100 100 100 100 100 100 100 100 100 100 100 100 100 5 5 5 6 37 91 92 77 5 5 34 5 52 70 99 56 9 5 38 5 5 5 5 32 86 100 42 92
5 5 5 30 81 98 31 51 100 100 100 100 100 100 100 100 100 100 100 9 20 8 5 37 66 83 72 5 8 29 89 5 5 5 5 8 5 42 6 5 5 5 18 92 100 100 50
51 31 5 5 5 5 53 100 100 100 100 100 100 100 100 100 100 100 100 68 28 5 5 5 10 98 86 72 85 31 99 66 52 12 5 5 5 59 14 5 4 4 5 5 5 38 66
99 78 55 86 23 6 100 100 100 100 100 100 100 100 100 100 100 100 99 36 63 20 20 5 12 100 100 99 89 39 100 95 96 100 64 5 6 5 5 5 5 4 1 4 46 89 8
97 36 89 5 5 100 100 100 100 100 100 100 100 100 100 100 100 100 62 79 16 98 34 5 3 66 100 5 5 5 5 100 99 34 93 5 52 5 5 92 100 100 83 5 5 8 94
41 49 100 10 100 100 100 100 100 100 100 100 100 100 100 100 100 100 39 5 72 100 28 5 3 5 87 5 5 5 5 5 10 52 10 18 5 5 5 5 5 79 14 5 5 5 5
12 100 98 100 100 100 100 100 100 100 100 100 100 100 100 100 100 96 66 5 100 100 74 5 5 5 5 5 5 5 89 97 94 6 61 7 5 11 9 5 47 2 1 1 2 0 0
100 100 100 100 100 100 100 100 100 100 100 100 100 100 100 100 100 100 100 30 95 100 94 26 5 5 5 15 96 98 100 100 100 38 78 5 5 85 5 37 2 0 2 1 4 1 0
100 100 100 100 100 100 100 100 100 100 100 100 100 100 100 100 100 100 100 62 76 100 90 29 11 5 36 77 22 7 27 5 16 22 100 29 32 24 78 57 5 0 0 3 5 3 5
100 100 100 100 100 100 100 100 100 100 100 100 100 100 100 100 100 100 100 68 67 95 98 22 36 44 49 5 50 18 6 3 9 5 74 100 99 64 6 42 4 0 0 0 0 0 4
100 100 100 100 100 100 100 100 100 100 100 100 100 100 100 100 100 100 100 100 45 77 100 11 8 5 25 67 20 5 5 5 5 4 5 32 40 50 79 93 66 0 3 0 0 0 0
100 100 100 100 100 100 100 100 100 100 100 100 100 100 100 100 100 98 100 70 97 100 100 58 7 5 5 8 5 5 5 5 5 5 3 4 1 4 2 4 0 0 3 4 0 0 2

GFSGBSN_prec_cloud_081.txt.gz
Cloud_Cover
100 100 100 100 100 100 100 100 100 100 100 100 100 100 100 100 100 100 100 100 100 100 58 93 9 4 4 23 22 0 0 0 0 1 100 100 100 84 100 57 69 42 2 77 100 100 100
100 100 100 100 100 100 100 100 100 100 100 100 100 100 100 100 100 100 100 100 100 100 98 48 14 5 17 56 0 0 5 3 0 3 90 100 99 100 100 92 12 5 5 100 100 100 100
100 100 100 100 100 100 64 60 100 93 100 100 100 100 100 100 100 100 100 100 100 100 100 29 16 86 59 17 5 5 5 5 0 3 38 100 100 100 100 56 5 8 23 86 100 100 100
100 100 98 100 100 100 72 100 98 100 100 100 100 100 100 100 100 100 100 100 100 100 100 59 27 98 12 5 13 94 84 33 0 10 94 100 100 100 100 86 10 6 77 100 100 100 100
100 100 100 94 100 90 68 9 5 11 100 100 100 100 100 100 98 100 100 81 100 100 100 22 65 26 28 6 61 11 30 5 3 85 100 100 100 100 100 71 44 97 100 100 100 100 100
100 100 100 100 63 24 18 84 81 6 46 100 100 100 100 100 100 100 100 100 100 81 7 13 16 76 10 28 6 89 83 71 100 91 100 64 65 100 100 97 83 88 100 100 100 100 100
99 100 100 100 100 96 5 22 100 2 77 9 65 100 100 100 100 100 100 100 100 30 5 5 3 4 5 3 0 5 13 4 90 93 100 100 100 100 100 56 74 100 100 100 100 100 100
52 100 100 100 100 98 87 51 100 41 4 52 67 100 100 100 100 100 100 100 100 72 82 5 5 4 4 6 28 5 25 100 100 95 100 100 100 100 100 100 100 100 100 100 100 100 100
96 100 100 100 100 35 91 74 58 92 4 39 93 100 100 100 100 100 100 100 100 70 99 5 2 4 4 58 100 100 100 100 100 96 100 100 100 100 92 100 100 100 100 100 100 100 100
100 100 100 100 100 100 100 100 79 52 72 64 100 100 100 100 100 100 100 100 100 100 100 5 3 5 4 7 92 100 100 97 93 100 100 100 100 100 100 100 99 100 100 100 100 100 100
100 100 95 100 97 98 100 100 100 50 72 65 100 100 100 100 100 100 100 100 100 100 48 3 3 5 5 5 80 100 100 100 100 100 100 100 100 100 100 100 100 100 100 100 100 100 100
100 100 100 100 100 3 4 5 99 18 5 23 100 100 100 100 100 100 100 100 100 100 12 3 5 3 5 5 88 100 98 100 98 100 100 100 100 100 100 100 62 100 100 100 100 100 100
100 75 86 100 25 1 7 5 8 12 56 85 100 100 100 100 100 100 100 100 100 100 5 3 4 5 5 5 5 5 55 100 100 100 100 100 100 100 100 100 100 99 90 100 100 100 100
49 8 5 4 5 5 5 4 2 18 24 66 100 100 100 100 100 100 100 100 100 93 5 4 3 4 5 5 5 5 47 91 31 100 100 100 100 94 100 100 100 100 100 100 100 100 100
94 98 7 5 5 5 5 5 66 69 33 64 100 100 100 100 100 100 100 100 100 61 5 5 5 5 5 5 4 5 15 47 66 11 90 95 97 78 98 100 100 100 100 100 100 100 94
85 100 35 5 5 5 5 5 93 100 100 96 96 100 100 100 100 100 100 100 100 54 5 0 4 0 4 4 4 5 11 78 14 5 5 21 21 82 63 82 100 100 100 100 100 100 100
86 98 100 78 5 5 5 88 100 100 100 100 100 100 100 100 100 100 78 100 98 42 5 0 5 3 2 2 0 4 24 5 48 19 5 7 4 6 24 45 100 100 100 100 100 100 100
80 100 100 100 21 5 38 100 100 100 100 100 100 100 100 100 100 100 92 100 77 35 5 4 5 5 5 4 0 5 5 2 5 5 5 0 5 66 4 4 16 100 100 100 100 73 98
100 100 100 100 99 5 100 100 100 100 100 100 100 100 100 100 100 100 100 100 90 42 7 24 40 5 5 2 2 1 5 3 5 5 7 4 3 31 6 3 0 4 57 90 29 26 100
99 99 100 100 92 15 67 100 100 100 100 100 100 100 100 100 100 100 100 99 62 36 46 66 100 56 54 5 5 5 5 13 28 7 5 5 1 0 15 1 1 0 0 54 100 60 94
94 100 70 100 100 100 87 100 100 100 100 100 100 100 100 100 100 100 100 93 97 100 100 100 99 95 20 5 5 5 5 78 30 12 5 5 4 5 5 5 5 0 2 0 3 91 22
100 100 100 100 94 90 15 74 100 100 100 100 100 100 100 100 100 100 100 65 73 90 100 52 5 100 100 43 2 5 5 97 9 36 9 5 51 5 5 5 5 5 5 2 2 2 60
100 88 97 43 34 98 100 100 100 100 100 100 100 100 100 100 100 100 100 38 90 88 82 5 31 76 99 28 5 5 17 49 67 78 100 64 5 5 5 5 0 4 0 0 0 0 0
94 57 42 73 100 99 100 100 100 100 100 100 100 100 100 100 100 100 100 30 96 5 6 6 88 5 19 93 12 27 69 100 53 78 78 10 5 5 18 5 15 0 0 0 0 0 0
23 86 24 99 100 100 100 100 100 100 100 100 100 100 100 100 100 100 97 5 100 42 5 45 57 100 47 5 14 87 100 89 92 8 82 88 14 78 13 44 3 0 0 0 0 0 0
94 47 53 83 100 100 100 100 100 100 100 100 100 100 100 100 100 100 98 99 100 81 57 28 33 100 95 78 94 52 39 41 34 74 100 45 81 91 100 21 5 0 0 0 0 0 0
82 14 60 100 100 100 100 100 100 100 100 100 100 100 100 100 100 100 89 100 100 100 62 34 83 91 99 38 96 100 15 5 15 13 33 87 100 91 96 79 4 0 0 0 1 0 0
56 39 56 100 100 100 100 100 100 100 100 100 100 100 100 100 100 100 95 100 100 100 93 41 54 89 99 99 66 8 5 5 5 5 5 6 98 99 100 100 22 0 0 0 0 0 0
24 100 99 100 100 100 100 100 100 100 100 100 100 100 100 100 100 100 100 100 100 100 100 76 53 31 13 54 11 42 94 7 5 5 46 8 3 5 5 4 5 2 0 0 0 0 0

GFSGBSN_prec_cloud_084.txt.gz
Cloud_Cover
100 100 100 100 100 100 100 100 100 70 97 99 100 100 100 100 100 100 100 100 100 100 100 100 88 78 38 61 8 0 4 0 0 0 0 5 74 100 97 65 78 99 86 32 99 100 100
100 100 100 100 100 100 100 100 100 79 38 56 100 100 100 100 100 100 100 100 100 99 100 37 100 78 77 97 3 1 0 5 5 0 3 22 100 100 100 15 100 100 64 54 61 100 100
100 100 100 100 100 100 100 100 100 100 100 98 99 92 99 100 100 100 100 100 100 100 100 100 99 45 99 42 5 5 5 53 5 0 0 8 91 100 81 88 100 100 91 100 100 100 100
100 100 100 100 66 49 95 100 100 100 100 100 100 84 100 100 100 100 100 100 100 100 100 100 73 80 100 5 5 15 59 5 5 2 3 9 100 100 100 5 53 100 100 100 100 100 100
100 100 100 100 100 100 79 31 100 100 100 100 100 3 100 100 100 100 100 77 100 100 100 100 98 100 72 0 4 17 69 5 5 3 100 82 89 100 98 100 80 42 100 100 100 100 100
48 100 100 100 100 100 100 100 23 97 100 36 100 68 100 100 100 100 100 100 100 100 100 100 100 99 4 4 1 5 5 28 4 61 95 93 100 100 100 100 70 96 100 100 100 100 100
100 100 100 100 100 100 82 100 5 28 91 0 5 100 100 100 100 100 100 100 100 100 100 100 98 99 5 3 5 0 1 5 75 100 100 100 100 100 100 98 59 89 100 100 100 100 100
100 100 100 100 100 100 100 100 100 45 61 84 4 94 100 100 100 100 100 100 100 100 100 100 100 81 5 6 26 26 18 84 99 100 94 100 100 100 100 100 35 100 100 100 100 100 100
100 98 100 100 100 100 100 100 100 92 95 2 0 100 100 100 100 100 100 100 100 100 100 100 100 1 4 8 72 91 94 100 91 100 100 100 100 100 100 60 94 100 100 100 100 100 100
100 100 100 100 100 100 100 100 100 100 77 61 1 44 100 100 100 100 100 100 100 100 100 100 42 4 5 5 98 94 86 86 86 99 100 100 100 100 51 92 86 100 100 100 100 100 100
100 99 100 98 100 99 37 100 89 100 81 100 29 3 100 100 100 100 100 100 100 100 100 97 3 2 5 8 16 100 100 100 99 87 60 100 100 100 100 100 100 100 100 100 100 100 100
100 100 100 100 100 51 90 73 60 12 8 97 69 37 100 100 100 100 100 100 100 100 100 20 4 4 5 6 16 72 100 100 100 100 100 100 100 100 100 100 100 100 100 100 100 100 100
100 100 100 100 97 22 26 85 38 5 5 1 3 23 100 100 100 100 100 100 100 100 100 5 4 5 5 6 78 99 90 98 100 100 100 100 100 100 100 100 100 100 100 100 100 100 100
100 100 100 100 54 97 87 64 7 5 3 1 91 48 100 100 100 100 100 100 100 100 100 2 5 5 5 5 5 81 100 99 100 100 100 100 100 100 100 100 100 100 100 100 100 87 100
100 100 100 42 50 74 55 6 6 5 28 99 100 90 100 100 100 100 100 100 100 100 81 5 5 1 5 4 13 100 92 87 30 7 30 98 100 100 100 100 100 100 100 100 100 100 100
100 100 93 5 35 44 50 94 6 93 100 100 100 100 100 97 100 100 100 100 100 100 2 1 1 0 5 5 3 5 41 24 5 21 5 33 87 71 100 92 100 100 100 100 98 100 100
100 100 39 25 45 6 89 80 100 100 100 100 100 100 100 100 100 100 100 100 100 92 1 0 0 3 1 5 0 5 5 5 5 5 5 5 4 89 33 100 97 100 100 98 100 100 100
100 82 13 86 6 9 77 100 100 100 100 100 100 100 100 100 100 100 100 100 100 27 4 0 2 0 0 0 0 0 5 9 5 5 41 2 5 79 8 23 98 100 100 100 100 100 100
100 21 52 83 23 25 86 99 100 100 100 100 100 100 100 100 100 100 100 100 99 8 5 1 4 5 5 0 0 0 0 3 5 0 0 0 3 32 5 54 8 88 20 5 5 98 100
75 70 36 100 99 63 82 100 94 100 100 100 100 100 100 100 100 100 100 100 68 5 5 0 5 5 5 5 1 3 0 3 5 5 5 0 4 0 5 4 78 5 45 27 54 6 52
92 100 100 100 99 100 100 69 99 100 100 100 100 100 100 100 100 100 100 100 7 14 39 6 62 64 14 11 13 5 5 5 5 5 5 5 4 2 5 5 7 5 35 5 0 0 4
100 100 100 100 100 100 100 100 100 100 100 100 100 100 100 100 100 100 100 67 46 5 5 68 96 94 31 5 2 5 3 4 3 5 14 5 54 5 5 5 4 1 3 0 5 9 5
100 100 100 97 100 100 100 100 70 100 100 100 100 100 100 100 100 100 100 8 82 100 97 36 99 64 100 100 74 5 5 5 5 5 5 5 5 5 5 5 4 1 0 0 0 0 0
100 100 99 70 15 89 100 98 100 100 100 100 100 100 100 100 100 97 100 32 65 100 100 30 50 67 69 61 42 5 5 35 26 5 94 100 70 29 5 5 5 0 0 0 0 0 0
100 100 78 47 100 100 100 100 100 100 100 100 100 100 100 100 87 64 73 7 96 100 100 11 35 62 88 85 64 58 85 65 99 91 91 100 88 100 7 40 1 0 0 0 0 0 0
100 64 80 100 100 100 100 100 100 100 100 100 100 100 100 100 94 38 70 94 97 100 97 97 64 62 99 92 99 92 45 5 16 89 100 92 91 84 99 20 4 0 0 0 0 0 0
100 81 71 93 100 100 100 100 100 100 100 100 100 100 100 100 43 6 83 100 100 100 98 100 99 100 95 84 100 100 15 5 11 5 52 75 100 100 100 83 4 0 0 0 1 0 0
99 44 32 90 100 100 100 100 100 100 100 100 100 100 100 100 69 20 81 98 100 100 59 57 100 100 95 96 95 59 17 5 5 5 5 5 11 63 99 87 38 5 1 5 1 1 3
17 98 53 100 100 100 100 100 100 100 100 100 100 100 98 100 100 96 98 87 100 78 100 82 73 84 67 41 72 50 63 25 5 32 27 69 5 5 11 50 54 5 5 5 5 5 6

GFSGBSN_prec_cloud_087.txt.gz
Cloud_Cover
100 100 100 100 100 100 100 100 100 100 100 93 100 91 86 100 100 100 100 100 100 100 100 97 100 100 95 94 35 5 5 5 0 0 0 0 8 43 100 53 78 7 0 39 100 66 12
100 100 100 100 100 91 100 100 100 100 100 100 90 100 100 100 100 100 100 100 100 100 100 94 100 100 88 99 72 7 5 5 5 5 3 0 18 68 100 100 100 96 91 67 100 58 26
100 100 100 50 100 94 14 17 98 100 100 100 100 100 100 100 100 100 100 100 100 98 100 100 100 100 96 65 6 5 5 5 5 5 5 0 5 46 100 96 76 89 100 100 99 53 100
100 100 100 94 87 34 30 94 7 5 99 100 5 88 100 39 100 100 100 99 100 100 99 100 97 100 100 92 11 56 6 100 5 59 7 6 32 66 100 100 96 98 100 100 100 12 56
100 100 100 86 100 100 99 70 18 5 6 100 5 11 98 88 100 100 100 100 100 100 92 100 100 100 100 80 38 5 5 9 5 5 5 90 37 80 100 100 99 100 89 100 42 67 31
100 100 100 100 100 100 100 45 24 58 68 92 63 18 100 37 100 100 100 100 100 100 98 100 100 100 95 100 34 0 0 5 5 5 5 81 89 100 100 100 94 100 87 99 89 88 100
100 100 100 100 100 100 100 99 98 100 32 92 97 34 100 100 100 100 100 100 100 67 98 100 100 100 100 68 5 8 2 5 38 51 100 90 100 100 100 99 100 99 100 100 100 100 100
100 100 100 100 100 100 100 100 100 100 100 98 5 20 96 100 100 100 100 100 100 96 100 100 100 100 100 20 5 100 11 53 92 68 63 92 100 100 100 100 100 100 92 100 100 100 100
100 100 100 100 100 98 97 100 100 100 100 100 100 100 100 68 100 100 100 100 100 100 100 100 100 100 100 5 36 97 80 99 68 93 100 100 61 100 100 100 100 100 100 100 100 99 100
100 100 100 100 100 100 100 100 100 94 100 66 100 100 100 100 100 99 100 100 100 100 100 100 100 100 20 5 23 96 88 79 80 98 97 96 74 100 100 100 100 100 100 100 100 100 100
100 100 100 100 100 100 76 99 44 3 4 1 5 100 100 71 100 100 100 100 100 100 100 100 100 100 27 5 8 90 98 94 93 95 91 74 66 100 86 100 100 100 100 100 100 100 100
100 100 100 100 100 86 55 83 5 5 4 1 1 24 100 99 100 100 100 100 100 100 100 100 100 100 5 5 17 99 100 100 100 100 100 100 91 98 100 100 100 100 100 100 100 100 100
100 100 68 99 87 49 16 5 5 5 4 5 4 2 41 62 87 100 100 100 100 100 100 100 100 97 5 10 24 80 99 99 100 99 100 100 100 100 100 100 100 100 100 100 100 100 100
100 100 97 100 100 5 10 5 8 100 76 5 9 31 17 5 100 100 100 100 100 100 100 100 100 7 4 5 5 100 96 100 100 95 100 100 100 100 98 100 100 100 100 100 100 100 100
100 95 100 93 94 78 33 80 100 100 98 100 100 100 86 52 100 100 100 100 100 100 100 100 94 5 5 4 18 100 100 72 58 100 100 100 100 100 100 100 100 59 100 100 64 49 50
100 74 95 48 5 5 7 100 100 100 100 100 100 100 100 98 100 100 100 100 100 100 100 100 91 0 5 5 57 36 96 37 5 40 98 79 79 100 100 100 100 100 100 100 100 96 89
100 100 54 84 17 9 94 100 100 100 100 100 100 100 100 100 100 100 100 100 100 100 100 100 10 2 1 5 65 71 5 5 5 6 6 5 26 100 89 100 100 100 100 90 82 51 86
100 88 77 100 33 79 100 100 100 100 100 100 100 100 100 100 100 100 100 100 100 100 100 97 2 0 0 2 17 37 5 5 5 5 0 2 5 72 16 8 32 44 99 62 32 93 100
100 64 48 100 36 100 79 100 100 57 90 100 100 100 100 100 100 100 100 100 100 100 100 12 5 1 0 5 3 1 5 5 5 5 0 0 5 30 6 5 4 84 75 100 71 100 100
100 19 100 100 100 100 65 98 58 80 100 100 100 100 100 100 100 100 100 100 100 100 100 87 5 4 0 3 0 2 5 5 5 4 0 0 4 0 5 2 4 0 40 22 20 100 5
44 5 93 100 100 100 64 54 39 100 100 97 100 100 100 100 100 100 100 100 100 100 90 99 30 5 2 3 4 5 5 5 5 5 2 0 4 5 5 5 4 0 0 70 6 26 1
5 68 100 100 80 100 100 96 74 98 100 100 100 100 100 100 100 100 100 100 100 100 98 98 78 5 5 2 2 5 0 2 0 5 5 3 40 5 5 1 2 0 0 0 0 2 5
5 100 86 62 13 83 97 100 100 99 100 100 100 100 100 100 100 100 100 100 91 79 100 70 92 64 63 20 5 5 5 4 3 5 5 5 5 5 5 5 0 0 0 0 0 0 0
60 100 9 20 5 52 24 95 98 100 100 100 100 100 96 94 100 100 98 91 100 100 96 100 100 99 33 13 5 5 5 6 5 5 5 5 5 5 5 1 3 0 0 0 0 0 0
92 100 24 43 81 86 84 97 100 98 99 100 100 100 100 100 100 98 86 85 100 92 91 94 100 75 59 90 65 22 55 24 36 88 76 86 81 27 5 36 0 0 0 0 0 0 0
77 99 95 99 100 100 100 91 17 100 64 56 98 100 98 79 67 90 98 79 100 100 75 100 88 29 98 92 72 5 26 5 5 72 100 100 94 47 5 13 1 0 0 0 0 0 0
40 23 78 99 76 97 84 100 96 100 99 100 100 100 92 51 68 30 7 15 83 96 67 100 99 93 75 62 12 10 5 5 5 5 86 87 100 59 98 62 4 0 0 0 0 0 0
100 10 54 100 91 100 100 100 40 77 91 100 100 81 31 41 22 16 76 100 73 47 5 16 88 80 57 99 98 28 5 5 5 5 10 5 16 19 58 18 5 5 12 5 0 5 3
100 16 43 100 100 100 100 42 5 100 100 100 99 52 86 100 100 77 88 100 67 80 58 65 51 53 32 19 5 7 17 7 7 23 5 5 17 41 5 17 5 5 5 5 4 5 5

GFSGBSN_prec_cloud_090.txt.gz
Cloud_Cover
100 100 100 100 100 97 62 68 100 57 100 100 100 100 100 100 100 100 100 100 82 100 5 7 5 6 90 100 96 5 19 5 34 5 5 5 5 12 99 59 100 100 57 76 7 5 11
90 100 100 100 100 100 94 100 100 93 98 100 100 19 99 93 100 100 100 100 100 65 76 68 5 44 95 94 100 54 5 5 5 5 5 5 5 46 100 62 99 94 91 8 87 5 4
100 100 92 100 100 100 100 100 100 100 60 100 98 6 5 89 72 100 100 100 100 90 11 13 22 91 97 100 100 78 39 5 5 8 39 6 2 37 89 76 50 100 100 75 71 5 17
100 100 100 100 100 100 100 100 100 100 100 100 100 100 100 90 89 60 100 100 100 82 100 99 5 65 64 12 88 75 38 5 38 95 13 65 5 38 100 89 98 100 98 99 100 95 74
100 100 100 100 100 100 100 100 100 100 100 100 100 100 100 95 99 95 100 100 100 100 100 66 42 6 22 62 100 68 5 7 79 12 5 5 68 82 100 100 100 100 99 100 100 100 99
100 95 100 100 100 100 100 100 100 100 82 51 43 62 100 100 30 98 100 100 100 62 100 79 99 68 22 100 98 33 5 7 42 89 34 63 100 100 100 100 100 100 100 100 100 100 100
100 100 100 100 100 100 100 100 100 100 100 90 3 5 5 98 100 100 100 100 96 100 100 100 46 62 100 100 68 52 5 5 37 51 93 95 100 75 100 100 96 100 100 100 100 100 100
100 100 100 100 100 100 100 100 100 100 100 100 23 0 0 15 100 100 100 100 100 100 100 100 64 100 100 86 10 10 30 63 96 88 92 78 94 97 86 100 94 100 100 100 100 100 100
100 100 100 100 100 100 100 78 86 36 85 90 19 3 1 5 100 100 100 100 100 100 100 100 100 100 100 100 51 32 44 100 91 100 81 100 93 100 100 100 100 100 100 100 100 100 100
100 100 100 100 100 100 100 100 33 98 28 5 5 5 4 22 94 100 100 100 97 61 100 100 100 100 100 100 90 92 86 74 81 83 67 80 98 100 100 100 100 100 100 100 100 100 100
100 100 100 100 100 69 100 11 40 78 7 13 5 5 5 7 96 100 100 100 100 98 100 100 100 100 100 100 68 92 95 61 91 97 64 100 100 96 82 98 100 100 100 100 100 100 100
100 100 100 100 97 98 88 55 4 7 80 100 55 4 1 1 97 100 100 100 100 100 99 100 100 100 100 98 42 100 100 100 100 100 100 100 98 100 100 100 100 100 100 100 100 100 100
100 100 100 100 91 100 18 32 5 74 100 100 100 84 12 59 76 100 100 100 100 99 100 100 100 100 100 12 14 54 89 100 100 100 100 100 100 100 100 100 100 99 100 100 100 99 100
100 100 100 100 100 46 8 5 37 100 100 100 100 100 100 72 86 100 100 100 99 99 100 100 100 100 57 5 5 30 96 100 100 100 100 100 100 100 100 100 100 100 100 100 100 100 100
100 100 100 100 100 49 5 34 100 100 100 100 100 100 100 100 99 100 100 100 99 100 100 100 100 100 6 5 10 81 100 93 87 94 100 100 100 100 100 100 100 100 100 100 100 100 100
100 100 100 99 100 41 5 92 100 99 99 100 100 100 100 92 92 100 100 100 100 100 100 100 100 100 22 5 43 66 100 98 22 9 18 83 100 100 100 98 100 100 100 100 100 100 100
100 100 99 5 100 88 5 96 90 95 100 100 100 100 100 94 100 100 100 100 100 100 100 100 100 51 35 28 100 40 9 87 98 35 17 48 100 100 100 63 59 64 83 13 65 96 100
100 100 7 14 100 100 42 35 52 47 100 100 100 100 100 100 100 100 100 100 100 100 100 100 96 0 3 62 27 13 6 5 37 7 18 2 39 100 100 98 49 22 13 5 6 28 20
100 33 5 61 99 55 85 46 5 58 100 100 100 100 100 100 100 100 100 100 100 100 100 100 5 0 0 70 7 17 5 48 40 5 4 0 3 35 99 96 82 9 13 47 14 6 7
100 5 45 93 5 62 36 5 4 65 100 100 100 100 100 100 100 100 100 100 100 100 100 44 55 5 0 5 2 4 5 5 5 0 0 0 2 0 2 50 56 8 5 3 20 0 100
83 5 100 34 5 6 5 2 5 8 30 49 84 100 100 100 100 100 100 100 100 100 100 58 91 5 1 5 6 4 4 5 3 0 0 0 5 5 5 5 5 5 4 0 0 0 6
6 8 5 16 5 5 5 5 5 13 5 65 100 100 100 100 100 100 100 100 100 100 32 66 76 83 6 2 1 5 3 1 4 0 0 0 5 5 5 3 0 0 0 0 0 0 2
5 6 5 7 5 5 7 5 5 27 29 73 100 100 99 100 100 100 100 100 100 99 7 88 96 14 5 5 1 0 0 0 0 2 0 0 4 4 4 0 0 0 0 0 0 0 0
5 7 5 5 5 54 82 99 59 87 56 100 100 100 99 98 100 100 100 100 84 83 13 65 70 87 12 5 5 5 5 5 5 0 0 0 1 5 5 1 0 0 0 0 0 0 0
5 5 5 5 5 87 99 70 96 99 95 55 100 100 100 100 100 97 98 49 61 25 78 73 64 80 73 14 20 25 5 5 36 5 5 3 5 5 5 0 0 0 0 0 0 0 0
23 5 5 5 8 100 100 100 95 97 77 21 57 100 100 87 63 94 100 61 83 100 57 66 98 60 79 66 18 5 5 5 18 76 100 69 7 5 5 3 0 0 0 0 0 0 0
99 18 17 5 23 6 62 100 99 13 93 27 95 100 94 74 9 91 32 21 86 99 73 33 100 99 99 7 6 5 5 5 5 11 70 90 100 49 19 5 1 0 0 0 0 0 0
100 28 5 5 22 5 31 20 13 27 99 73 92 16 5 14 8 7 45 76 26 83 30 92 66 96 73 73 28 5 2 5 5 5 14 21 38 40 34 16 4 2 1 0 0 0 0
100 100 93 5 5 33 5 5 92 36 59 74 65 34 5 5 5 62 81 35 46 6 5 5 5 5 6 5 5 5 4 5 4 5 5 5 5 5 5 5 5 32 34 9 5 5 5

GFSGBSN_prec_cloud_093.txt.gz
Cloud_Cover
100 100 100 100 100 100 100 93 100 98 100 100 100 100 100 100 100 100 94 100 100 100 10 42 8 5 19 15 4 5 1 1 0 3 5 26 35 66 76 31 65 85 5 60 68 100 55
100 100 100 100 100 100 100 100 100 100 100 100 100 100 100 100 100 100 100 100 100 100 84 8 71 5 87 56 4 0 0 0 2 4 10 56 96 54 62 9 99 78 56 40 97 100 99
100 100 100 100 100 100 100 100 100 100 100 100 100 100 100 100 100 100 100 100 100 100 98 99 54 66 100 33 27 4 0 0 4 4 82 100 100 69 71 94 72 100 58 88 87 54 78
100 100 100 100 100 100 100 100 100 100 100 100 100 100 100 100 100 100 100 100 100 100 100 38 92 97 93 82 100 5 0 9 28 8 98 96 100 69 81 80 16 100 91 95 14 66 71
100 100 100 100 100 100 100 100 100 100 100 100 100 100 100 100 100 100 100 100 100 100 100 100 80 100 100 83 93 3 4 5 100 44 84 90 36 28 94 82 100 100 65 78 97 93 97
100 100 100 100 100 100 100 100 100 100 100 99 89 100 100 100 100 100 100 100 100 100 100 98 87 98 91 100 57 3 5 5 83 100 100 71 100 100 99 100 97 98 92 79 96 100 100
100 100 100 100 100 100 100 100 100 94 11 42 86 3 0 5 100 100 100 100 78 100 100 90 42 83 100 100 24 4 5 54 32 49 100 72 98 87 99 92 99 53 100 54 72 64 88
100 100 100 100 100 100 100 100 32 5 6 5 6 23 0 3 69 100 100 100 99 59 81 100 73 95 100 100 98 66 54 64 54 63 58 100 77 100 91 97 88 99 68 100 100 100 100
100 100 100 100 100 100 96 88 37 78 82 5 5 6 5 0 0 79 100 100 100 100 100 99 18 100 100 100 94 100 55 46 46 99 100 100 91 92 94 100 100 80 91 100 89 82 99
100 100 100 100 100 100 100 100 100 100 17 72 100 100 96 4 2 89 92 100 100 100 100 97 87 100 100 100 95 79 82 57 98 100 100 83 60 59 95 100 100 80 90 100 98 100 100
100 100 100 100 100 100 100 100 100 35 6 100 100 100 100 1 21 85 98 100 100 100 100 97 100 100 100 100 100 100 28 39 98 100 78 100 100 100 100 98 91 79 100 100 100 100 100
100 100 100 100 100 100 100 100 50 5 82 100 100 100 97 7 82 35 91 100 100 100 98 100 100 100 100 100 100 100 100 100 96 100 100 100 100 100 87 25 100 100 100 100 100 100 100
100 100 100 100 100 100 100 83 7 66 100 92 71 94 89 15 58 39 100 100 100 100 97 100 100 100 100 100 100 87 96 100 100 100 100 100 100 100 100 100 100 100 100 100 100 100 100
100 100 100 100 100 100 98 28 26 100 100 100 100 100 78 81 98 100 100 100 100 100 100 100 100 100 100 100 100 100 100 100 100 100 100 100 100 100 100 100 100 100 100 100 100 100 100
100 100 100 100 100 90 100 33 91 100 100 100 100 100 100 82 100 100 100 100 100 100 100 100 100 100 100 59 55 100 100 100 100 100 100 100 100 100 100 100 100 100 100 100 100 100 99
100 100 88 29 40 13 77 57 94 100 100 100 100 100 100 100 100 100 100 100 100 100 100 100 100 100 55 63 100 100 100 54 94 100 100 96 100 100 100 100 100 100 91 100 100 100 100
100 31 5 8 5 5 7 32 100 100 100 100 96 100 100 99 78 100 93 100 100 100 100 100 100 10 85 85 99 98 50 31 7 56 100 100 100 100 100 100 100 100 61 100 100 100 100
97 4 5 26 5 5 5 100 100 100 100 29 80 100 100 98 100 100 100 100 100 100 100 100 98 5 84 47 89 95 79 74 44 22 100 100 100 100 100 100 100 95 81 100 100 100 100
10 4 51 5 5 5 23 100 95 95 78 93 100 100 98 94 84 99 100 100 100 100 100 100 56 68 10 97 32 66 16 54 5 7 100 100 100 98 77 78 56 30 95 100 100 69 88
1 3 5 5 5 5 8 4 5 5 9 34 59 100 100 100 99 100 79 94 100 100 100 30 25 100 100 86 5 26 12 51 5 0 0 99 100 98 38 30 38 38 100 100 80 25 5
0 3 5 5 5 5 5 5 5 1 0 63 70 100 100 100 89 45 35 100 95 100 32 46 6 74 9 5 5 7 5 4 2 0 0 8 99 100 100 67 27 5 44 94 78 32 2
0 2 5 5 5 5 5 5 5 4 4 51 99 97 100 99 100 100 100 100 100 100 84 33 72 5 14 20 14 0 5 3 2 1 0 0 4 23 100 100 5 5 5 86 14 0 0
1 2 5 5 5 5 5 5 5 5 18 63 88 100 98 100 100 100 100 100 72 42 8 12 50 92 21 2 3 0 0 1 2 4 4 4 4 5 3 3 3 4 4 2 0 0 0
100 39 5 4 5 6 93 72 40 32 8 50 37 71 97 100 100 100 100 99 73 92 69 69 5 85 5 5 3 5 5 5 5 5 3 5 4 4 4 1 3 0 0 0 0 0 0
100 100 82 5 6 25 100 100 81 60 36 85 32 56 100 91 98 75 98 16 6 35 6 42 20 56 23 9 68 31 5 3 5 5 4 5 5 5 5 0 0 0 0 0 0 0 0
100 100 100 100 5 95 100 100 94 19 38 93 45 56 56 100 63 60 86 67 88 63 22 37 13 24 23 33 35 73 10 31 5 4 4 5 5 4 4 2 0 0 0 0 0 0 0
100 100 100 100 98 95 100 100 16 6 5 32 12 54 78 98 15 14 22 80 73 60 94 76 40 49 5 36 65 18 27 1 7 5 5 5 5 5 5 4 0 0 0 0 0 0 0
100 100 100 100 100 100 53 6 61 5 68 32 5 5 5 13 5 5 5 5 16 12 46 22 64 5 10 21 45 22 5 4 2 6 5 31 16 7 5 5 2 0 0 0 0 0 0
100 100 100 100 100 100 87 19 12 6 6 96 87 78 6 6 5 5 16 5 5 5 5 5 22 11 12 12 5 7 8 1 4 5 0 4 5 8 5 4 0 0 0 0 0 0 0

GFSGBSN_prec_cloud_096.txt.gz
Cloud_Cover
100 100 100 100 100 100 100 100 100 100 100 100 100 100 100 99 95 100 100 100 100 100 100 100 100 17 7 45 5 4 0 0 1 0 0 4 24 52 8 25 18 61 6 5 5 5 2
100 80 100 100 100 100 100 100 100 100 100 100 100 100 100 100 100 100 100 100 100 100 100 100 100 77 7 45 5 4 0 0 0 7 2 6 78 96 5 4 3 4 2 4 4 21 8
100 100 100 100 100 100 100 100 100 100 100 100 100 100 100 100 100 100 100 100 100 100 100 100 100 77 88 59 5 5 0 0 0 2 25 100 100 88 14 39 5 5 5 4 1 3 3
100 100 100 100 100 100 100 100 100 100 100 100 100 100 100 100 100 100 100 100 100 100 100 100 100 87 100 5 12 11 0 1 3 3 14 100 100 99 75 8 3 5 28 70 0 4 2
100 100 100 100 100 100 100 100 100 100 100 81 34 27 29 67 100 100 100 100 100 100 100 100 100 100 87 5 5 14 1 51 98 100 95 100 100 64 57 58 81 69 47 51 14 16 6
100 100 100 100 100 100 100 100 64 43 5 4 0 1 0 0 23 70 100 100 100 100 100 100 100 100 16 5 5 5 5 6 13 100 89 86 99 97 100 89 96 71 100 99 100 66 6
100 100 100 100 100 100 100 100 99 99 100 58 4 6 65 100 8 77 100 100 100 100 100 100 100 93 11 12 5 4 5 10 33 98 84 56 83 73 12 5 70 79 100 100 87 52 100
100 100 100 100 100 100 100 100 92 100 100 100 78 100 30 6 5 76 100 100 100 100 100 99 100 100 46 90 21 71 67 83 77 100 100 98 100 5 37 100 97 89 98 89 100 44 23
100 100 100 100 100 100 100 100 100 100 100 92 100 36 9 100 14 34 100 100 100 100 100 97 100 100 90 92 30 100 100 55 100 100 100 92 18 84 99 70 93 100 100 84 100 91 70
100 100 100 100 100 100 100 100 100 100 100 100 26 18 50 8 15 86 38 100 100 100 100 77 100 99 94 65 100 67 82 98 99 83 36 35 5 24 100 97 100 100 80 94 100 100 100
100 100 100 100 100 100 100 100 100 100 98 5 62 55 100 5 1 34 94 100 100 100 100 100 98 80 80 100 99 54 60 100 96 62 100 100 77 99 100 71 96 95 61 100 100 100 100
100 100 100 100 100 100 93 85 67 8 15 66 38 42 93 72 84 58 100 100 100 100 100 100 86 98 100 100 100 100 100 31 77 91 87 100 95 47 88 72 99 100 100 100 100 100 100
100 100 44 5 53 66 6 100 32 27 36 100 100 100 89 69 33 68 100 100 100 100 100 100 100 100 100 100 100 73 91 100 100 100 100 100 100 73 94 95 100 100 100 100 100 100 100
100 51 2 40 5 5 7 19 72 100 100 100 50 53 63 88 77 66 100 100 100 100 100 100 100 100 100 98 100 100 100 100 100 100 100 100 100 100 100 100 100 100 100 100 100 100 100
98 5 5 9 93 15 43 100 100 100 100 100 100 100 100 75 75 100 100 100 100 100 100 100 100 100 100 100 100 100 100 100 100 100 100 100 96 100 100 100 97 100 100 100 100 100 100
5 4 5 90 51 4 33 100 100 100 89 68 80 100 100 69 100 100 100 100 100 100 100 100 97 91 99 90 100 100 100 99 98 100 100 100 100 100 100 100 100 100 100 98 100 100 100
3 2 5 79 1 1 40 79 87 38 5 5 92 98 100 26 70 86 100 100 100 100 100 100 97 100 100 100 100 96 49 75 99 100 100 100 100 100 100 100 100 100 100 92 99 100 100
5 0 4 3 4 0 2 5 42 44 79 62 84 78 98 94 78 100 100 100 100 100 100 100 73 94 100 100 94 33 31 12 100 72 100 100 100 100 100 100 99 100 100 100 100 100 100
100 8 7 8 0 0 5 8 5 5 83 25 100 100 100 100 90 93 100 100 91 96 100 100 54 76 87 73 73 85 13 58 93 100 100 100 100 100 100 100 74 97 100 100 100 100 100
99 100 4 4 0 1 5 5 0 2 2 15 100 100 100 100 100 100 100 100 98 73 34 38 99 100 100 19 14 5 5 9 13 100 100 100 100 100 100 100 31 29 67 100 92 100 100
100 100 15 6 4 30 5 5 2 0 0 20 38 81 98 76 38 86 80 97 32 62 24 38 81 91 57 39 5 5 4 2 7 35 100 96 57 46 55 62 65 46 43 100 100 18 16
100 100 100 15 51 2 9 10 29 0 4 27 95 78 75 100 100 100 100 44 47 94 48 24 5 8 5 4 11 5 3 3 0 5 5 57 45 5 5 5 5 5 5 11 73 26 44
42 100 100 45 76 64 41 100 100 66 29 31 96 97 97 79 56 81 89 36 32 63 6 5 5 60 0 2 4 1 0 0 0 0 4 4 21 10 5 10 5 5 7 54 100 100 76
92 82 100 100 6 100 90 100 99 100 100 100 16 69 98 50 82 98 34 100 95 28 18 5 5 5 2 5 8 4 0 0 0 0 0 4 0 2 6 17 5 4 24 26 2 1 0
100 90 100 100 38 7 100 68 100 99 100 100 60 41 100 97 100 34 13 5 24 5 5 5 4 4 5 5 5 5 4 2 0 0 0 0 0 3 4 4 0 0 0 0 0 0 0
100 100 7 100 100 100 17 86 100 29 82 100 92 70 40 70 25 98 89 79 81 58 5 5 5 4 5 5 5 5 5 4 5 4 0 0 0 2 0 2 0 0 0 0 0 0 0
100 100 100 100 100 100 100 15 100 96 76 99 93 94 38 97 5 40 87 23 22 23 5 5 5 5 3 5 5 5 6 0 5 2 3 5 0 4 5 2 0 0 0 0 0 0 0
100 100 100 100 100 100 100 100 66 100 100 100 50 83 96 99 88 8 5 5 5 36 23 1 5 5 5 7 19 17 5 4 0 0 1 4 3 5 2 2 2 0 0 0 0 0 0
100 100 100 100 100 100 100 100 100 12 100 100 100 70 60 55 97 59 6 5 5 5 5 5 5 5 5 5 5 5 5 2 4 4 3 2 3 4 3 3 0 0 0 0 0 0 0

GFSGBSN_prec_cloud_099.txt.gz
Cloud_Cover
100 100 100 100 100 100 100 100 100 100 100 100 100 100 100 100 100 100 100 100 100 100 100 100 100 100 100 100 59 8 11 5 0 0 3 30 5 4 6 2 5 5 5 5 5 5 3
100 98 88 98 100 100 100 100 100 100 100 100 100 100 100 100 100 100 100 100 100 100 100 100 100 100 100 100 93 70 6 5 2 0 1 4 5 25 55 5 5 1 0 0 0 0 0
100 65 76 36 15 37 90 100 100 100 100 100 100 100 100 100 100 100 100 100 100 100 100 100 100 100 100 98 99 88 21 11 5 0 2 5 46 43 26 5 1 5 3 0 0 0 0
100 100 100 100 100 100 99 100 100 100 42 15 5 6 5 5 5 21 98 52 95 100 100 100 100 100 100 100 100 100 18 14 5 4 5 8 100 100 86 20 4 5 12 24 0 1 0
100 100 100 100 100 100 100 100 100 100 100 100 81 100 100 61 57 47 47 100 23 99 100 100 100 100 100 100 100 100 68 15 72 100 96 41 94 94 95 100 100 100 77 23 3 30 57
89 100 100 100 100 100 100 100 100 100 100 100 99 100 96 13 5 65 21 100 100 100 100 100 100 100 100 100 100 100 48 96 100 25 84 87 89 88 98 100 87 9 82 10 5 2 10
100 100 100 100 100 100 100 100 100 100 100 100 100 98 100 73 90 1 0 100 100 100 73 100 100 100 100 100 100 27 5 5 15 94 62 39 29 39 5 9 5 21 72 74 5 5 46
100 100 99 100 100 100 100 100 100 100 100 100 99 100 95 27 4 0 39 100 100 100 100 100 100 100 100 100 97 65 5 6 98 100 100 98 91 5 5 79 91 100 100 77 17 98 100
100 100 100 88 39 51 97 100 100 100 100 100 100 100 72 1 4 18 100 100 100 100 100 100 100 100 100 100 84 59 51 100 100 100 100 75 18 30 96 42 100 100 82 31 85 100 89
100 100 43 44 91 51 6 5 5 16 15 12 6 29 5 4 4 82 100 100 100 100 100 100 100 100 93 58 61 100 100 98 99 93 100 94 70 30 85 52 100 74 77 100 68 99 99
100 58 2 38 68 46 31 46 10 5 10 94 100 100 9 11 6 87 100 100 100 100 100 100 99 100 99 30 79 71 83 88 100 99 96 99 8 100 100 96 100 100 100 100 100 100 100
100 85 33 23 10 16 62 100 100 49 58 7 63 91 5 15 28 84 100 100 100 100 100 99 100 98 98 100 100 100 86 99 90 19 68 44 75 56 99 100 100 100 100 100 90 100 100
87 5 15 68 100 10 100 99 100 100 100 100 22 5 7 51 100 100 92 98 100 100 100 100 100 100 100 100 100 99 75 100 100 100 100 92 98 100 100 100 100 78 100 100 100 100 100
36 3 6 46 28 7 67 56 93 86 83 6 7 12 6 43 90 100 100 100 100 100 100 100 100 100 100 100 96 100 100 100 100 100 100 100 100 100 100 100 100 98 96 100 100 100 100
4 3 16 99 100 92 100 100 100 16 10 5 5 6 34 86 40 34 76 90 100 100 100 100 100 98 99 84 100 100 100 100 100 100 100 100 100 92 96 68 100 100 100 100 100 100 100
5 0 36 90 39 52 99 100 100 6 7 5 10 28 92 5 23 5 6 100 100 100 100 81 90 62 84 90 100 100 100 100 100 100 100 99 100 74 100 100 100 100 100 100 100 99 100
0 0 6 71 8 2 49 100 29 0 1 6 100 100 75 13 5 5 97 100 94 46 14 61 93 78 94 99 100 95 97 100 100 100 100 100 90 100 100 99 100 100 100 100 100 100 100
8 6 1 100 0 5 1 94 0 26 0 49 97 93 82 44 75 97 75 92 90 5 50 47 44 43 25 99 96 49 68 100 100 100 100 83 95 100 100 100 100 100 100 100 100 100 100
100 5 2 71 0 3 5 1 1 0 10 30 100 87 50 51 99 51 56 52 44 98 6 26 24 18 5 6 67 5 100 100 100 100 100 100 100 100 100 100 95 100 100 100 100 100 100
100 54 5 84 21 0 3 5 1 1 3 4 28 53 51 100 95 70 89 34 26 32 6 5 8 4 5 5 9 27 95 100 100 100 100 99 100 96 100 88 28 97 100 100 100 100 100
56 100 41 23 8 2 1 5 9 4 5 2 34 81 92 94 90 79 95 15 22 5 5 5 5 5 20 14 4 5 99 100 100 97 100 97 99 77 52 80 22 5 95 100 100 100 100
62 100 95 89 78 56 2 0 5 21 12 13 44 81 81 18 57 96 5 5 8 6 5 5 5 4 0 0 4 1 5 10 83 90 97 92 100 34 82 48 22 6 5 88 43 62 100
5 100 100 98 80 17 6 0 6 3 22 54 89 41 73 9 5 67 43 14 97 54 21 5 5 1 0 0 0 4 0 0 2 4 5 5 5 5 5 12 4 5 5 27 20 9 60
5 19 100 100 66 80 99 100 72 7 4 19 52 70 28 71 86 8 5 5 20 75 14 5 4 0 0 2 2 0 0 0 0 0 1 0 0 3 5 1 2 0 1 5 24 17 5
65 48 68 100 89 100 100 100 99 16 0 87 23 99 99 100 96 5 5 5 5 5 4 5 0 0 0 0 1 5 2 0 0 0 0 0 0 3 1 4 0 0 0 0 0 0 0
100 79 18 62 99 57 100 100 92 7 0 72 21 15 86 72 5 5 5 12 5 10 5 5 1 0 0 0 1 0 5 0 0 0 0 0 0 2 3 2 0 0 0 0 0 0 0
100 28 76 31 49 100 100 100 100 100 56 2 0 6 10 60 6 13 23 22 44 32 5 5 5 0 0 2 0 0 3 0 0 0 0 0 0 2 0 2 0 0 0 0 0 0 0
96 94 100 80 81 100 48 100 100 100 100 89 0 0 5 9 11 17 5 5 10 38 10 5 5 0 0 1 5 5 0 0 0 0 0 0 0 3 0 2 0 0 0 0 0 0 0
100 98 83 41 100 87 82 100 100 100 100 65 94 2 0 18 5 9 54 5 5 5 7 5 5 5 5 4 4 3 1 0 0 0 0 0 0 0 0 0 0 0 0 0 0 0 0

GFSGBSN_prec_cloud_102.txt.gz
Cloud_Cover
100 96 100 100 100 76 100 100 100 100 100 100 100 100 100 100 100 100 100 100 100 100 100 100 100 100 100 100 93 98 100 91 64 14 5 4 1 4 5 0 1 5 2 3 2 1 0
92 80 100 99 100 100 100 100 100 100 100 100 100 100 100 100 100 100 100 100 100 100 100 100 100 100 100 100 100 98 100 98 82 53 5 5 1 2 5 5 5 5 5 3 1 0 0
76 100 72 100 100 100 100 100 100 100 100 100 100 98 99 100 100 100 100 100 100 100 100 100 100 100 100 100 100 100 51 100 88 35 5 10 5 3 5 5 5 5 5 0 0 0 0
80 98 100 91 98 98 100 100 100 100 100 100 100 99 100 57 90 100 100 100 100 92 100 100 100 100 100 100 100 100 56 66 61 36 5 5 5 8 16 5 5 5 12 48 0 2 3
87 100 100 100 100 36 76 99 100 100 100 100 100 100 100 100 100 100 94 5 84 90 46 100 100 100 100 100 100 100 89 69 82 5 5 7 20 5 31 77 81 46 73 57 5 2 5
100 98 80 100 100 32 84 96 100 100 100 100 100 100 95 63 48 46 9 24 100 81 100 100 100 100 100 100 100 100 78 65 34 100 67 5 5 25 98 94 39 5 83 35 24 9 5
100 98 4 56 100 10 74 58 40 100 100 100 100 100 100 84 82 5 5 34 100 100 100 100 100 100 100 100 100 100 99 100 99 44 70 47 69 34 5 5 5 5 30 88 8 2 85
80 0 37 100 100 10 24 9 20 5 58 20 18 67 16 13 50 2 0 28 97 100 100 100 100 100 100 100 100 100 99 100 70 29 99 71 70 13 5 52 94 100 86 75 22 11 100
57 66 70 100 100 52 98 93 76 60 28 6 44 4 3 1 1 8 38 100 100 100 100 100 100 100 100 100 100 100 100 63 63 100 77 56 26 67 78 97 97 90 100 97 71 72 22
18 5 18 100 95 20 5 52 100 100 86 4 15 0 32 72 63 57 63 100 100 100 100 100 100 100 100 100 100 96 100 83 99 94 100 80 66 57 9 6 39 99 56 87 99 99 99
4 5 77 96 6 5 5 68 94 100 75 5 0 4 100 96 50 100 100 100 100 100 100 100 100 100 100 100 100 99 100 87 100 100 48 32 36 50 63 55 100 100 100 99 66 88 100
1 3 2 100 53 5 19 94 39 27 5 18 0 2 4 100 100 100 100 95 100 88 91 100 100 99 71 98 100 69 85 74 100 90 18 77 77 98 100 100 100 100 100 100 100 99 99
2 5 38 100 57 5 44 76 73 5 4 3 2 15 4 5 99 99 89 92 82 84 90 100 99 94 98 100 78 100 100 100 100 100 90 100 100 100 96 100 99 100 99 100 82 100 100
4 86 9 71 96 13 6 57 50 5 8 11 8 6 12 17 9 86 82 92 46 100 88 91 97 100 100 80 72 100 100 100 100 100 100 99 95 100 100 96 100 100 100 100 100 100 100
4 40 26 69 84 100 14 4 32 5 5 5 4 5 5 6 5 5 30 89 99 98 79 68 98 100 98 100 100 98 100 100 100 100 89 100 99 100 100 100 100 100 100 100 100 100 100
9 11 26 33 55 18 28 3 5 0 0 2 92 68 10 5 60 7 92 99 100 100 96 79 65 19 66 97 100 100 100 98 100 65 100 100 100 100 100 99 100 100 100 100 100 100 100
10 2 46 0 93 6 7 6 5 5 2 0 0 85 8 100 70 36 98 100 41 5 31 30 5 71 97 75 96 100 100 100 86 88 100 100 100 100 100 100 100 100 100 100 100 100 100
5 2 46 5 14 17 25 1 1 5 5 6 28 99 100 15 5 76 54 40 26 10 8 44 5 5 55 94 100 100 100 92 86 100 97 100 100 100 100 100 100 100 100 100 100 100 100
13 4 3 6 3 7 67 13 1 5 5 5 20 76 92 77 86 23 48 90 99 48 24 5 13 5 5 84 100 97 100 78 85 100 100 100 100 100 100 100 100 100 100 100 100 100 100
100 3 0 16 17 9 38 90 0 0 1 2 3 10 5 23 5 10 5 4 5 5 4 5 5 5 5 86 57 31 100 98 36 71 59 100 100 100 100 100 100 100 100 100 100 100 100
100 15 5 4 6 5 2 3 13 0 0 0 1 30 16 26 7 5 5 5 5 3 0 0 4 3 1 88 96 26 36 86 5 11 28 100 100 100 100 100 100 100 100 100 100 100 100
100 95 29 5 4 53 100 3 0 0 0 6 3 5 5 5 19 5 6 5 5 5 3 4 3 0 0 5 49 23 5 7 6 5 5 5 5 6 5 77 100 100 100 100 100 100 100
100 99 100 31 5 55 100 100 60 0 0 0 0 3 30 5 5 5 5 5 5 5 5 5 0 0 0 0 5 2 1 0 0 2 6 23 11 24 5 5 38 93 100 100 100 100 100
100 100 100 35 51 95 49 39 86 1 0 0 0 3 1 4 5 5 5 5 5 5 5 5 0 0 0 0 0 0 1 0 0 0 0 0 1 6 4 1 1 5 85 100 100 100 100
100 100 100 100 92 98 12 100 18 5 5 5 3 1 5 3 5 5 5 5 5 5 5 0 0 0 0 0 0 0 0 0 0 0 0 0 0 5 4 4 0 0 0 39 9 99 100
100 100 100 100 100 17 5 5 36 6 6 10 5 3 1 3 2 5 5 5 5 5 5 0 0 0 0 0 0 0 1 0 0 0 0 0 0 2 3 1 0 0 0 0 24 98 15
100 100 100 100 99 92 9 98 56 16 30 56 70 5 4 5 1 5 5 5 4 5 5 2 5 0 0 0 0 0 3 0 2 0 0 2 2 2 1 4 0 0 0 0 0 0 0
100 100 100 100 100 96 15 60 76 43 3 65 39 5 68 5 2 1 3 5 5 5 5 4 2 4 0 0 0 0 0 0 0 0 0 0 1 5 3 2 1 0 0 0 0 0 0
97 100 100 100 100 8 18 100 98 99 5 14 5 33 10 0 0 0 0 0 4 5 5 5 5 6 5 5 5 5 5 0 0 0 0 3 0 0 0 0 0 0 0 0 0 0 0

GFSGBSN_prec_cloud_105.txt.gz
Cloud_Cover
98 73 6 7 9 31 38 100 79 100 100 100 100 100 100 100 100 100 100 100 100 100 100 100 100 100 100 100 100 100 100 95 86 8 5 5 5 5 5 2 1 5 1 0 0 0 0
15 5 5 73 0 8 98 90 95 27 100 100 100 100 99 100 100 100 100 100 100 100 100 100 100 100 100 100 100 100 100 99 61 51 51 5 5 5 5 3 0 1 4 0 0 0 0
12 93 3 98 100 100 100 88 57 100 100 100 100 100 100 100 100 100 100 100 100 100 100 100 100 100 100 100 100 100 100 98 100 73 28 29 5 5 5 4 5 5 5 0 0 0 0
98 5 4 32 100 100 100 98 87 100 100 100 100 100 97 100 100 100 100 100 100 100 100 100 100 100 100 100 100 100 100 61 69 39 5 5 5 5 3 3 5 5 4 30 0 0 0
14 5 19 100 100 100 100 27 10 100 100 100 100 100 100 100 100 100 100 100 100 100 100 100 100 100 100 100 100 100 100 61 78 5 5 5 5 5 5 5 15 5 46 7 5 0 0
6 5 76 100 100 52 88 85 14 7 97 100 100 100 100 96 90 100 23 100 100 100 100 100 100 100 100 100 100 100 100 94 5 15 5 5 44 5 5 51 37 6 79 8 5 0 4
0 5 100 100 100 4 5 5 5 5 6 2 5 5 87 100 33 100 100 100 100 100 100 88 69 100 100 100 100 100 100 100 100 85 38 9 38 32 5 5 5 5 21 11 5 2 87
5 12 100 66 100 8 6 41 31 39 4 5 4 0 1 12 4 20 58 100 100 100 100 94 100 100 100 100 100 100 100 100 100 92 21 51 54 16 5 5 15 86 100 31 4 5 62
5 49 99 4 83 85 77 13 5 15 6 3 4 2 4 4 5 3 11 87 100 81 100 100 100 100 100 100 100 100 100 100 100 100 13 6 42 38 44 32 45 39 80 82 33 5 8
4 41 100 100 11 98 30 100 13 5 4 4 2 4 5 97 17 89 98 76 49 99 100 100 100 100 100 100 100 100 100 100 97 65 6 9 5 11 79 5 23 100 57 42 43 89 99
1 26 100 100 100 92 89 99 83 13 0 36 5 5 5 5 40 94 100 100 100 100 100 100 100 100 100 100 100 100 100 100 89 100 69 48 44 79 95 78 87 34 71 82 85 100 100
3 7 100 100 100 76 76 6 0 66 86 36 4 5 3 5 21 89 74 100 100 86 100 100 100 100 100 100 100 91 100 84 98 100 100 48 86 70 6 60 58 100 69 35 20 84 100
8 12 71 100 100 100 94 94 47 2 0 32 38 5 5 5 30 32 89 100 40 74 100 100 100 100 100 98 58 93 86 76 98 100 100 99 77 96 100 100 51 96 100 100 100 100 100
65 6 84 96 100 100 88 79 93 18 1 0 0 5 5 5 8 97 91 56 23 100 100 100 100 99 100 94 69 35 100 100 100 100 100 92 88 100 100 75 87 100 100 100 100 100 100
75 5 78 99 100 100 100 57 98 100 10 5 0 5 5 6 83 31 100 100 100 100 80 100 100 100 100 100 100 100 100 100 100 100 97 100 100 100 79 88 98 100 100 100 100 100 100
100 5 60 96 68 92 100 99 36 100 98 4 0 36 5 5 4 23 90 92 90 40 73 40 74 88 99 85 100 100 100 82 100 100 100 100 100 100 99 100 100 100 100 100 100 100 100
23 5 3 100 81 98 100 97 35 5 73 91 8 84 7 5 1 4 88 100 86 18 5 40 78 96 97 100 100 100 49 100 100 100 100 100 100 100 14 100 100 100 100 100 100 100 100
63 80 1 84 87 62 100 18 8 20 0 4 5 7 84 5 1 14 36 29 7 5 14 87 7 93 100 100 91 71 100 100 100 100 100 100 100 99 100 100 100 100 100 100 100 100 100
100 94 81 1 78 99 88 58 6 0 5 0 0 33 5 4 19 32 4 5 5 5 0 28 92 45 97 92 9 100 100 100 100 100 100 98 100 100 100 100 100 100 100 100 100 100 100
100 85 100 31 1 97 100 80 7 3 0 0 0 12 5 0 5 9 8 3 1 0 0 5 5 5 4 1 10 83 99 100 100 100 100 100 100 100 100 100 100 100 100 100 100 100 100
100 14 100 100 3 100 100 100 2 0 0 0 5 23 20 19 6 5 5 5 0 0 0 0 1 0 4 0 5 100 100 100 100 74 100 100 100 100 100 100 100 100 100 100 100 100 100
100 99 41 100 52 100 100 100 98 0 0 0 0 0 0 5 5 5 5 5 3 2 2 0 2 0 0 0 0 5 18 85 5 87 99 94 100 100 100 100 100 100 100 100 100 100 100
100 100 51 94 100 100 100 1 3 3 0 0 9 9 0 3 0 4 4 4 5 5 4 1 0 0 0 0 0 0 0 2 0 5 4 5 5 17 100 100 100 100 100 100 100 100 100
100 100 55 7 79 93 25 5 4 5 0 0 1 0 1 5 2 4 5 5 5 5 5 5 0 0 0 0 0 0 0 0 0 0 0 0 1 7 7 99 100 100 100 100 100 100 100
100 100 100 66 85 100 5 5 25 4 2 0 2 0 2 5 4 1 5 5 4 5 1 0 0 0 0 0 0 0 0 0 0 0 0 0 1 4 4 4 10 24 44 98 100 28 94
100 99 100 59 37 100 100 53 96 5 4 5 5 2 1 4 5 4 0 5 5 0 0 0 0 0 0 0 0 0 0 0 0 0 0 0 0 2 3 2 0 4 5 5 5 60 16
100 58 100 100 100 100 100 26 100 68 5 5 5 9 3 0 2 12 5 2 0 2 4 0 0 0 0 0 2 1 3 0 0 0 0 0 3 3 5 4 1 0 0 3 24 15 7
100 100 87 93 100 100 100 100 100 100 100 5 7 90 48 6 4 5 4 5 10 1 4 2 0 3 0 0 1 3 2 1 2 0 0 0 0 4 5 3 0 0 0 0 0 0 2
100 100 99 100 100 100 92 21 100 100 100 97 78 5 17 38 15 8 29 92 4 5 2 3 3 4 5 5 4 5 5 0 0 3 0 3 0 0 0 0 0 0 0 0 0 0 0

GFSGBSN_prec_cloud_108.txt.gz
Cloud_Cover
26 0 5 88 69 100 100 50 100 93 95 33 100 100 100 100 100 100 100 100 100 100 100 100 100 100 100 100 100 100 100 100 100 100 78 58 6 5 2 0 0 0 0 0 0 0 0
8 5 96 73 100 100 100 91 100 100 100 100 100 100 100 100 100 100 100 100 100 100 100 100 100 100 100 100 100 100 100 100 100 100 100 87 26 21 40 4 0 0 0 0 0 0 0
2 43 100 100 100 87 100 100 5 55 100 100 100 100 100 100 100 100 100 100 100 100 100 100 100 100 100 100 100 100 100 100 100 100 100 85 6 15 5 5 1 0 3 0 0 0 0
5 82 100 100 100 84 70 98 97 5 58 100 100 99 100 100 100 100 100 100 100 100 100 100 100 100 100 100 100 100 100 100 99 84 93 70 22 59 75 58 5 0 0 4 0 0 0
5 100 100 100 100 97 13 2 100 53 4 31 62 52 97 100 100 99 100 100 100 100 100 100 100 100 100 100 100 100 100 100 96 94 98 18 18 28 20 58 25 3 5 5 4 0 0
11 100 100 100 100 100 61 0 96 87 4 0 4 4 67 60 100 35 100 100 100 100 100 100 100 100 100 100 100 100 100 100 96 88 39 35 22 27 30 5 8 5 51 5 5 0 1
3 100 100 100 100 100 96 27 63 11 1 0 5 1 0 4 100 100 90 100 100 80 100 100 100 100 100 100 100 100 100 100 99 86 47 43 83 45 51 5 5 5 5 5 5 0 17
1 100 100 100 100 100 100 100 3 4 15 0 0 6 8 0 11 79 100 64 100 100 100 100 96 100 100 100 100 100 100 66 40 50 8 6 5 8 4 5 5 5 6 14 5 0 41
2 97 100 100 100 100 100 81 17 5 4 4 0 2 6 0 2 4 57 100 100 100 100 100 100 100 100 100 100 100 97 86 48 7 26 5 18 7 5 5 6 5 15 6 26 23 71
6 28 86 100 100 100 88 59 92 4 5 5 5 5 5 5 5 5 29 97 97 66 14 100 100 100 100 100 100 100 100 100 100 46 6 6 5 3 5 5 96 88 5 5 55 100 99
5 4 99 97 100 100 100 12 58 100 6 5 62 5 5 5 6 24 89 81 12 84 96 100 100 99 100 100 100 100 100 100 100 96 39 5 5 10 100 91 98 56 71 93 73 100 100
5 4 4 99 100 100 100 100 20 55 93 5 5 5 5 6 15 77 69 5 48 90 100 100 100 100 100 100 100 100 99 100 98 83 33 9 70 43 7 39 60 50 29 56 50 100 100
5 3 0 76 88 86 100 100 92 11 58 88 5 4 5 5 5 5 5 4 92 32 91 100 100 100 100 100 100 100 100 100 98 80 51 31 48 63 96 89 50 100 100 90 100 100 100
100 11 0 25 86 93 95 100 100 100 24 99 5 5 5 5 4 5 5 15 17 100 95 32 87 100 100 100 100 100 43 84 78 88 100 91 68 47 90 80 96 100 100 100 100 100 100
84 92 5 4 56 100 81 87 100 100 100 0 5 0 3 4 3 7 92 62 97 89 95 78 41 68 99 100 96 87 100 100 100 99 100 100 91 100 100 100 100 100 100 100 100 100 100
96 86 55 0 10 100 100 100 100 100 72 4 0 5 0 0 0 9 22 86 73 16 10 41 91 89 100 90 84 100 100 81 100 100 100 100 100 100 100 100 100 100 100 100 100 100 100
100 100 82 5 3 93 100 100 89 39 1 1 0 0 0 0 0 0 83 91 75 29 10 80 77 100 100 100 99 100 98 100 100 100 100 100 99 100 100 100 100 100 100 100 100 100 100
100 50 61 52 5 4 51 100 100 41 0 0 0 0 0 0 0 10 8 6 38 55 5 57 90 100 84 97 72 71 100 100 100 100 100 92 100 100 100 100 100 100 100 100 100 100 100
100 67 10 35 73 6 34 95 68 71 24 0 0 29 0 0 12 15 5 5 5 5 5 5 5 5 5 55 96 100 100 100 100 100 100 100 100 100 100 100 100 100 100 100 100 100 100
100 100 46 73 20 39 54 54 100 1 3 0 0 1 0 0 0 1 26 0 4 4 5 5 5 4 7 69 74 100 100 100 100 100 100 100 100 100 100 100 100 100 100 100 100 100 100
100 100 98 48 100 31 28 15 100 22 1 0 6 30 6 6 0 1 0 2 0 0 0 0 0 0 0 5 18 57 100 100 100 100 100 100 100 100 100 100 100 100 100 100 100 100 100
100 100 100 100 99 88 64 5 42 2 4 2 0 0 0 0 0 0 0 3 2 4 0 0 0 0 0 1 4 4 3 34 78 99 99 100 100 100 100 100 100 100 100 100 100 100 100
100 100 100 100 97 100 66 1 54 1 7 2 38 33 0 4 0 3 3 3 3 2 3 0 0 0 0 0 0 0 0 0 0 2 6 70 73 100 100 100 100 100 100 100 100 100 100
100 100 100 100 100 100 100 2 36 25 5 5 18 0 2 4 1 0 0 0 0 0 1 0 0 0 0 0 0 0 0 0 0 0 0 0 4 25 100 71 90 100 100 100 86 29 88
100 100 100 100 96 100 90 41 100 97 11 35 12 3 0 5 3 0 0 0 0 0 0 0 0 0 0 0 0 0 0 0 0 0 0 0 1 4 13 13 89 68 53 72 6 14 12
100 100 100 100 100 100 100 100 99 100 36 96 52 2 2 5 3 0 0 0 0 0 0 0 0 0 0 0 0 0 0 0 0 0 0 0 0 2 3 1 3 1 5 5 5 8 11
100 100 100 100 100 100 100 100 36 100 100 86 82 90 5 5 5 4 1 0 0 1 0 0 0 0 0 0 4 1 4 0 1 0 0 1 3 2 5 5 0 0 1 0 7 17 5
100 100 100 100 100 100 100 100 100 100 100 100 100 100 100 47 0 4 5 5 0 1 0 0 0 0 0 0 1 4 4 4 2 0 0 0 0 4 5 5 1 0 0 0 0 0 1
100 100 100 100 100 100 100 100 100 100 100 100 100 100 100 100 60 3 2 5 5 0 0 2 1 5 4 8 6 5 4 2 2 5 0 3 1 0 0 0 0 3 0 0 0 0 0

GFSGBSN_prec_cloud_111.txt.gz
Cloud_Cover
2 100 100 100 100 92 100 100 100 88 84 100 100 100 100 100 100 98 98 40 98 88 98 100 100 100 100 100 100 100 100 100 100 100 100 100 97 54 49 6 5 0 0 0 0 0 0
17 100 100 100 100 100 100 100 99 5 98 48 100 100 100 100 100 78 96 100 100 100 100 100 100 100 100 96 99 100 100 100 100 100 100 100 100 100 100 88 5 2 0 0 0 0 0
100 100 100 100 100 71 100 100 72 7 2 84 8 100 100 100 100 100 100 100 100 100 100 100 100 100 100 100 100 100 100 100 69 99 100 100 100 100 85 42 5 5 1 2 0 0 0
95 100 100 100 41 92 99 100 95 8 1 0 1 30 100 40 100 100 100 100 100 100 100 100 100 100 100 100 100 100 100 100 100 100 100 96 75 32 65 20 5 5 5 5 0 0 0
14 12 40 100 100 43 99 100 95 74 0 0 0 0 9 100 100 100 97 100 100 100 100 100 100 100 100 100 100 100 100 100 100 99 92 100 79 42 35 5 7 37 5 5 5 4 0
81 4 9 100 79 11 98 96 100 80 1 5 6 0 0 17 100 100 100 100 98 100 100 100 100 100 100 100 100 100 100 100 100 68 79 100 98 86 100 99 85 55 10 5 5 3 1
92 3 5 96 61 45 42 100 100 100 4 95 7 2 0 0 100 100 100 100 89 70 100 100 100 100 100 100 100 100 100 82 60 36 51 89 98 100 94 22 52 10 5 5 4 0 5
31 92 1 59 71 44 78 97 100 100 83 78 5 2 0 0 100 100 98 100 100 80 100 100 100 100 100 100 100 100 100 96 100 100 89 14 10 5 5 5 6 8 6 6 3 1 5
31 23 17 14 4 94 96 20 100 100 97 6 5 0 0 0 54 59 94 100 100 34 98 100 100 100 100 100 100 100 100 100 100 100 63 39 15 5 5 14 6 5 5 5 5 8 4
14 97 100 5 2 7 38 98 18 81 60 9 5 5 0 0 36 11 8 100 100 94 13 100 100 100 100 100 100 100 100 100 100 100 100 99 99 96 50 15 5 91 5 5 56 100 84
36 7 100 73 6 0 76 10 100 1 5 5 5 3 5 6 0 5 24 0 3 63 9 100 99 98 96 100 100 100 68 90 97 98 25 6 5 77 78 73 80 36 5 6 94 100 100
30 91 78 100 100 32 1 98 100 80 2 5 5 4 5 97 63 3 4 14 8 5 90 100 100 100 95 100 100 100 100 97 99 50 9 6 5 5 5 5 5 6 12 8 80 100 100
100 42 5 100 100 96 98 46 100 93 56 5 5 5 4 0 7 14 32 94 81 92 84 96 100 100 99 76 99 100 100 100 100 93 60 79 10 9 5 5 10 91 100 69 100 100 92
100 82 7 3 100 100 100 100 100 97 90 4 0 0 0 0 1 21 98 5 24 100 100 100 100 100 100 100 100 100 100 100 99 100 99 99 6 9 50 11 61 100 100 100 100 100 100
100 100 6 10 2 91 100 100 100 100 8 13 0 0 0 0 1 5 5 45 96 75 10 8 36 79 99 100 78 100 100 100 100 100 72 100 15 76 100 100 100 100 100 100 100 100 100
100 100 36 5 3 5 100 100 100 100 1 0 0 0 0 0 0 37 6 100 62 16 56 63 80 86 75 86 82 98 91 72 98 100 100 94 100 100 100 100 100 100 100 100 100 100 100
100 100 100 11 31 1 100 100 100 100 3 0 0 0 0 0 0 0 90 49 42 16 42 54 14 39 82 100 100 97 100 100 100 100 100 100 100 100 100 100 100 100 100 100 100 100 100
100 100 100 93 100 3 100 100 100 70 0 0 0 0 0 0 0 6 5 5 36 7 5 5 5 5 5 5 60 100 100 100 99 99 100 100 100 100 100 100 100 100 100 100 100 100 100
100 100 100 97 10 17 100 100 100 36 0 0 0 19 0 0 1 11 4 5 5 5 4 5 5 5 5 16 91 93 92 99 100 100 100 100 100 100 100 100 100 100 100 100 100 100 100
100 100 100 100 11 80 100 92 97 44 5 0 0 0 0 0 0 0 0 0 4 5 5 5 5 4 3 5 5 5 100 100 99 100 100 100 100 100 100 100 100 100 100 76 100 100 100
100 100 100 100 100 100 50 20 26 100 99 26 5 45 6 0 0 0 0 0 0 0 0 0 0 0 0 0 3 86 89 100 100 100 86 100 100 100 100 100 100 99 99 91 82 100 100
100 100 100 100 64 100 75 13 5 76 83 100 5 0 0 0 0 0 0 0 0 0 0 0 0 0 0 2 4 1 3 5 17 100 92 54 83 100 100 100 52 47 91 58 5 36 10
100 95 100 54 69 100 100 88 50 67 96 62 96 30 0 3 5 2 0 0 0 0 0 0 0 0 0 0 0 0 0 0 0 2 3 5 4 42 100 27 5 6 62 31 94 5 9
100 100 100 8 100 96 100 100 46 100 100 24 100 54 14 2 2 1 0 0 0 0 0 0 0 0 0 0 0 0 0 0 0 0 0 0 2 5 5 96 58 0 5 5 5 12 41
100 100 100 69 100 100 68 100 100 100 100 12 100 21 99 99 5 5 3 0 0 0 0 0 0 0 0 0 0 0 0 0 0 0 0 0 3 4 4 4 3 42 16 6 4 3 5
100 100 100 100 100 100 100 100 100 100 100 100 64 98 100 100 100 5 16 8 3 0 0 0 0 0 0 0 0 0 0 0 0 0 0 2 1 0 3 1 0 0 0 0 0 3 4
100 100 100 100 100 100 100 100 100 100 100 100 100 98 96 100 100 97 18 49 5 5 5 5 0 0 0 0 3 4 3 0 0 0 0 0 2 2 4 4 0 0 0 0 0 0 0
100 100 100 100 100 100 100 100 98 100 100 100 100 100 59 100 100 98 90 23 5 5 5 1 5 4 0 1 4 5 5 5 4 0 0 0 0 3 5 5 1 0 0 0 0 0 0
100 100 100 100 100 100 100 100 100 100 100 100 100 100 100 100 100 100 100 100 43 5 72 17 5 3 4 12 7 5 5 5 5 5 0 4 1 0 0 0 0 0 0 0 0 0 0

GFSGBSN_prec_cloud_114.txt.gz
Cloud_Cover
14 17 29 17 30 47 58 41 20 61 75 100 49 100 100 100 100 100 100 68 86 31 53 100 100 100 100 100 100 100 99 100 100 100 100 100 100 99 39 4 0 0 0 0 0 0 0
20 5 8 72 100 59 35 29 46 78 21 24 47 31 100 100 96 93 100 94 5 5 21 85 100 100 100 100 100 100 100 100 100 100 100 100 100 100 100 99 40 24 5 3 0 0 0
96 23 4 89 78 28 81 80 24 2 85 31 5 1 87 100 100 100 98 99 5 96 63 89 100 100 100 100 100 100 100 100 100 100 100 100 100 100 86 90 93 85 100 39 1 0 0
95 71 3 97 84 100 51 5 51 5 22 18 70 46 8 100 100 100 100 100 100 100 82 100 100 100 98 100 100 100 100 100 99 88 100 100 100 86 100 100 100 98 98 67 88 6 0
100 99 11 98 13 42 100 100 6 56 100 100 23 19 9 100 100 100 100 100 100 100 100 100 100 100 100 100 100 100 100 100 26 59 38 64 100 100 72 77 66 42 13 9 5 2 1
100 100 76 100 26 70 100 100 28 26 100 90 5 0 69 100 100 100 100 100 100 100 100 100 100 100 100 100 100 100 100 100 80 89 17 27 30 32 33 25 87 100 15 5 3 2 5
100 100 100 100 55 14 100 100 44 10 89 36 0 1 100 100 97 80 93 100 100 100 100 100 100 100 100 100 100 100 97 100 96 74 91 5 5 87 100 100 100 100 58 5 5 0 5
6 100 99 100 91 19 66 87 4 6 68 5 1 38 60 10 35 32 87 100 100 100 100 100 100 100 100 100 100 100 99 42 67 11 5 5 5 5 9 99 100 100 87 17 5 4 5
21 62 100 100 100 46 3 2 14 4 5 4 5 0 1 1 5 71 84 100 100 100 100 100 100 100 100 100 100 100 78 60 38 70 32 5 5 44 57 42 51 79 92 24 5 5 4
11 5 100 100 100 87 7 0 0 10 4 0 0 0 0 0 5 85 35 31 86 93 100 98 97 100 100 100 100 100 100 98 91 95 61 45 29 5 5 5 9 6 6 5 32 81 68
100 5 5 100 100 100 81 2 0 0 0 0 0 0 0 0 1 2 0 5 0 2 96 100 73 80 98 100 100 100 100 100 100 100 100 84 32 16 38 7 5 5 8 66 100 100 100
100 77 5 2 98 81 100 100 23 0 0 0 0 0 0 0 4 5 6 5 3 48 94 85 100 100 87 96 100 100 100 100 100 100 100 100 92 54 13 5 12 26 36 99 100 98 99
100 100 7 4 6 68 99 100 100 21 0 0 0 0 0 0 0 2 21 97 90 63 69 55 88 70 92 99 100 70 18 80 86 73 57 10 53 91 5 19 15 62 100 94 98 99 60
100 100 97 5 5 40 100 100 100 79 22 6 0 0 0 0 0 2 0 7 41 77 88 99 100 100 44 100 100 100 85 97 100 35 78 100 55 6 5 18 68 100 100 94 100 96 100
100 100 100 46 12 9 100 85 100 100 2 1 0 0 0 0 0 5 4 18 62 48 11 8 11 98 62 71 90 68 87 100 100 100 98 78 9 5 5 29 70 100 100 100 100 100 96
100 100 100 81 90 5 100 100 100 100 0 0 0 0 0 0 0 0 1 38 62 19 5 6 63 31 93 68 83 93 73 36 94 100 90 87 98 100 100 100 100 100 100 100 100 83 100
99 100 100 100 92 20 100 100 100 53 1 0 0 0 0 0 0 0 87 24 6 8 5 8 6 20 18 12 68 55 7 19 53 100 100 100 100 100 100 100 98 94 100 100 100 100 100
90 100 100 100 99 61 87 90 100 84 2 5 3 48 0 0 8 0 0 2 5 5 5 17 5 5 10 19 10 98 85 100 100 100 100 100 99 100 100 96 98 100 100 100 100 100 100
100 100 100 100 100 99 68 15 100 98 7 5 32 4 0 0 0 0 0 0 0 4 5 5 5 5 74 74 86 75 79 98 87 72 100 84 100 91 90 90 92 100 100 100 100 98 80
100 97 100 94 100 100 100 58 98 100 43 12 10 27 2 0 0 0 0 0 0 0 0 0 0 4 5 33 100 95 94 74 35 98 91 45 80 6 51 79 95 100 96 96 100 100 70
99 100 100 100 26 100 100 100 98 100 100 100 5 5 5 8 1 0 0 0 0 0 0 0 0 0 0 0 0 4 15 3 1 42 42 15 100 31 5 8 79 15 7 22 95 100 78
100 100 100 100 95 100 100 100 87 100 100 100 90 9 5 5 16 0 0 0 0 0 0 0 0 0 0 0 0 0 0 0 0 0 0 0 5 4 5 42 68 5 5 5 16 39 21
100 100 100 100 100 100 100 100 100 100 100 100 94 100 61 5 4 0 0 0 0 0 0 0 0 0 0 0 0 0 0 0 0 0 0 0 1 1 1 1 0 0 4 1 4 5 5
100 100 98 100 100 100 100 100 100 100 97 100 73 100 100 79 15 5 3 0 0 0 2 0 0 0 0 0 0 0 0 0 0 0 0 0 0 5 4 1 0 0 0 0 1 0 3
100 100 100 76 100 100 100 100 100 100 100 100 73 49 100 100 100 50 5 5 3 0 0 0 0 0 0 0 0 0 0 0 0 0 0 0 0 1 1 0 0 0 0 0 0 4 25
100 100 100 100 100 100 100 100 100 100 100 100 100 75 100 74 100 100 100 5 5 5 4 0 0 0 0 0 0 0 0 0 0 0 0 0 0 2 0 0 0 0 0 0 0 0 0
100 100 100 100 100 100 100 100 100 100 100 100 100 100 100 100 100 100 100 100 79 56 5 5 8 5 3 0 0 0 0 0 0 0 0 0 5 3 0 0 0 0 0 0 0 0 0
100 100 100 100 100 100 100 100 100 100 100 100 100 100 100 100 100 100 100 100 73 100 84 33 5 5 5 4 4 0 1 0 0 0 0 0 0 0 0 0 2 0 0 0 0 0 0
100 100 100 100 100 100 100 100 100 100 100 100 100 100 100 100 100 77 100 100 100 100 100 77 9 5 0 0 4 5 5 5 2 0 0 0 0 0 0 0 5 4 2 0 0 0 0

GFSGBSN_prec_cloud_117.txt.gz
Cloud_Cover
99 69 82 91 100 42 3 5 71 90 53 76 34 100 100 100 100 100 100 100 90 100 76 100 100 100 100 100 99 100 100 97 100 99 100 98 88 26 16 55 9 0 0 0 3 5 0
45 84 80 96 29 98 15 6 68 58 97 97 98 68 100 100 100 100 100 100 15 100 88 100 100 100 100 100 100 100 100 100 34 73 99 100 100 100 98 40 33 48 25 1 0 0 0
58 85 95 95 76 99 0 5 12 100 17 74 99 98 86 100 100 100 100 100 100 29 81 100 100 100 100 100 100 100 100 100 95 6 100 100 100 100 100 100 100 100 100 88 5 0 0
100 75 72 96 100 100 24 10 5 5 0 4 47 32 100 100 98 74 76 100 71 14 100 100 100 100 100 100 100 100 100 100 100 46 52 100 100 100 100 100 99 100 86 98 100 94 26
100 100 31 77 98 100 78 63 1 5 0 4 42 100 100 100 89 100 100 100 100 100 100 100 100 100 100 100 100 100 100 100 100 87 34 5 88 85 80 93 97 86 56 74 53 6 5
100 100 29 92 100 100 100 12 99 49 0 0 5 7 5 22 100 100 100 100 100 100 100 100 100 100 100 100 100 100 100 100 61 30 20 5 61 29 60 43 84 40 82 90 19 46 18
5 100 90 100 76 100 100 97 8 0 0 0 0 10 3 5 100 100 100 100 100 100 100 100 100 100 100 100 100 100 100 96 67 46 64 54 30 5 5 58 62 100 100 100 97 83 24
5 37 11 61 100 18 100 86 45 3 0 0 0 0 0 3 4 12 97 100 100 100 100 100 100 100 100 100 100 97 95 84 69 6 6 5 5 5 5 37 82 95 100 100 100 100 88
97 5 3 13 96 30 96 100 100 44 0 0 0 0 0 2 0 4 10 51 100 100 100 100 100 100 82 100 99 99 86 42 30 5 5 23 6 5 2 5 5 28 74 89 62 73 30
100 52 5 3 100 5 5 99 100 96 6 0 0 0 0 0 0 0 2 1 18 76 100 100 100 100 99 100 100 53 74 51 5 15 5 5 5 5 5 5 5 5 5 35 58 94 32
100 100 14 0 100 91 5 2 88 100 100 2 0 0 0 0 0 0 0 0 0 6 96 54 100 100 100 94 89 96 73 60 98 80 43 8 7 47 10 12 5 61 5 14 29 99 100
100 100 90 3 47 100 12 1 1 100 100 100 23 0 0 0 2 4 1 0 2 66 79 67 40 73 99 68 98 100 100 100 52 60 62 79 30 5 43 5 10 16 29 55 100 97 97
100 100 100 18 1 100 86 70 0 31 20 8 10 0 0 0 0 0 0 3 70 76 57 35 81 100 72 47 85 100 100 100 100 100 94 67 26 5 5 67 80 94 55 95 99 93 86
99 100 100 100 22 27 100 100 1 1 23 0 0 0 0 0 0 0 0 7 38 100 68 6 74 92 66 63 16 63 99 98 52 95 100 100 89 19 5 52 96 98 56 91 98 100 100
100 100 100 100 96 71 100 99 100 2 0 0 0 0 0 0 0 0 0 16 93 100 69 100 73 100 67 96 96 85 37 55 100 67 100 97 69 5 5 29 66 99 99 94 96 100 100
98 100 60 98 100 96 96 99 100 11 16 0 0 0 0 0 0 0 1 33 26 13 30 71 93 92 99 68 100 86 94 8 75 77 58 94 100 100 100 100 100 100 81 100 100 100 100
89 100 72 91 100 100 99 52 94 100 93 52 0 0 0 0 0 0 35 13 5 5 5 31 53 100 91 97 94 100 93 100 100 100 100 97 89 100 89 77 86 100 100 100 100 100 100
53 100 100 100 100 100 100 100 34 100 24 100 0 38 0 0 8 2 4 0 0 0 3 6 5 44 8 8 93 100 100 94 98 67 92 92 100 91 41 73 94 100 100 100 100 100 100
100 78 100 100 100 100 100 100 100 71 82 100 25 5 1 0 1 2 0 0 0 0 0 3 63 11 5 5 5 83 100 75 10 31 89 64 85 57 100 100 100 100 100 100 84 100 100
100 100 100 100 100 100 100 100 100 100 100 20 99 50 5 11 0 3 1 0 0 0 0 0 0 0 1 0 4 5 69 4 5 38 7 6 20 8 5 9 54 88 65 61 100 100 100
100 92 100 100 100 100 100 100 100 100 100 80 100 100 10 37 6 0 0 0 0 0 0 0 0 1 0 0 0 0 1 2 0 0 4 5 5 4 2 5 4 37 35 25 96 43 93
100 100 85 40 14 86 100 100 100 100 100 100 99 100 100 52 13 1 0 0 0 0 0 0 0 0 0 2 0 0 2 2 0 2 0 3 3 0 0 3 2 2 5 5 5 5 45
100 100 100 79 93 100 100 100 100 100 100 100 100 100 100 100 100 16 5 5 5 1 0 0 0 0 0 0 0 0 0 0 2 3 3 2 5 0 0 0 0 0 0 0 0 0 1
100 100 100 100 100 99 98 100 100 100 100 100 100 100 100 100 100 94 7 5 5 5 5 4 1 0 0 0 0 0 0 0 0 0 0 3 5 5 4 0 0 0 0 0 0 0 0
100 100 100 100 100 100 100 100 100 100 100 100 100 100 100 100 99 100 97 47 32 20 5 5 5 3 0 0 0 0 0 0 0 0 1 1 5 5 3 0 0 0 0 0 0 0 0
100 100 100 100 100 100 100 100 100 100 100 100 100 100 100 100 100 100 100 100 57 55 5 5 5 5 5 5 1 1 0 0 0 0 0 3 4 4 0 5 7 7 5 2 0 0 0
100 100 100 100 100 100 100 100 100 100 99 100 100 100 100 100 100 100 100 100 100 100 100 41 5 5 5 5 65 83 50 5 5 1 0 3 5 4 5 5 40 100 97 27 5 2 1
100 100 100 100 100 100 100 100 100 100 100 100 100 100 100 100 100 100 100 100 100 100 100 58 74 42 34 29 40 31 55 49 84 87 76 9 5 14 68 57 94 99 99 90 40 12 5
100 100 100 100 100 100 100 100 100 100 100 100 100 100 100 100 100 100 100 100 100 100 100 100 100 98 100 99 53 99 54 12 58 60 95 100 90 15 5 61 5 100 100 98 43 71 37

GFSGBSN_prec_cloud_120.txt.gz
Cloud_Cover
86 7 1 100 82 16 74 32 3 1 4 44 100 96 100 100 100 100 100 35 14 5 9 16 82 100 100 98 100 100 100 96 100 100 100 98 19 1 0 2 4 0 0 0 0 4 0
95 23 8 66 66 0 19 5 5 6 6 7 56 100 100 100 100 100 100 69 5 5 35 54 100 100 97 90 100 100 100 97 100 83 100 100 100 69 16 82 5 36 9 0 0 0 0
78 96 17 34 99 4 0 0 68 1 50 2 3 98 100 100 100 100 50 5 5 5 49 100 100 100 59 100 100 100 100 100 66 11 72 94 80 100 100 86 44 48 11 5 5 5 3
97 100 99 10 92 67 16 2 41 6 14 84 7 100 70 50 100 100 44 17 30 70 100 100 100 100 100 100 100 100 100 100 70 76 26 99 100 100 100 100 96 26 10 9 5 5 5
96 100 100 100 53 66 100 18 0 0 0 4 19 29 79 100 100 100 100 100 100 100 100 100 100 100 100 100 100 100 100 100 100 31 71 89 70 53 48 67 83 97 88 91 92 100 99
0 85 100 87 100 36 24 100 1 0 0 0 0 28 100 98 99 100 100 100 100 100 100 100 95 99 100 100 100 100 100 100 99 61 78 84 60 18 38 83 64 8 28 94 6 75 6
1 0 58 100 100 100 1 98 48 2 0 0 0 1 5 5 100 100 100 100 100 100 100 100 100 100 100 100 100 100 100 100 60 5 57 5 5 3 4 5 5 35 5 5 5 3 5
60 5 8 4 100 100 100 7 66 35 26 0 0 0 0 4 43 76 96 100 100 100 100 92 100 68 84 94 100 81 73 98 45 34 5 22 5 2 5 9 51 5 5 5 8 5 5
100 43 5 6 4 100 100 42 55 6 39 3 0 0 0 0 0 31 74 66 75 100 97 94 52 43 97 100 99 91 76 53 24 8 16 5 5 2 3 4 5 5 5 5 5 4 2
98 100 23 5 5 100 100 100 46 1 0 7 4 0 0 0 0 0 4 5 5 72 41 35 76 100 100 100 100 100 100 100 84 38 5 5 1 1 0 0 0 4 0 1 5 5 5
97 100 48 5 5 100 100 100 100 9 0 0 0 0 0 0 5 0 0 0 2 3 41 100 100 100 100 100 98 100 100 100 100 36 5 4 2 3 6 11 1 52 5 5 5 79 80
100 92 97 98 19 97 100 100 100 100 3 0 0 0 0 0 0 1 0 0 3 48 76 27 44 100 100 99 100 96 68 98 81 30 14 5 5 4 51 4 5 5 5 36 68 51 76
100 100 95 88 89 100 100 100 100 97 9 0 0 0 0 0 0 0 0 0 58 64 8 39 100 100 96 100 100 100 100 100 100 59 86 84 5 5 5 93 86 75 87 34 82 83 11
100 100 100 100 100 100 96 100 100 33 22 0 0 0 0 0 0 0 0 3 44 99 47 58 99 63 6 59 99 76 100 100 86 98 99 85 8 24 5 69 100 90 26 79 76 86 62
100 100 100 100 100 100 100 100 100 100 23 2 0 0 0 0 0 0 0 10 68 90 78 51 19 82 46 25 100 97 93 17 100 94 100 100 99 5 5 47 23 51 95 48 73 11 92
100 100 100 100 100 100 100 100 100 100 24 97 28 2 0 0 0 0 4 6 5 5 8 25 82 50 94 74 78 92 100 79 100 68 64 95 88 7 3 4 14 88 46 88 96 94 100
99 100 100 100 100 100 100 100 100 100 100 97 98 23 4 0 0 0 48 5 4 0 2 8 66 84 100 100 100 100 40 5 7 28 64 100 96 81 6 20 69 70 100 100 100 100 100
100 100 100 100 100 100 100 100 100 100 100 100 100 99 5 5 23 0 1 2 0 0 0 0 1 9 6 23 100 100 38 99 64 84 100 76 51 51 23 59 94 100 100 63 78 91 67
100 100 100 100 100 94 100 100 100 100 100 98 100 98 100 6 5 3 1 0 0 0 1 3 5 1 4 2 5 5 5 24 75 54 6 7 15 15 99 38 13 27 92 93 96 90 100
100 100 100 100 26 93 68 100 100 100 100 100 100 100 100 100 5 1 5 5 0 0 0 0 0 0 0 0 0 0 0 3 4 0 0 5 5 5 5 5 5 5 5 17 24 79 81
100 100 98 100 100 84 100 10 100 100 100 100 100 100 100 100 63 98 5 5 0 4 0 0 0 0 0 0 0 0 0 0 0 0 0 2 5 0 1 2 1 1 2 1 2 3 29
100 100 85 76 100 100 100 100 100 100 100 100 100 100 100 100 100 100 100 83 6 5 5 5 0 0 0 0 0 0 0 0 0 0 0 0 3 0 0 0 0 0 0 0 0 0 0
100 100 100 100 100 70 73 100 100 100 58 100 100 100 100 100 100 100 100 100 100 91 8 5 3 1 0 0 0 0 0 0 0 0 0 0 0 1 4 0 0 0 0 0 0 0 0
100 100 100 100 100 99 100 100 100 100 99 30 100 100 100 100 100 100 100 100 100 84 83 63 19 5 5 4 3 2 0 1 0 2 0 0 5 5 7 15 37 4 4 2 0 0 5
100 100 100 100 100 100 100 100 100 99 100 100 100 100 100 100 100 100 100 100 100 100 99 30 38 39 5 54 22 41 42 9 20 29 15 4 5 5 6 5 12 15 40 60 5 4 4
100 100 100 100 100 100 100 97 100 100 100 100 100 100 100 100 100 100 100 100 100 100 100 100 98 22 24 73 87 97 38 35 92 17 31 97 100 89 76 30 60 8 12 93 100 100 100
100 100 100 100 100 100 100 100 83 29 83 86 100 97 100 100 100 100 100 100 100 100 100 100 100 100 100 100 100 100 100 100 100 100 97 100 95 79 100 100 100 100 100 99 100 89 100
100 100 100 100 100 100 100 100 100 100 100 46 10 99 100 100 100 100 100 100 100 100 100 100 100 100 100 100 100 100 100 100 100 97 100 89 99 86 20 36 100 100 100 100 100 100 100
100 100 100 100 100 100 100 100 100 100 100 100 60 5 6 51 100 100 100 100 100 97 100 100 100 100 100 99 76 100 100 100 100 100 71 5 7 6 38 13 100 100 100 100 100 100 100

GFSGBSN_prec_cloud_123.txt.gz
Cloud_Cover
100 100 54 30 86 50 99 88 3 1 18 99 69 100 100 91 86 97 5 30 5 5 100 100 100 100 100 100 100 100 99 57 100 90 78 100 7 0 0 0 0 0 0 0 0 0 2
100 100 83 1 64 95 12 2 7 0 16 24 100 100 81 73 96 94 60 48 10 47 100 100 100 99 100 100 100 100 100 100 97 17 45 100 84 3 1 0 0 1 4 0 4 0 0
100 100 100 90 90 100 41 0 10 0 0 0 94 98 54 32 37 10 4 5 5 5 100 100 100 100 100 100 100 100 100 100 100 100 100 100 100 100 77 5 0 0 0 0 0 2 0
26 100 100 100 32 61 87 18 0 0 0 0 5 5 100 100 96 84 42 37 41 82 100 100 100 100 100 100 100 100 100 100 100 83 89 82 96 100 100 40 6 1 0 0 0 0 0
0 26 81 45 98 100 100 37 6 0 0 0 5 5 16 100 100 34 70 56 87 100 100 68 88 100 100 100 100 100 100 94 75 44 22 51 99 99 100 100 74 8 5 5 5 5 1
4 5 4 38 100 96 100 83 96 37 0 0 0 2 5 5 90 87 95 85 84 96 58 100 100 98 100 100 100 100 99 54 95 67 82 75 21 47 100 76 65 78 72 26 13 5 5
100 4 7 14 100 18 100 100 100 100 0 0 3 0 5 4 5 5 100 59 90 73 22 78 100 100 100 100 100 97 94 5 38 34 93 10 5 5 5 20 5 6 5 5 0 5 32
100 82 34 61 76 32 47 100 100 100 4 0 0 3 0 5 5 5 100 41 77 87 73 100 72 12 98 19 46 90 82 5 11 59 20 5 32 47 5 5 5 5 5 5 3 5 15
54 100 97 34 100 40 32 40 100 100 24 4 0 1 0 0 0 0 5 5 5 5 43 100 77 44 89 90 100 100 100 83 5 5 18 5 2 0 4 5 4 5 5 5 1 0 0
87 100 100 54 77 100 86 6 22 48 10 3 0 0 0 0 0 0 0 3 1 4 5 35 85 78 99 87 86 95 95 96 84 29 5 3 0 1 0 0 0 0 0 0 5 3 3
100 100 100 100 100 100 100 45 24 67 5 5 0 0 0 0 0 0 0 0 5 10 51 46 45 30 93 100 100 100 20 5 58 94 19 5 0 0 5 3 1 5 5 0 5 5 5
53 100 100 100 100 100 100 100 20 43 4 0 0 0 0 0 0 0 0 0 2 4 77 62 69 40 95 99 100 100 93 93 65 99 100 5 3 2 5 1 0 1 1 5 5 35 67
100 100 92 100 82 100 100 100 99 100 10 0 1 0 0 0 0 0 0 0 5 49 22 33 81 96 100 88 82 100 100 100 100 100 98 13 5 1 0 5 3 5 5 40 5 88 35
100 100 100 100 100 91 64 100 100 100 99 0 5 0 0 0 0 0 0 2 15 8 5 44 52 17 10 56 100 90 95 71 80 73 51 5 5 4 5 54 94 91 22 58 33 68 14
100 100 100 100 99 100 100 100 100 100 100 2 2 2 5 0 0 0 28 9 5 5 5 5 5 5 8 24 37 48 13 25 85 7 21 46 54 5 5 59 11 54 81 60 58 48 98
100 100 100 100 82 80 100 100 100 88 100 94 5 5 5 5 0 0 1 7 4 5 5 5 10 27 54 37 28 13 5 5 5 5 6 35 82 10 5 5 5 89 43 42 94 82 51
85 94 100 100 32 5 84 100 100 97 100 100 18 27 5 14 1 0 5 5 1 1 2 4 7 86 85 100 97 40 4 3 3 18 43 100 82 32 8 5 7 67 83 49 63 69 94
87 11 100 100 100 35 40 100 100 100 100 100 87 43 94 5 6 5 0 2 3 0 0 0 0 0 1 5 14 58 5 5 3 6 46 13 12 5 8 5 5 5 5 5 35 59 88
100 92 100 100 100 100 66 30 100 100 100 90 100 100 52 55 20 6 74 3 0 3 0 0 3 0 0 0 3 0 0 2 5 5 2 3 6 34 5 3 5 5 5 5 5 7 50
100 100 100 100 100 100 98 5 7 100 100 100 100 100 100 100 6 26 5 60 8 3 3 0 0 0 0 0 0 0 0 0 0 0 0 0 1 1 1 0 0 0 0 1 4 82 5
100 100 100 100 100 95 18 59 5 5 100 100 100 100 95 100 100 79 66 5 6 5 5 4 0 1 4 4 4 1 0 0 0 0 0 0 4 0 0 0 0 0 0 0 1 1 8
100 100 100 100 100 100 100 100 80 57 5 5 100 100 100 100 100 100 99 100 9 5 5 5 5 5 5 5 18 68 14 4 1 0 0 0 4 2 0 0 0 4 2 5 4 5 5
100 100 100 100 100 100 100 100 100 100 100 10 5 75 100 100 100 100 100 100 100 99 9 5 5 5 5 5 6 18 71 73 71 30 22 22 5 6 4 1 3 5 12 13 28 54 10
100 100 100 100 100 100 100 100 100 100 97 20 5 5 16 99 100 100 100 100 100 100 100 76 8 5 28 5 21 77 98 100 100 100 100 100 86 53 100 99 92 100 88 62 75 87 100
100 100 100 100 100 100 100 100 100 100 99 15 77 38 8 5 23 90 100 100 100 100 100 100 100 100 8 92 98 57 67 19 49 100 100 100 100 99 70 11 11 22 99 81 76 83 98
94 100 100 100 100 98 70 67 99 100 100 100 100 98 94 30 5 5 5 18 52 98 100 100 100 100 100 94 100 93 86 52 91 7 12 33 47 100 100 92 8 70 11 79 100 26 15
100 100 100 100 100 100 100 36 74 95 97 85 80 95 72 98 100 97 15 5 5 5 18 100 100 100 100 100 100 90 40 5 82 98 68 17 81 75 100 91 91 100 100 100 100 100 100
100 100 100 100 100 100 100 100 100 100 97 100 100 96 42 5 66 77 45 98 64 4 5 6 95 100 100 100 100 100 100 100 83 60 73 21 41 99 93 61 51 100 100 99 100 100 100
100 100 100 100 100 100 100 100 100 96 100 100 98 100 100 100 57 59 79 97 100 95 86 5 5 52 100 100 100 100 100 100 100 100 100 100 30 56 96 39 11 6 13 100 100 100 100